ECMWFNIL_925_thetae_015.txt.gz
Theta_e
349 345 339 338 337 336 337 335 334 335 336 337 337 336 335 334 336 338 337 336 335 334 334 335 336 335 334 334 334 333 333 332 332 333 333 333 333 334 334 333 333 332
348 342 338 337 337 337 337 335 334 335 336 337 337 336 335 334 336 336 335 335 333 333 335 335 334 333 333 334 334 334 333 333 333 332 333 333 332 333 334 334 333 333
346 340 337 336 336 338 336 333 334 336 336 337 337 335 335 334 334 335 334 333 333 335 335 333 333 334 334 334 334 335 334 334 334 333 333 333 333 333 334 334 333 333
343 338 336 335 336 336 334 333 334 335 336 336 335 334 333 334 335 335 334 334 334 335 333 332 332 333 334 334 334 334 334 334 333 333 333 333 333 333 334 334 334 334
340 337 335 335 336 335 333 332 333 334 336 335 333 332 333 335 335 335 334 334 333 332 331 330 330 331 331 332 333 333 333 333 333 333 334 334 334 334 334 334 335 335
338 337 336 336 336 334 333 332 333 335 335 332 331 332 334 335 335 335 334 333 332 331 330 330 330 330 330 331 332 332 332 332 332 333 334 334 334 334 334 334 334 335
338 337 337 337 335 334 333 332 334 335 334 331 331 332 334 334 335 334 333 332 331 331 331 331 331 331 331 331 331 332 331 331 331 332 333 333 333 333 333 333 334 334
338 337 337 336 335 335 335 334 334 335 334 332 332 332 333 334 335 334 333 332 332 332 332 332 332 332 332 332 332 332 331 331 331 332 332 332 333 333 333 332 332 333
339 338 337 336 336 336 336 335 334 335 335 334 333 332 332 333 335 334 333 332 332 332 332 332 332 333 332 332 332 332 332 332 332 332 332 333 333 333 332 331 332 332
339 337 337 336 336 337 337 336 335 336 336 335 334 332 331 332 333 332 332 332 332 332 332 332 332 332 332 332 332 333 332 332 332 331 331 332 332 333 333 332 331 332
338 339 338 337 337 337 337 337 336 335 335 334 334 332 330 330 332 331 331 332 332 332 332 332 332 331 331 331 331 331 331 330 330 329 329 331 331 333 333 332 332 332
339 339 338 337 338 337 337 337 336 335 335 333 332 331 330 330 331 332 332 333 333 333 332 331 331 330 330 330 329 329 329 329 328 329 329 329 330 331 332 332 333 333
339 338 340 339 337 337 338 338 336 335 334 331 330 330 330 331 332 332 333 333 332 332 332 331 330 330 330 330 329 329 328 329 329 329 329 329 329 330 330 332 333 333
336 338 340 339 338 338 338 338 337 335 331 329 330 331 332 333 333 331 331 331 331 331 331 331 330 331 330 330 329 329 329 328 328 328 328 328 329 329 330 332 333 333
332 336 335 334 338 339 338 338 337 333 328 328 331 333 333 335 334 331 330 330 331 331 330 331 331 331 331 330 329 329 329 328 327 327 328 328 329 329 329 330 331 330
334 337 333 333 338 339 338 338 336 332 329 331 334 334 334 336 334 332 331 331 331 331 331 331 331 330 329 329 329 329 329 328 327 328 328 329 329 329 328 328 328 328
335 335 331 333 338 337 337 336 332 328 329 333 336 335 335 337 335 332 331 331 331 332 332 333 332 331 330 329 329 329 329 328 328 328 328 328 328 328 327 327 326 326
334 330 328 333 337 337 337 336 330 326 328 334 337 336 336 336 334 332 332 332 332 332 332 333 333 333 332 331 331 329 329 328 328 328 328 328 328 328 328 327 327 326
330 329 331 336 338 337 337 335 331 328 331 336 337 336 336 336 333 332 332 332 332 332 332 333 334 334 334 333 332 331 330 329 328 328 329 328 328 329 329 328 327 326
329 330 335 338 338 338 337 335 331 330 333 337 337 336 336 335 333 333 332 332 332 332 333 333 334 334 334 333 332 330 330 329 328 329 329 329 329 329 329 329 328 326
329 331 335 337 338 337 335 334 332 331 333 336 336 336 336 336 334 333 333 333 332 332 333 334 334 335 335 334 332 330 330 330 330 330 329 329 329 328 328 329 327 325
332 333 335 337 337 335 334 333 333 333 334 336 336 336 336 336 335 333 333 333 333 333 334 334 334 335 335 334 333 331 330 330 329 328 328 327 327 327 327 327 326 325
334 335 336 336 336 335 334 334 333 334 335 336 336 336 336 336 334 334 333 333 333 334 334 334 335 335 334 333 332 330 329 328 328 327 326 326 325 326 326 326 325 324
336 336 336 336 335 335 335 335 334 335 336 337 337 336 336 336 335 334 333 334 334 334 335 335 335 334 332 331 330 329 328 328 327 327 326 325 326 326 326 325 324 324
337 336 336 336 335 336 336 336 336 336 337 337 337 337 336 336 335 334 334 335 335 335 334 333 332 331 329 329 329 328 328 327 326 326 326 326 326 326 325 324 324 324
337 336 337 336 336 336 336 336 337 336 337 337 336 336 336 335 335 335 335 335 335 334 332 330 330 330 329 329 328 327 326 325 325 326 326 326 326 325 324 324 324 324

ECMWFNIL_925_thetae_018.txt.gz
Theta_e
352 352 352 351 347 342 339 337 337 337 337 337 337 337 336 335 335 335 334 336 337 337 336 336 335 336 336 336 336 335 335 333 333 332 332 333 332 333 333 333 333 333
352 352 352 351 346 341 339 338 337 337 336 336 336 335 335 336 335 334 335 337 337 336 336 335 335 335 336 335 335 335 335 334 333 333 332 333 332 332 332 333 333 333
352 352 352 351 346 341 339 337 336 336 335 335 334 335 336 336 334 334 336 337 336 335 335 334 335 335 334 334 334 334 334 334 334 333 333 333 333 332 333 333 333 334
352 352 353 350 347 343 339 336 336 335 334 334 335 336 336 336 334 334 335 335 335 334 334 334 334 334 333 333 333 334 334 334 333 333 333 333 333 333 333 333 333 334
353 353 352 350 347 343 338 336 336 335 334 335 335 336 336 335 334 334 334 334 333 333 334 334 334 333 332 333 333 333 333 332 332 332 333 333 333 333 333 333 333 333
352 351 351 350 347 342 337 336 336 335 334 334 335 336 336 334 334 333 334 333 333 333 333 333 332 331 331 332 332 332 332 331 331 332 332 332 332 332 333 333 333 333
351 351 351 350 345 340 336 336 335 334 332 333 335 336 334 332 332 333 333 333 333 333 333 332 331 330 330 330 330 330 330 330 331 331 332 331 331 331 331 332 332 333
351 351 350 349 344 338 335 335 335 333 331 332 334 334 332 331 332 333 333 333 334 333 332 331 331 331 331 331 331 331 331 331 331 332 332 331 331 331 331 332 332 333
350 350 349 347 341 336 335 335 334 333 331 332 335 333 331 330 332 333 333 334 334 333 332 332 331 331 332 332 332 332 332 332 332 332 332 332 332 332 332 332 332 333
349 348 346 343 339 336 336 334 334 334 333 332 334 333 331 331 332 332 333 334 334 333 333 332 332 332 332 332 332 332 332 332 332 332 332 332 332 331 330 330 331 332
346 344 342 340 338 337 336 333 332 335 335 333 333 333 332 332 332 332 332 332 333 333 333 332 332 331 331 332 331 331 331 330 330 329 329 329 329 329 329 329 330 331
343 342 341 339 337 337 336 335 335 336 336 334 333 333 333 334 333 331 331 331 332 332 332 332 331 331 332 332 331 330 330 329 328 328 328 328 328 328 329 328 329 330
342 343 342 340 338 336 335 336 337 336 334 335 335 334 333 334 333 330 330 331 331 330 331 332 332 333 332 331 330 330 329 329 328 328 328 328 328 328 328 328 328 329
341 342 341 339 338 336 335 337 338 334 332 336 336 331 331 334 333 329 329 331 331 330 332 332 333 333 332 331 330 330 329 329 329 329 329 328 327 327 327 328 328 328
340 340 339 338 337 337 336 337 337 332 329 332 332 330 332 335 333 329 329 331 332 332 332 332 331 331 331 331 330 330 330 330 329 328 329 328 328 327 327 327 327 327
340 339 338 337 337 338 337 337 334 330 329 331 333 334 336 335 331 328 330 332 333 333 332 331 330 331 330 330 330 330 330 329 328 328 329 329 328 327 327 327 327 326
340 339 338 336 336 338 338 334 329 328 333 337 337 336 336 333 327 325 328 332 334 334 333 331 330 330 330 330 330 329 329 328 329 329 330 329 329 328 328 328 327 327
340 339 337 334 334 336 335 332 327 326 333 337 337 337 336 331 326 325 328 332 334 335 334 331 330 331 331 332 332 331 331 331 331 332 331 331 330 329 328 328 328 328
339 339 337 334 333 332 330 329 328 329 332 336 337 336 333 329 328 329 332 334 335 335 334 331 331 331 332 332 333 333 333 333 333 333 332 331 330 329 328 329 329 328
338 337 336 333 331 329 327 329 331 332 334 336 337 335 331 329 329 331 333 335 336 336 334 332 331 332 332 332 333 333 333 334 333 332 330 330 329 329 329 329 328 328
337 336 334 330 328 327 327 330 333 334 335 335 335 334 332 330 330 332 334 335 336 335 334 333 331 332 332 332 333 334 334 333 332 331 330 330 329 328 328 327 326 326
336 335 333 330 329 328 328 331 333 334 335 334 334 333 332 331 332 334 335 335 336 335 334 333 332 332 332 332 333 334 333 333 331 330 330 328 328 328 327 326 325 325
335 333 332 330 329 329 330 331 332 334 335 335 334 333 333 333 333 334 335 335 335 334 334 333 332 332 332 333 334 334 332 331 330 329 328 327 327 327 326 325 325 325
334 332 332 330 328 329 330 331 333 334 335 335 334 334 334 333 333 334 334 335 335 335 334 333 332 333 334 334 333 332 330 329 328 327 327 326 326 325 324 325 325 325
333 332 331 330 328 329 331 333 334 335 335 335 335 335 334 334 334 334 335 335 335 335 333 333 333 333 333 332 330 329 328 328 327 326 326 325 324 323 323 324 325 325
333 332 331 329 329 330 332 334 335 335 335 335 335 335 335 335 335 335 336 335 334 334 333 333 333 333 331 330 329 328 328 327 326 325 324 324 323 323 323 324 325 325

ECMWFNIL_925_thetae_021.txt.gz
Theta_e
352 351 352 353 353 351 349 350 348 342 340 338 336 336 336 336 336 336 334 334 334 335 336 337 338 336 336 336 335 336 336 336 336 336 334 334 335 335 336 335 335 335
352 352 353 354 353 351 350 351 347 341 338 337 336 336 336 336 336 336 335 335 335 335 336 337 337 336 335 336 336 336 336 336 336 336 334 334 334 335 335 335 335 335
353 353 353 354 353 351 351 350 347 341 337 337 336 336 336 336 336 336 335 335 334 334 336 337 337 336 335 335 336 336 336 336 336 336 334 334 334 334 335 335 335 335
353 353 354 354 353 351 352 350 346 340 337 337 336 336 336 336 336 335 335 334 334 335 337 337 336 335 334 335 335 335 335 335 335 335 334 334 333 333 334 334 334 334
353 353 353 353 352 352 351 350 345 340 337 337 336 336 335 335 335 335 335 334 334 336 337 336 335 334 334 334 335 334 334 335 335 333 333 334 333 333 333 333 333 333
353 353 353 352 352 351 351 350 345 340 338 336 335 335 335 335 335 336 335 335 335 336 336 335 333 334 334 334 334 333 334 335 335 333 332 333 334 333 332 332 332 333
353 353 352 352 351 351 351 350 346 342 338 336 335 335 334 335 336 336 335 335 335 335 334 333 333 333 333 333 332 332 332 332 332 331 330 331 332 332 331 331 332 333
353 352 351 351 351 351 351 350 347 342 337 336 335 334 334 336 335 334 333 334 334 334 333 333 333 332 332 331 331 331 331 330 330 330 330 330 331 331 331 331 332 332
353 352 350 350 351 351 351 350 347 342 337 336 335 333 336 336 330 327 331 332 332 333 333 333 333 332 331 331 331 331 331 331 331 331 332 332 332 332 332 332 333 333
352 351 350 349 350 350 351 349 344 340 336 334 334 334 335 332 327 326 330 332 332 332 333 333 333 332 332 332 331 332 332 332 332 332 332 332 332 332 332 332 332 331
352 350 349 349 349 350 350 348 343 339 335 333 334 332 329 328 328 327 328 330 331 330 330 333 333 332 332 332 331 332 332 332 332 332 332 331 330 329 329 329 329 329
351 349 349 348 349 349 348 347 342 337 334 333 330 325 325 329 329 324 326 330 330 328 330 332 333 332 332 331 331 332 331 331 332 331 331 329 328 328 328 328 328 328
351 350 348 347 347 346 346 346 341 336 334 332 326 322 326 331 330 325 326 328 328 327 329 331 331 332 332 331 331 331 331 332 332 331 329 328 328 328 328 328 328 327
351 349 348 346 344 345 346 344 339 336 335 330 326 325 325 325 325 326 326 326 327 328 328 329 330 332 331 331 331 331 332 332 331 330 329 329 329 328 328 328 327 327
350 348 347 344 342 344 344 340 337 336 334 332 331 329 323 319 321 324 325 326 327 327 327 329 330 330 330 331 331 332 332 332 330 330 329 329 329 329 328 329 328 327
350 348 346 342 340 342 341 337 335 335 335 335 332 325 321 320 321 323 327 329 328 327 328 329 329 330 331 331 332 331 331 331 330 330 330 330 329 329 329 329 329 328
349 347 345 342 339 339 338 336 335 335 335 334 328 324 327 329 327 326 327 330 332 332 331 331 329 329 332 333 331 331 330 330 331 330 330 329 329 329 330 330 330 330
349 347 345 342 340 338 336 336 335 336 336 333 327 327 332 335 333 327 324 328 333 334 333 331 328 329 333 334 331 330 330 330 331 331 330 330 330 332 332 332 331 331
348 347 345 343 341 339 337 336 335 335 335 333 329 327 329 331 328 323 325 331 335 334 332 330 327 329 334 334 331 330 331 331 332 332 332 332 333 333 332 331 330 330
348 347 345 343 341 339 338 337 336 335 334 333 330 326 325 326 325 325 330 334 333 332 330 328 327 329 333 334 332 331 331 332 332 332 333 333 333 333 331 330 329 329
347 346 344 342 340 339 338 337 336 334 332 330 329 327 326 327 331 333 334 334 333 331 329 329 329 329 332 335 333 331 331 332 332 332 333 333 333 332 330 329 329 328
346 346 344 341 339 338 337 336 335 332 331 329 329 331 331 332 335 336 335 334 333 330 329 331 331 330 333 336 334 331 332 332 332 333 333 333 332 331 328 328 327 326
345 344 343 341 338 336 335 334 332 330 330 330 331 332 333 334 336 336 336 335 333 331 330 331 331 332 334 336 334 332 331 332 333 333 332 331 330 328 327 327 326 325
343 343 342 340 338 336 334 332 331 330 332 333 333 333 334 335 336 336 337 336 334 334 334 333 334 335 335 335 334 332 331 333 333 331 330 329 328 327 326 326 325 324
342 341 340 339 338 336 333 331 331 332 334 335 334 334 335 336 336 337 337 337 336 336 335 334 336 337 335 335 335 332 332 333 332 329 328 328 327 326 325 324 324 325
341 340 339 338 337 335 332 331 332 333 334 335 335 335 336 337 337 337 338 338 337 337 336 336 336 336 335 334 334 333 333 331 329 327 327 328 328 327 326 327 327 326

ECMWFNIL_925_thetae_024.txt.gz
Theta_e
363 363 363 362 361 359 358 358 357 357 355 354 353 352 351 350 348 346 344 343 342 342 341 341 342 342 341 340 341 340 340 340 339 338 339 339 338 337 337 337 337 337
363 363 363 362 361 360 360 359 357 357 355 355 353 351 350 350 347 345 343 342 342 341 341 341 342 342 340 339 340 340 340 339 338 338 338 338 338 337 337 336 336 336
364 364 363 362 361 361 360 359 358 356 355 355 353 350 349 348 346 345 343 342 342 341 341 342 342 342 340 339 340 340 340 339 338 337 338 338 338 337 336 336 335 335
364 364 364 363 361 361 360 358 357 356 354 354 352 349 347 346 345 344 343 342 342 342 341 341 341 341 341 340 341 340 340 340 339 338 338 338 338 337 336 335 335 335
365 365 364 363 362 361 359 358 357 355 354 353 351 348 347 346 345 343 343 343 342 341 341 341 341 341 341 341 341 341 341 340 339 338 338 338 337 336 336 335 335 335
366 365 364 363 362 360 359 357 356 355 353 352 350 348 347 346 344 343 342 342 341 340 341 341 341 341 340 341 341 341 341 339 338 338 338 337 336 336 335 334 335 335
366 365 363 362 361 359 358 357 356 354 352 351 350 347 346 345 343 342 341 342 341 338 337 340 341 339 338 339 340 341 340 339 338 338 338 337 336 336 335 335 335 335
365 365 363 362 361 359 358 357 355 353 351 351 349 347 345 344 343 342 342 341 339 336 336 338 340 338 335 337 339 340 339 338 337 337 337 337 336 336 336 335 335 336
365 364 363 361 360 358 356 356 355 353 351 350 349 347 343 340 340 341 340 338 337 338 338 335 335 334 332 335 339 339 339 337 337 337 337 336 336 336 336 335 335 336
365 364 362 361 359 357 355 355 354 353 351 349 349 346 340 336 338 339 337 335 336 339 337 332 332 331 329 333 339 339 338 338 337 337 337 337 336 336 335 335 335 336
365 364 362 360 359 356 354 354 354 353 351 349 348 345 340 338 337 337 336 333 332 333 332 331 333 329 326 333 339 339 337 337 337 337 337 337 337 336 336 335 334 334
365 363 361 360 359 356 354 354 353 352 351 349 347 344 340 338 335 335 334 330 326 329 331 333 332 327 326 331 338 339 336 334 335 337 338 337 337 336 336 335 335 334
365 363 361 360 359 357 354 353 352 351 350 348 347 344 340 338 335 334 332 327 324 327 330 332 330 327 327 330 335 338 335 334 336 338 338 337 337 336 335 334 334 333
366 364 362 360 359 356 354 353 352 350 348 347 346 342 338 337 333 330 327 326 326 327 329 332 330 326 326 328 331 335 337 338 339 339 338 338 337 336 334 334 333 332
366 364 361 359 358 355 353 353 351 348 347 347 346 342 337 335 330 324 323 326 329 329 329 332 331 325 323 327 331 336 339 338 338 339 339 338 337 336 335 334 333 332
365 363 360 359 357 355 353 352 349 347 346 347 347 341 335 334 328 322 324 330 333 332 331 332 331 326 322 326 332 336 338 337 338 340 339 337 336 336 335 334 334 334
364 362 360 358 356 355 353 351 348 346 346 346 345 340 335 332 326 324 331 335 334 333 332 331 330 326 324 326 329 330 332 335 338 339 338 337 337 336 336 336 334 334
362 361 360 357 356 355 354 352 348 345 346 347 344 339 335 331 327 330 336 335 332 333 334 332 330 326 324 324 325 326 328 332 336 337 337 337 337 336 336 336 335 336
361 360 359 357 356 354 353 351 347 345 345 345 343 340 334 330 330 333 334 331 331 335 336 335 333 329 325 325 326 327 328 330 334 337 336 336 338 338 338 338 339 340
362 360 358 357 355 352 351 349 347 345 343 342 342 341 336 333 334 333 330 329 331 334 334 334 335 333 331 331 329 327 327 331 333 335 336 337 338 340 340 341 341 341
362 359 357 357 353 351 350 349 347 345 342 340 341 340 338 336 335 334 332 332 333 333 332 333 334 334 334 334 331 327 328 330 332 335 337 338 338 340 341 341 341 340
361 358 356 356 353 350 349 348 346 344 341 340 340 338 337 336 335 334 334 334 334 333 333 333 333 334 335 335 332 330 328 329 332 335 337 338 339 340 341 340 339 339
359 357 356 355 352 350 348 347 345 343 341 340 338 336 334 333 332 332 332 333 334 334 335 335 335 335 335 334 332 329 327 330 334 337 338 339 340 340 339 338 335 333
356 354 355 354 352 350 348 346 345 342 340 339 337 335 334 333 332 332 332 334 336 336 336 336 335 335 336 335 333 328 327 332 337 339 340 341 340 338 336 333 330 327
353 352 353 353 352 349 347 346 345 342 340 337 335 335 335 334 334 334 334 336 336 336 336 335 335 335 336 336 336 333 331 333 338 341 341 339 337 335 333 330 327 326
351 350 351 352 351 349 347 345 344 342 339 337 335 335 335 335 336 336 336 337 337 337 336 336 336 337 337 337 338 336 334 335 338 340 338 335 332 332 331 330 328 328

ECMWFNIL_925_thetae_027.txt.gz
Theta_e
363 361 360 360 360 359 357 356 356 356 354 354 353 353 352 349 348 347 345 344 344 343 343 342 343 343 342 342 342 341 341 340 339 338 338 339 338 337 337 337 336 336
364 363 361 360 360 360 359 357 356 356 356 355 353 352 352 350 348 347 345 345 344 343 344 343 342 343 342 342 342 341 341 340 339 338 338 338 338 337 337 337 336 337
365 364 362 361 360 360 360 358 357 357 357 356 354 353 352 351 350 348 346 345 345 343 343 343 343 344 343 341 341 341 341 340 339 338 338 338 339 339 338 338 337 336
366 365 363 362 361 360 360 359 358 359 357 355 355 354 352 352 350 348 347 346 345 343 343 343 343 344 343 341 341 341 340 340 339 338 338 339 339 340 339 338 337 337
367 366 365 363 362 361 361 361 360 359 357 355 355 354 352 352 350 348 347 346 344 343 342 342 343 344 343 342 342 342 341 340 340 339 339 340 340 340 339 338 338 338
369 368 366 364 364 362 362 363 361 361 359 355 355 355 353 351 349 347 347 345 343 343 343 343 343 343 343 343 343 343 342 341 341 339 339 340 340 339 338 338 338 338
369 369 368 366 365 364 364 365 363 362 359 357 357 356 354 351 349 347 346 345 343 342 343 343 342 342 343 344 343 343 343 341 340 339 338 339 339 338 338 338 337 337
369 369 368 367 366 365 365 365 364 363 361 358 358 356 353 351 349 347 346 345 343 342 343 344 343 342 343 344 343 343 343 341 339 339 339 339 339 339 338 338 338 338
368 369 369 367 367 366 366 365 364 363 361 359 358 356 353 352 350 347 346 345 343 343 344 343 343 343 343 343 343 343 342 341 339 339 339 339 339 339 339 338 338 338
369 369 369 368 366 366 366 364 363 363 362 359 358 356 354 352 350 347 346 344 342 343 345 342 341 342 343 343 343 342 341 340 340 339 338 339 339 339 339 338 338 338
369 369 370 368 367 365 365 363 362 362 361 359 358 357 355 353 350 347 347 344 342 345 346 342 340 343 343 342 341 340 338 338 339 338 338 339 339 339 339 338 338 338
370 369 369 368 367 366 364 363 361 360 361 360 358 357 355 352 350 348 347 343 343 346 345 341 342 344 344 342 340 338 338 337 337 338 338 339 338 339 339 338 338 338
371 370 369 368 368 366 364 363 360 357 359 360 358 356 355 353 350 349 347 345 345 345 343 343 345 345 344 342 340 339 339 336 336 338 339 338 338 338 338 337 337 337
372 371 370 368 368 367 365 364 360 358 359 360 358 356 355 353 351 349 347 346 346 344 342 345 346 344 343 342 339 339 339 337 336 338 339 338 338 337 337 336 336 336
372 371 369 368 367 366 365 364 361 359 359 360 358 356 354 353 350 348 347 346 345 343 342 344 345 342 341 340 338 339 340 339 338 338 338 338 338 338 336 336 336 336
372 369 368 367 365 364 364 362 361 359 359 359 358 356 355 353 350 348 348 346 345 344 344 344 342 340 338 337 338 340 341 339 339 338 338 338 339 338 337 336 337 337
371 368 367 366 364 363 363 361 360 359 359 358 357 356 355 353 351 349 346 344 345 345 344 342 340 339 338 336 336 336 337 338 339 338 338 338 338 339 338 337 336 336
371 367 367 366 365 363 363 362 360 359 359 359 357 356 355 353 349 347 346 345 345 343 341 339 339 339 338 336 333 330 330 336 339 338 338 337 337 338 338 337 336 337
369 366 366 366 365 364 363 361 360 360 360 358 357 356 355 352 349 348 347 345 343 341 338 336 337 338 337 336 332 326 324 329 333 335 335 335 336 337 338 338 338 337
367 365 365 365 364 363 363 361 359 359 358 355 355 356 355 353 351 349 346 343 341 339 336 335 337 338 337 335 331 325 323 325 327 331 335 335 335 337 338 339 339 339
366 364 364 364 363 362 362 360 359 359 357 354 354 355 354 353 350 347 344 342 340 337 334 335 338 338 336 333 329 325 325 325 325 330 335 336 335 337 338 339 339 340
365 362 362 362 362 361 360 359 358 358 356 355 354 353 353 350 346 343 341 339 338 336 334 336 338 337 335 333 329 327 326 326 327 333 337 336 336 337 337 338 340 342
366 363 361 360 360 360 358 357 356 355 355 355 353 351 351 347 343 339 337 336 336 334 334 334 335 335 335 333 330 327 327 328 332 336 337 336 336 337 337 338 340 342
366 364 361 359 360 359 357 355 354 354 353 352 350 349 348 346 342 339 336 335 333 332 332 333 332 333 333 332 331 329 329 331 335 338 337 336 336 338 339 339 339 340
365 363 360 359 358 357 355 354 353 352 350 349 348 347 346 344 342 340 337 335 334 333 333 332 331 332 333 333 333 333 333 334 336 338 336 336 337 338 338 339 339 338
362 360 359 357 357 356 354 353 352 350 348 346 345 345 344 343 341 338 337 335 335 335 335 334 333 333 333 333 334 335 335 334 336 338 336 336 340 340 339 340 339 337

ECMWFNIL_925_thetae_030.txt.gz
Theta_e
362 362 361 362 362 361 360 357 357 358 357 355 356 356 355 353 351 350 351 349 346 344 343 342 341 340 340 340 340 341 341 340 341 340 339 339 339 338 337 337 336 336
362 363 362 361 362 361 360 359 358 358 357 356 356 356 355 353 351 349 350 349 345 344 343 341 342 342 342 342 341 340 341 341 340 339 339 339 338 338 337 337 336 337
363 363 362 361 361 361 361 359 358 357 357 356 355 355 355 352 350 348 348 348 344 344 344 342 342 343 343 343 342 341 341 341 340 340 339 339 338 338 337 337 337 337
364 363 362 361 361 361 360 360 359 358 357 356 355 355 354 352 350 348 347 346 345 344 344 343 343 343 343 343 343 342 342 341 341 339 339 339 337 337 338 338 338 337
364 364 363 362 360 360 360 360 360 358 357 357 357 355 354 353 351 349 347 346 345 345 344 344 343 344 343 343 343 342 342 342 341 340 339 339 337 338 339 339 339 338
365 365 364 362 361 360 360 360 360 359 358 358 358 356 354 353 352 350 348 347 346 346 345 344 344 344 343 344 343 342 342 342 341 340 339 338 339 338 338 338 338 338
366 366 364 363 362 360 360 361 360 360 358 358 357 356 355 353 352 351 349 347 347 346 345 344 344 344 344 344 343 343 343 342 342 341 339 340 340 338 337 338 338 338
367 366 365 363 363 362 360 360 361 360 359 359 358 356 355 354 352 352 350 348 347 346 345 344 343 344 345 344 343 343 343 342 342 342 340 340 340 339 339 339 339 338
368 368 365 364 363 362 362 361 362 362 360 360 358 357 356 354 353 352 350 348 347 345 344 344 343 343 344 344 343 343 343 343 343 342 341 340 338 338 339 339 339 339
369 369 367 366 364 363 363 362 362 363 362 361 359 357 356 355 354 352 350 348 347 345 344 343 343 343 344 344 344 344 344 343 342 341 341 340 339 339 339 339 339 339
368 369 368 367 366 365 364 362 362 364 364 362 360 358 357 356 355 352 350 348 347 345 344 343 343 343 343 343 343 344 344 343 342 339 339 341 340 340 340 339 339 339
368 368 368 368 366 365 364 363 362 364 364 363 362 360 359 358 355 353 351 349 348 346 343 343 344 344 342 342 343 344 344 343 341 337 336 339 340 340 340 340 340 340
368 367 368 368 365 364 364 364 362 363 364 364 363 361 360 359 356 353 352 350 348 346 344 343 344 344 343 342 343 344 343 343 341 336 335 338 339 339 339 340 340 340
368 367 367 367 365 365 364 364 363 363 363 363 363 362 360 359 357 355 353 350 349 347 344 343 344 344 343 342 342 343 343 342 339 336 335 338 339 338 339 339 339 339
369 368 367 366 366 366 365 365 364 363 364 364 363 362 361 360 358 356 353 351 350 347 345 345 345 343 342 342 342 342 342 341 338 334 334 337 338 339 339 339 339 339
371 370 368 367 367 368 367 366 365 365 365 364 364 363 361 360 359 357 354 352 350 348 346 347 346 342 342 342 341 340 340 339 338 335 334 336 338 339 339 338 338 338
372 372 371 368 368 369 369 368 366 366 365 364 363 363 361 360 359 357 355 352 351 348 347 348 345 342 343 341 337 338 339 339 338 336 335 336 338 339 339 339 338 338
373 374 372 370 370 370 369 369 367 367 366 363 362 362 362 361 359 358 356 353 351 350 348 347 345 344 345 339 334 336 339 338 337 337 336 337 338 339 339 339 338 337
374 375 374 371 371 370 369 369 368 367 366 363 362 362 362 361 359 358 356 353 351 350 348 346 346 346 345 339 335 338 339 337 337 338 338 338 338 338 339 338 337 336
375 375 373 371 371 370 368 368 366 366 365 363 362 361 361 361 359 357 356 353 350 349 347 346 345 344 342 338 336 337 337 337 337 338 338 339 339 338 338 336 335 336
375 374 372 371 370 368 368 367 366 366 365 362 362 362 361 359 358 356 354 351 349 348 347 346 343 340 339 336 335 336 336 335 335 337 338 339 338 336 335 333 333 337
374 373 372 371 369 368 367 367 366 365 363 361 361 360 359 358 357 355 352 350 348 347 346 344 340 338 338 336 336 337 336 333 332 334 335 333 333 333 331 330 334 338
373 371 370 369 368 368 367 366 365 363 362 361 359 358 357 357 356 354 352 349 347 345 344 341 338 337 337 336 336 337 335 332 331 331 328 327 329 331 332 332 335 338
371 369 369 368 366 366 366 364 363 362 362 361 358 357 356 354 353 351 349 348 346 343 341 339 337 338 337 336 335 334 331 329 329 328 327 327 330 332 334 335 337 338
369 368 367 366 364 364 363 361 360 360 359 358 357 357 354 351 350 348 345 344 343 342 340 338 337 338 338 336 334 332 329 329 328 327 328 331 334 333 334 336 337 338
367 366 364 364 363 362 360 359 358 357 356 355 354 353 351 349 347 345 343 341 340 339 338 338 337 336 335 335 333 331 330 330 328 327 329 335 337 337 338 339 339 339

ECMWFNIL_925_thetae_033.txt.gz
Theta_e
361 361 361 360 359 359 359 357 356 356 354 353 354 354 353 353 353 352 351 349 347 348 347 343 341 339 339 341 339 339 340 341 340 340 339 340 339 337 338 337 338 338
361 361 361 360 360 359 358 357 355 355 354 353 353 354 354 353 353 352 351 349 348 348 346 342 342 338 337 341 339 339 342 340 339 340 340 339 339 337 337 338 337 336
361 361 362 361 360 359 358 357 355 354 355 354 354 353 354 354 353 352 352 349 347 347 343 342 342 338 336 340 340 340 342 340 338 340 340 339 339 338 336 337 336 336
362 361 361 361 360 360 359 357 357 356 356 356 355 354 353 353 353 353 352 350 347 346 343 342 343 340 336 338 340 341 341 340 339 340 340 339 338 337 337 337 336 336
362 361 361 360 360 361 360 359 358 357 357 356 356 355 354 353 353 353 352 350 348 346 344 343 343 341 337 337 340 340 341 340 339 339 340 339 338 337 337 337 337 337
363 362 361 360 360 360 361 360 359 359 358 357 356 355 355 353 352 352 351 350 349 347 346 343 343 342 338 338 341 341 340 340 339 338 339 339 339 338 337 336 337 338
363 362 361 360 360 360 360 360 360 359 358 357 357 356 355 355 353 351 350 350 349 348 345 344 343 342 339 340 342 342 342 341 339 338 339 339 339 339 336 336 337 338
363 362 361 360 360 360 360 360 360 360 358 358 357 356 356 355 353 352 350 349 349 347 345 344 343 342 340 340 342 343 342 341 340 339 339 339 339 339 337 336 337 338
363 363 362 361 361 360 360 359 359 360 359 358 357 356 356 354 353 352 350 349 348 346 345 344 343 343 341 340 342 342 343 342 341 341 340 339 339 339 338 338 337 337
363 363 362 362 362 361 360 360 359 359 359 359 358 357 356 355 354 352 350 349 348 346 345 345 344 343 342 341 341 342 343 342 342 342 341 340 339 338 339 339 337 336
363 364 363 363 362 361 361 360 360 360 359 359 358 358 357 356 354 353 351 350 348 347 346 345 344 344 342 342 342 342 343 343 342 342 341 341 339 338 338 338 337 337
364 364 364 363 363 362 361 361 360 360 360 359 358 358 358 357 355 354 353 351 349 348 347 346 345 344 343 342 343 343 343 343 343 342 342 341 340 339 338 337 336 338
364 364 364 363 363 363 361 361 361 360 360 360 359 359 358 357 356 355 353 352 350 349 347 346 345 344 343 343 343 343 344 343 343 342 342 342 341 340 338 334 333 337
364 364 364 363 363 363 362 361 360 360 360 360 360 360 359 358 357 356 354 353 351 350 348 347 346 345 344 343 343 344 344 343 343 342 342 342 341 341 338 335 334 337
364 364 364 364 363 363 362 361 360 359 360 360 361 360 360 359 358 356 355 353 352 351 349 348 346 345 344 343 343 344 343 343 343 343 343 342 341 340 340 338 338 339
364 364 364 365 364 364 363 362 361 360 360 361 362 361 360 359 358 357 356 354 353 351 350 348 346 345 345 343 342 342 342 342 343 343 343 342 340 339 339 339 339 339
365 364 364 365 365 365 364 363 362 362 361 361 362 363 362 361 360 359 357 356 354 352 350 349 347 346 345 344 342 342 341 340 341 342 343 342 340 338 338 338 338 339
365 364 365 365 365 365 365 364 363 362 362 362 362 363 363 362 360 359 358 357 355 353 351 350 348 346 345 344 343 343 341 340 340 342 342 341 339 337 337 338 338 338
366 366 366 365 365 365 365 365 364 363 363 363 363 364 363 362 361 360 359 357 356 354 352 350 349 347 345 344 343 343 343 340 340 342 342 340 338 337 336 337 338 338
367 368 367 366 366 365 366 366 365 364 365 365 364 364 363 362 361 360 359 358 356 355 353 351 349 347 346 345 344 343 342 340 339 340 340 339 337 336 336 337 338 338
369 368 368 367 367 366 367 367 366 366 366 366 365 365 364 363 362 361 360 358 355 354 352 350 349 348 347 346 345 343 342 340 339 339 340 339 336 336 337 337 338 339
370 369 369 369 368 368 369 368 368 368 367 367 365 364 363 363 362 361 360 358 355 353 351 350 349 348 348 347 346 345 343 340 338 338 339 338 337 337 336 336 337 337
371 371 371 370 369 369 369 369 369 368 367 366 364 363 362 362 361 361 359 357 355 352 351 350 349 348 348 347 346 345 343 341 339 339 339 338 339 338 337 337 337 332
372 371 372 371 370 370 369 369 368 367 366 365 363 362 361 360 360 359 357 355 353 351 350 349 348 347 347 346 346 345 344 341 339 339 339 338 339 338 337 337 335 330
373 372 372 371 370 369 368 367 367 366 365 363 362 361 360 359 358 357 355 353 351 350 349 348 347 346 345 344 344 343 342 341 339 338 338 337 337 336 335 333 328 327
373 372 371 370 369 368 367 366 365 364 363 362 360 359 357 356 356 355 353 351 349 348 347 346 346 346 344 343 341 340 340 339 338 336 336 335 334 332 330 328 326 325

ECMWFNIL_925_thetae_036.txt.gz
Theta_e
356 355 355 357 357 355 354 353 354 355 355 355 356 356 357 355 354 354 353 352 349 348 348 347 346 344 338 335 337 340 339 337 334 331 333 337 336 336 336 335 333 334
356 356 355 356 357 356 355 354 354 355 354 355 354 354 355 354 354 353 353 352 350 347 347 347 346 342 337 337 338 340 339 336 334 333 334 337 339 337 337 337 336 336
357 357 356 356 357 356 356 355 354 355 355 355 354 354 355 353 354 354 352 352 350 348 347 346 346 342 338 337 338 339 339 337 337 337 336 337 340 339 337 337 337 337
357 357 357 357 357 357 357 357 356 355 355 355 355 354 354 353 353 353 352 352 350 349 347 345 346 344 340 338 339 339 339 337 337 339 339 338 339 339 337 335 336 337
357 357 358 358 358 358 358 357 357 356 356 356 355 354 353 353 353 353 352 352 350 350 348 345 346 346 342 339 339 339 339 338 338 339 339 337 338 339 337 336 336 337
357 358 358 359 359 359 358 358 358 357 357 356 355 354 353 352 352 352 352 352 351 350 349 346 346 347 343 340 339 338 338 338 339 340 338 337 338 339 339 338 337 336
358 358 358 359 359 359 359 358 358 357 357 356 355 354 353 352 352 352 352 351 351 350 349 347 347 347 343 340 338 337 338 338 339 340 338 337 338 339 339 339 337 336
359 359 359 359 359 359 359 358 358 358 357 356 355 354 353 353 353 353 352 352 351 351 350 348 348 346 343 340 338 337 338 339 340 340 339 338 339 339 339 338 337 337
360 360 359 359 360 359 359 359 358 358 357 356 355 354 354 353 353 353 353 352 351 351 350 348 346 344 342 341 339 338 338 339 340 340 339 339 339 339 339 338 338 337
361 361 360 360 360 359 359 360 358 358 357 357 356 355 354 354 353 353 353 353 352 351 350 347 345 344 342 342 342 340 338 338 339 340 340 340 339 338 339 339 339 338
361 361 361 360 360 359 359 359 359 359 358 357 357 356 355 355 354 354 353 353 352 351 349 348 345 344 343 342 343 342 339 337 338 340 340 340 339 338 339 339 338 338
361 361 361 361 360 360 359 359 359 359 358 358 357 356 356 355 355 354 353 352 352 351 350 348 346 345 344 344 343 342 340 338 339 340 340 341 340 339 338 338 338 338
362 361 361 361 361 360 359 359 358 358 358 358 358 357 357 356 355 355 354 353 352 351 350 348 347 346 345 344 343 342 341 340 340 341 341 341 341 340 339 339 338 338
361 362 361 361 361 360 359 359 358 358 358 358 358 358 357 356 356 355 354 353 352 351 350 348 347 346 345 344 343 342 342 341 340 341 341 341 341 341 340 340 339 338
362 362 362 361 361 361 360 359 358 358 358 357 358 358 357 357 356 355 354 353 352 351 349 348 347 346 345 344 343 343 342 341 341 341 341 341 341 341 341 340 340 339
362 362 361 361 361 360 360 360 359 358 358 358 358 358 357 357 356 356 355 354 353 351 350 348 347 346 345 345 344 344 343 342 342 341 341 341 341 341 341 341 341 340
362 362 362 361 361 361 361 360 359 359 358 358 358 358 358 357 357 356 356 355 354 353 351 350 348 347 346 345 345 345 344 343 342 342 342 341 341 342 341 341 341 341
363 362 362 362 362 361 361 360 360 359 359 358 358 358 358 358 357 357 356 355 354 354 353 351 350 348 347 346 346 346 345 344 343 343 342 342 341 341 341 341 341 340
363 363 362 362 362 361 361 361 360 360 359 359 358 359 358 358 358 357 357 356 355 354 353 352 351 350 348 347 348 348 346 344 343 343 342 342 341 341 341 341 340 340
363 363 362 362 362 361 361 361 361 360 360 359 359 359 359 359 359 358 358 357 356 355 354 353 352 350 349 349 349 349 347 345 344 343 342 342 341 341 341 341 341 340
364 364 363 363 362 362 362 362 361 361 360 359 359 358 359 359 359 359 358 357 357 356 355 353 352 351 350 350 350 350 348 346 344 343 342 342 341 341 341 341 340 339
364 364 363 363 362 362 362 362 362 361 360 360 359 359 359 360 360 359 359 358 357 356 355 354 353 351 351 351 351 350 348 346 344 342 342 341 341 340 340 340 339 339
364 363 363 363 362 362 362 362 362 362 361 361 360 360 360 360 360 360 360 359 358 357 355 354 353 352 352 352 352 351 348 345 343 342 342 341 341 340 340 340 339 338
364 363 363 363 362 362 362 362 362 362 362 362 361 361 361 361 361 360 360 360 359 358 357 355 354 353 353 353 352 351 348 345 343 342 342 341 340 340 339 339 338 337
364 364 363 363 363 362 362 362 363 363 363 362 362 362 362 362 361 360 360 360 359 358 357 356 355 354 353 352 351 350 348 345 343 342 341 340 340 339 339 338 338 337
364 365 364 364 363 363 363 363 363 363 363 363 363 363 363 362 361 361 360 359 358 358 357 355 354 353 352 351 350 350 348 345 342 341 341 340 339 339 339 338 337 337

ECMWFNIL_925_thetae_039.txt.gz
Theta_e
355 355 354 354 354 353 353 353 353 354 355 356 356 356 356 354 353 353 355 358 357 356 354 350 346 345 346 345 342 341 340 337 336 338 338 337 335 332 333 336 336 336
355 355 355 354 354 354 353 353 354 355 355 355 355 355 355 354 353 353 355 357 357 356 354 350 346 346 347 346 343 342 341 336 335 338 338 337 336 333 332 333 334 334
355 355 355 355 354 354 353 353 354 354 355 355 355 354 354 353 353 354 355 357 356 355 354 351 347 347 348 347 345 344 341 336 335 337 338 338 336 333 332 333 333 333
356 355 355 355 354 354 354 353 353 354 354 354 354 353 353 353 354 354 355 356 356 355 353 351 348 347 348 347 346 345 341 334 335 338 339 338 334 332 333 334 334 333
356 356 355 355 354 354 354 354 353 353 353 353 353 353 353 354 354 355 355 355 355 354 353 351 349 347 348 347 346 345 340 335 336 339 339 337 334 333 333 334 335 335
356 356 355 355 355 354 354 354 354 354 353 353 353 353 353 354 355 355 355 355 354 353 352 351 350 348 348 347 347 345 341 336 337 338 339 337 335 335 335 335 335 336
356 356 356 355 355 355 354 354 354 354 354 354 353 353 354 354 354 354 354 354 353 353 352 351 351 349 348 347 347 346 342 338 337 338 339 338 337 337 337 336 336 336
356 356 356 356 355 355 355 354 354 354 354 354 354 353 354 354 354 354 354 354 353 352 352 351 351 350 348 347 347 346 342 338 338 338 338 338 337 338 339 338 337 337
355 356 356 356 356 355 356 355 355 355 354 354 354 354 353 354 354 354 353 353 353 352 352 351 351 350 349 348 346 345 343 339 339 339 339 339 338 337 339 338 337 337
355 355 356 356 356 356 356 355 355 355 355 355 355 354 354 354 353 354 353 353 352 352 351 351 350 350 349 348 347 345 343 341 340 340 339 339 338 337 339 338 337 337
356 356 355 356 356 356 356 356 356 356 355 355 355 355 355 354 354 354 353 353 352 351 351 351 350 350 349 348 347 345 344 343 341 340 339 339 338 337 339 338 337 338
357 356 356 356 356 356 356 356 356 356 356 355 356 355 355 354 354 354 353 353 352 351 351 351 350 350 349 349 348 345 344 343 341 340 339 339 338 338 339 339 338 338
358 357 357 356 357 356 357 357 356 357 357 356 356 356 355 355 354 354 353 353 352 351 351 351 350 350 350 349 348 346 344 343 341 340 339 339 339 339 339 339 339 339
358 358 358 357 357 357 357 357 357 357 357 356 357 356 355 355 355 354 353 353 352 352 351 351 350 350 350 349 348 346 344 343 341 340 339 339 339 339 339 339 339 339
358 358 359 358 358 358 357 357 357 357 357 357 357 356 356 355 355 354 354 353 352 352 352 351 351 350 350 349 347 345 344 343 342 341 340 340 340 339 339 338 339 339
359 359 359 359 359 358 358 358 357 357 357 357 357 357 356 356 355 355 354 353 353 352 351 351 351 350 350 349 348 347 345 344 343 342 342 341 341 340 339 339 339 339
360 359 359 360 359 359 359 358 358 358 357 357 357 357 357 356 356 355 355 354 354 353 352 351 351 351 350 349 348 347 347 345 344 343 343 342 341 341 340 340 340 340
360 360 360 360 359 359 359 359 359 358 357 357 357 357 357 356 356 355 355 355 354 353 352 352 351 350 350 349 349 348 348 346 345 344 343 342 341 341 341 340 340 340
360 360 360 360 360 359 359 359 359 358 358 357 356 357 356 356 356 356 355 355 354 354 353 352 352 351 350 349 349 349 349 348 346 345 343 342 342 342 341 341 340 340
360 360 360 360 360 360 359 359 359 359 358 357 356 356 356 356 356 356 356 355 355 354 354 353 352 351 350 350 350 350 350 349 347 345 344 343 343 342 342 341 341 340
361 361 360 360 360 360 360 359 359 359 358 357 357 356 356 356 356 356 356 355 355 355 354 353 353 352 351 350 350 351 351 349 347 345 344 343 343 343 342 342 341 341
361 361 360 360 360 360 360 359 359 359 358 358 357 356 356 356 356 356 356 355 356 355 354 354 353 353 352 351 352 352 352 350 346 343 343 343 344 343 342 342 341 341
361 361 361 361 360 360 360 359 359 359 358 358 358 357 357 356 356 356 356 356 356 355 355 355 354 353 353 352 352 353 352 348 343 340 341 343 344 343 343 342 342 341
361 361 361 361 360 360 360 359 360 359 359 359 358 357 357 357 356 356 356 357 356 356 356 355 354 354 354 353 353 354 352 346 341 340 341 342 342 342 342 342 342 342
361 361 361 361 361 360 360 360 360 359 359 359 358 358 357 357 357 356 356 357 357 356 357 356 355 355 354 354 354 354 352 346 341 341 341 341 341 342 341 341 341 341
360 361 361 361 361 361 360 360 360 359 359 359 359 358 358 357 357 357 357 357 357 357 357 356 356 355 354 355 355 354 352 347 342 341 342 341 341 341 340 341 341 340

ECMWFNIL_925_thetae_045.txt.gz
Theta_e
354 353 352 352 353 352 353 352 351 352 353 353 353 352 351 350 349 350 351 353 353 353 355 357 357 356 354 353 355 356 355 355 352 346 343 343 341 338 337 338 338 337
354 354 353 353 353 351 351 351 351 351 352 351 352 351 350 350 349 349 350 352 353 353 355 357 357 356 354 352 354 355 356 356 354 348 344 343 343 340 339 338 338 337
355 355 354 354 354 352 352 352 352 351 351 351 351 351 351 351 351 351 350 351 352 352 355 356 356 356 354 353 353 355 356 356 354 350 344 342 343 341 340 339 339 338
355 355 355 355 355 354 352 353 353 352 352 352 351 351 351 351 351 352 351 352 352 352 354 354 355 355 354 353 353 355 355 356 355 351 345 342 342 341 340 339 339 337
355 355 356 356 356 355 354 354 354 353 353 352 351 351 352 351 352 352 352 352 352 352 353 353 354 355 355 353 353 354 355 355 355 352 346 343 343 342 341 340 338 337
356 356 356 356 356 356 355 354 354 353 353 353 352 352 352 351 351 352 352 352 352 353 353 352 353 356 355 353 353 354 355 355 354 352 347 344 344 344 343 342 339 337
356 356 356 356 356 356 356 355 354 354 353 353 352 352 352 352 352 352 351 352 352 353 353 351 351 354 354 353 353 353 354 355 354 353 349 345 344 344 344 343 341 339
356 357 356 356 357 356 356 356 355 354 353 353 353 352 352 352 352 352 351 352 353 352 352 349 348 351 352 353 353 353 354 354 354 353 350 346 345 345 345 344 343 340
357 357 357 357 357 357 357 357 356 355 353 353 353 353 353 352 352 352 352 351 352 352 352 350 348 350 352 353 353 352 353 354 354 353 351 348 346 345 345 345 344 342
357 358 357 357 357 357 357 356 356 356 355 353 353 354 354 353 352 352 352 352 352 352 353 351 350 351 352 353 352 352 353 353 354 353 351 349 348 346 346 345 344 343
357 357 357 357 357 357 357 357 356 357 356 354 354 354 354 353 353 353 353 353 352 352 353 352 351 351 352 353 352 352 352 353 353 352 351 350 348 347 346 345 345 344
358 357 357 357 357 357 357 357 357 356 356 356 355 355 355 354 354 353 353 353 352 352 352 352 351 352 352 352 352 352 352 352 353 352 351 350 349 347 346 345 344 344
358 357 357 357 357 357 357 357 357 356 357 357 355 355 355 355 355 354 353 352 352 352 352 352 352 352 352 352 352 352 352 352 352 352 351 349 349 347 346 345 345 344
357 357 358 358 358 358 357 357 357 357 357 357 356 356 356 356 355 355 354 353 352 352 352 353 352 352 353 352 352 352 352 352 352 351 351 349 349 348 346 345 345 345
356 357 358 358 359 358 358 358 357 357 357 357 356 356 356 356 356 355 355 354 353 353 353 353 353 353 353 352 352 352 352 352 352 351 351 350 349 347 346 345 345 345
355 357 358 358 358 358 357 358 358 358 357 357 357 356 356 356 356 356 356 355 354 354 354 354 353 353 352 352 352 352 352 351 351 351 350 350 349 347 347 346 345 345
355 356 357 358 358 358 358 358 358 358 358 358 357 357 357 356 356 356 356 356 356 355 355 355 354 353 352 352 351 351 351 351 351 351 350 349 349 348 347 346 345 345
355 356 357 357 358 358 358 358 358 358 359 358 358 358 358 357 357 357 356 356 356 356 356 356 355 353 352 352 351 351 351 351 351 351 350 349 349 348 347 346 346 345
356 357 357 358 358 358 358 358 358 358 359 359 358 358 358 358 358 357 357 357 357 357 357 356 355 354 352 352 351 351 351 351 351 351 350 350 349 349 348 347 346 345
357 358 358 358 358 358 359 359 359 359 359 359 359 359 358 359 358 358 358 358 357 357 356 356 356 355 353 352 351 351 351 351 350 351 351 350 349 349 348 347 346 345
358 358 359 360 359 359 359 359 359 359 359 359 359 359 358 359 358 358 358 357 357 357 357 357 356 355 354 352 351 351 351 351 350 350 351 350 349 349 348 347 347 346
359 359 360 360 360 359 359 359 359 359 359 359 359 358 358 359 358 358 358 358 358 357 357 357 357 355 354 353 352 352 351 351 350 350 351 351 349 349 348 347 347 346
358 359 360 360 360 360 360 359 360 360 360 359 359 359 359 359 359 358 358 358 358 357 357 357 356 356 355 353 353 352 351 351 350 350 351 351 350 349 348 347 346 346
356 357 358 359 360 360 360 360 360 360 360 360 359 359 359 358 358 358 358 358 358 358 358 357 357 357 355 354 353 352 351 351 350 350 351 351 351 350 349 348 347 346
356 357 358 359 360 361 360 360 361 361 361 360 359 359 359 359 359 359 359 359 358 358 358 357 357 357 355 354 354 353 352 351 350 350 351 351 351 351 349 348 347 346
358 358 359 359 360 360 360 361 361 361 360 360 359 359 359 359 359 359 359 359 359 359 358 357 357 357 356 355 354 353 353 351 350 351 351 351 351 351 349 348 347 346

ECMWFNIL_925_thetae_048.txt.gz
Theta_e
362 363 363 362 361 360 360 361 361 361 360 360 361 361 361 361 361 361 362 364 364 363 363 362 360 358 357 358 358 358 357 357 356 354 352 351 348 344 343 343 342 341
362 363 363 362 362 361 360 360 361 362 361 361 361 361 362 362 363 362 363 365 365 363 363 363 361 359 358 357 358 358 358 357 357 355 353 351 349 346 345 343 342 342
362 362 362 362 362 361 360 361 362 362 361 361 361 361 362 363 363 364 363 364 364 364 364 363 362 360 359 357 358 358 358 358 357 355 354 353 350 347 346 344 343 343
363 362 362 363 362 361 361 361 361 362 361 361 361 361 362 362 363 364 364 364 364 364 364 363 362 361 359 358 358 358 358 358 358 356 355 354 351 349 347 345 344 344
363 363 363 363 362 362 362 361 361 362 361 361 361 361 362 362 363 363 364 364 363 363 363 364 363 361 360 359 358 358 359 358 357 357 355 355 353 350 348 346 345 345
364 364 364 364 363 362 362 362 361 362 362 361 361 361 362 362 362 362 363 364 363 362 362 363 363 361 361 360 358 358 359 358 357 357 356 355 354 352 349 348 347 346
365 365 364 363 363 362 362 362 362 361 361 361 361 362 362 362 363 362 362 362 363 363 362 363 363 362 362 360 359 358 359 359 358 357 357 357 355 353 350 349 349 347
364 364 364 363 363 363 363 362 362 362 362 362 362 362 362 362 363 363 362 362 363 363 363 363 363 363 362 361 359 359 360 360 359 359 358 357 356 354 352 351 350 349
364 364 364 364 363 363 363 362 363 363 362 362 362 362 362 362 362 363 363 363 363 364 364 364 363 364 363 362 361 360 360 361 360 359 358 358 356 355 354 352 351 350
364 364 364 364 363 363 363 362 363 363 363 363 362 362 362 363 363 362 363 364 364 364 365 364 364 364 363 362 362 361 361 362 361 359 359 358 357 356 356 354 352 352
364 364 363 364 363 362 362 362 362 362 363 363 363 362 362 363 363 363 363 364 365 365 365 365 364 364 363 362 362 362 362 361 361 360 359 358 358 357 356 355 354 353
364 363 363 363 363 362 362 362 361 361 362 363 363 363 362 362 363 363 363 364 365 365 365 365 365 364 363 362 362 363 362 361 361 360 359 358 358 357 356 355 354 354
364 363 362 362 363 362 361 361 361 361 361 362 363 363 362 362 362 363 363 363 365 365 365 366 365 364 364 363 362 363 362 361 361 360 360 359 359 358 357 356 355 354
364 364 363 362 362 362 362 361 361 361 361 361 363 363 363 362 361 363 363 364 364 365 365 366 365 365 364 364 363 363 362 361 361 360 360 360 359 358 357 356 355 354
365 365 364 363 363 363 363 362 362 362 362 362 362 363 362 362 361 361 363 364 364 365 365 365 365 365 365 364 364 364 363 361 360 360 360 359 360 358 357 357 356 355
365 365 365 364 364 364 364 363 362 363 363 363 363 363 363 363 362 362 363 363 364 365 365 365 365 365 363 361 361 363 363 361 360 360 360 359 360 359 357 357 356 355
366 366 365 365 364 364 365 365 363 363 363 364 363 364 364 363 363 362 362 362 363 364 364 365 364 363 361 359 359 360 361 362 361 360 360 359 360 359 358 357 356 355
367 366 366 365 365 365 365 365 365 364 364 365 364 364 364 364 363 363 362 362 362 364 364 364 364 362 360 358 358 357 357 360 361 360 360 360 359 359 359 357 356 356
366 367 367 366 366 365 365 366 366 365 365 365 365 365 365 365 364 364 363 362 362 363 363 364 364 362 360 358 358 357 355 356 359 360 360 360 359 359 359 358 357 356
366 367 367 366 367 366 366 367 366 366 366 365 365 365 365 366 365 364 364 364 363 363 363 363 363 363 361 358 357 356 355 354 356 358 359 359 359 359 358 358 358 357
366 366 365 366 367 366 366 366 366 366 366 365 365 365 365 366 365 365 365 364 364 364 363 363 363 362 361 359 357 356 355 354 355 357 358 359 359 359 357 357 357 357
365 365 364 365 366 366 366 366 365 366 366 366 365 365 365 365 365 365 365 364 364 364 363 363 363 362 361 360 358 357 355 354 354 356 357 358 359 358 356 356 356 356
364 364 364 365 366 366 366 365 366 366 366 366 365 365 364 365 365 365 363 363 363 363 362 362 362 362 360 358 358 357 356 354 354 355 357 358 358 357 355 355 355 355
364 364 365 365 366 366 365 365 366 366 366 366 365 365 364 364 365 364 363 362 362 363 362 362 363 363 361 358 358 358 356 354 354 355 357 358 358 357 355 355 355 354
364 365 365 366 366 366 366 366 365 365 365 365 365 365 364 364 363 363 363 363 363 362 362 362 363 364 361 359 359 358 356 354 355 356 357 357 358 357 356 355 354 354
364 364 365 365 366 366 366 366 365 365 365 365 365 365 364 364 363 363 363 364 363 363 363 362 362 363 362 360 359 358 356 354 355 357 357 358 358 357 356 355 354 354

ECMWFNIL_925_thetae_051.txt.gz
Theta_e
364 364 364 363 363 360 360 362 364 365 363 361 360 360 361 360 359 359 358 361 364 364 362 361 363 363 363 363 362 362 361 360 358 357 355 353 351 349 346 346 345 344
364 364 365 364 363 362 361 361 362 364 364 362 360 359 361 361 361 361 360 361 364 365 364 362 363 365 363 362 362 363 362 361 359 358 356 353 351 350 347 346 346 345
364 364 365 364 363 363 362 361 361 362 363 363 362 359 360 361 362 362 362 362 363 365 365 363 363 364 363 361 361 362 362 363 361 358 357 355 352 351 349 346 346 345
365 365 366 365 364 364 363 362 361 362 363 363 363 361 359 360 362 364 364 363 364 365 365 364 363 363 363 361 361 361 361 363 362 359 358 356 353 352 351 348 345 345
365 365 366 365 364 363 365 364 362 362 362 361 362 363 361 361 361 364 366 365 365 366 365 364 363 363 363 363 362 361 360 361 362 360 358 356 355 353 351 350 347 345
366 366 366 365 364 364 365 365 363 362 362 361 361 362 363 362 362 363 365 365 365 365 363 363 364 363 364 364 363 361 360 360 360 361 360 358 356 354 352 351 349 346
366 367 366 365 364 364 365 366 365 363 362 362 362 362 363 364 364 364 364 365 365 365 363 363 364 364 363 364 364 362 361 360 360 360 359 358 357 355 353 352 351 349
366 367 367 366 365 365 366 367 366 365 364 363 363 363 364 364 365 365 365 365 365 365 365 363 364 365 364 364 364 363 362 361 360 360 359 358 357 356 355 353 352 351
366 367 367 367 365 365 366 366 366 366 366 364 364 364 364 365 365 366 366 366 365 365 365 364 364 365 365 364 364 364 363 361 360 361 360 359 358 357 356 355 354 353
367 367 366 366 365 364 365 365 365 366 366 365 364 362 363 365 366 366 367 367 366 365 366 365 365 366 366 365 365 365 364 361 361 361 361 360 360 359 358 356 355 355
368 368 366 366 365 364 364 364 362 362 364 365 365 362 361 363 366 366 367 369 368 366 366 366 366 366 367 366 366 365 364 362 361 362 362 362 361 361 359 358 357 356
369 368 366 366 366 364 363 363 360 359 361 364 365 363 361 361 365 367 367 369 369 368 367 367 368 367 367 367 365 365 365 364 362 362 362 363 363 362 360 359 358 358
369 368 367 366 366 365 362 361 359 358 358 362 364 365 364 361 363 367 368 368 370 369 368 368 368 368 368 368 366 365 365 365 363 362 363 364 363 363 361 360 359 358
370 369 368 365 365 366 364 361 360 359 358 359 363 365 365 363 362 365 368 368 369 370 369 369 369 369 368 369 367 365 365 365 364 363 364 364 364 362 361 360 359 358
371 370 369 367 365 366 367 364 361 360 360 359 362 365 365 365 363 363 367 369 369 370 369 369 370 370 369 368 368 367 365 365 364 363 363 363 364 363 361 360 359 358
372 371 370 369 367 367 369 367 364 362 362 361 362 364 365 366 364 363 365 368 369 370 370 370 370 370 368 366 366 367 366 365 364 364 363 362 363 363 361 360 359 358
373 372 371 371 370 369 369 369 367 364 364 363 363 364 365 366 366 365 364 366 368 370 370 370 370 370 368 365 363 364 365 366 365 364 364 363 363 363 362 360 359 359
373 373 372 371 371 370 369 370 369 367 366 366 366 365 366 367 367 367 366 365 366 368 369 370 370 369 368 365 363 361 362 364 365 364 364 363 363 363 362 360 359 359
373 374 373 372 372 371 370 371 370 370 368 368 368 367 367 368 368 368 367 366 365 367 368 369 370 369 368 366 363 361 360 362 364 365 364 362 363 362 361 361 360 359
374 374 374 373 373 371 371 371 371 371 370 368 369 368 368 369 369 369 369 368 366 366 366 368 369 369 368 366 364 362 360 360 362 364 364 363 363 363 362 361 361 361
374 374 374 374 373 372 372 371 371 372 371 369 369 369 369 369 369 369 369 369 368 367 366 367 367 367 368 367 365 363 361 360 361 363 365 365 365 364 363 362 362 362
374 374 374 374 373 373 372 371 372 372 371 370 369 368 369 369 369 370 369 369 369 368 367 366 366 366 366 367 366 364 362 361 360 362 364 365 365 365 364 363 363 363
373 373 373 373 373 373 372 372 372 372 371 371 370 368 368 369 369 370 369 369 369 369 368 367 366 365 365 366 365 364 362 361 360 362 363 363 364 364 364 364 364 363
372 371 372 373 373 374 372 372 372 371 371 372 370 368 368 367 369 369 369 369 369 369 369 368 367 367 366 365 365 364 363 361 360 361 362 362 363 364 363 364 364 363
370 370 371 372 372 373 372 372 371 371 372 372 370 369 368 367 367 368 369 369 369 369 369 368 368 367 366 365 364 363 363 361 360 361 362 362 362 363 363 364 363 363
369 370 371 371 371 372 371 371 371 370 371 370 370 369 369 368 367 366 367 368 368 368 368 367 367 367 366 365 365 363 362 361 361 362 362 362 363 363 363 364 363 362

ECMWFNIL_925_thetae_054.txt.gz
Theta_e
359 360 361 362 360 358 359 361 363 363 362 363 363 362 362 362 361 361 361 360 361 362 361 360 359 359 359 360 360 359 359 359 360 360 356 352 351 349 347 345 343 343
359 360 361 361 361 359 359 360 362 364 364 363 363 362 362 362 361 360 360 360 360 362 362 361 360 359 360 361 360 360 359 359 360 360 358 354 352 351 349 347 344 343
359 360 362 362 361 360 360 358 359 363 365 364 362 362 362 361 361 360 360 360 361 362 363 363 362 360 360 362 362 361 360 361 360 360 358 355 353 352 350 348 347 345
360 361 362 362 362 361 360 357 358 362 364 364 363 361 360 361 361 360 360 360 360 362 364 364 363 362 362 363 363 363 362 361 360 360 359 357 355 352 351 349 347 346
360 361 361 361 362 361 360 358 357 359 361 364 364 362 359 358 360 361 361 360 360 362 364 365 364 364 364 364 362 363 363 362 361 360 360 358 356 354 352 351 349 347
361 360 360 362 362 361 361 359 357 358 360 361 362 363 361 358 359 361 362 361 361 361 364 365 365 364 364 364 363 362 362 362 363 363 360 359 357 355 353 352 350 348
362 362 361 362 362 361 361 360 359 359 359 360 361 361 362 360 357 359 361 363 363 362 363 365 365 364 364 364 363 362 361 361 362 362 361 360 358 357 354 352 351 350
363 362 362 362 362 361 361 361 361 361 360 360 361 361 362 362 359 358 359 363 365 363 364 365 365 364 364 364 363 362 361 360 361 362 362 361 360 358 356 353 352 352
362 364 363 362 363 363 362 361 362 362 360 361 362 361 361 361 361 361 359 360 364 365 365 364 364 364 363 364 364 362 362 360 359 360 361 361 361 359 357 355 354 353
362 365 365 365 365 365 364 363 362 363 362 361 361 361 361 361 360 362 362 360 362 364 365 364 364 364 363 363 364 364 363 361 359 360 361 360 360 359 359 356 355 354
362 365 366 366 366 364 363 363 361 364 364 363 361 360 361 361 361 361 363 363 362 363 365 365 364 364 363 363 363 364 364 361 360 360 360 360 360 359 359 358 356 355
364 364 364 366 365 363 363 362 361 362 364 365 364 361 360 361 362 362 364 364 364 363 364 365 365 364 364 364 363 364 365 363 362 360 360 360 361 359 358 358 357 356
364 363 364 366 364 362 363 361 360 361 363 364 365 364 362 362 363 364 363 364 365 364 364 365 365 364 364 364 365 365 365 364 363 362 360 360 361 360 359 359 357 357
365 364 364 364 362 361 362 360 360 360 360 363 365 366 364 362 362 364 364 364 365 366 366 364 364 364 365 364 365 365 366 366 365 363 362 361 360 361 360 360 359 358
365 365 364 362 361 362 361 360 360 360 359 361 363 364 365 363 362 361 363 365 366 366 367 366 365 365 365 365 365 365 365 366 364 364 363 361 361 361 362 361 361 360
366 366 365 364 362 363 362 361 360 360 361 362 361 362 363 365 364 361 361 365 367 368 368 368 366 365 365 364 364 365 364 365 364 365 363 363 362 362 362 362 362 361
368 367 367 366 363 363 363 362 361 361 362 361 360 360 360 363 365 363 361 362 366 368 370 369 367 366 365 364 363 363 363 363 364 365 365 363 362 362 362 362 362 361
369 369 369 368 366 365 365 364 362 361 361 361 361 359 359 362 365 365 363 361 364 368 370 371 369 367 366 366 365 363 362 362 363 364 365 364 363 362 362 362 362 362
371 370 370 369 368 366 364 365 365 363 362 362 362 361 360 361 363 366 365 363 363 367 370 371 371 370 369 368 366 365 363 362 362 363 364 363 363 362 361 362 361 361
372 373 372 371 370 368 367 366 366 366 365 364 363 363 362 362 363 365 366 365 363 365 367 370 370 371 371 370 367 366 364 362 362 362 363 362 362 361 361 360 360 360
374 375 374 373 371 370 369 368 368 368 367 366 366 365 364 364 364 366 367 367 366 365 366 368 369 370 371 371 369 367 366 364 363 362 363 363 363 362 361 360 359 359
375 376 376 375 373 372 372 370 369 370 369 368 367 365 366 365 366 367 367 367 368 367 367 367 367 367 369 370 371 369 368 366 364 362 363 364 364 364 363 362 361 360
376 377 378 376 374 373 372 371 371 372 371 371 368 366 367 367 367 367 367 367 369 369 368 366 366 365 366 367 369 370 369 367 365 363 364 364 364 364 364 363 362 361
375 377 378 376 375 376 374 373 373 372 372 372 370 368 367 367 368 368 367 367 368 369 368 368 366 366 365 364 366 368 369 368 366 364 364 363 363 363 364 364 364 363
374 377 377 376 376 376 375 374 373 372 372 372 371 369 368 367 368 369 369 369 369 369 369 368 368 368 366 365 365 366 368 368 367 366 365 364 364 363 363 364 365 365
373 377 377 377 377 376 375 374 373 373 374 374 372 371 369 368 367 368 369 370 369 369 369 368 369 369 368 367 367 365 366 367 366 366 365 365 365 364 363 364 364 365

ECMWFNIL_925_thetae_057.txt.gz
Theta_e
356 357 357 357 357 357 358 359 357 357 358 357 357 358 358 358 358 358 358 359 359 358 360 360 362 362 360 359 359 359 359 359 360 357 356 355 351 345 341 343 347 348
355 357 357 357 358 357 358 359 358 357 358 358 358 358 359 359 359 359 359 360 360 359 360 360 361 361 360 358 359 360 359 359 360 358 357 355 354 349 341 339 342 346
356 357 357 357 358 358 358 359 359 358 357 357 358 358 359 360 360 360 359 359 360 360 360 360 361 361 360 358 358 360 359 359 359 358 358 356 355 352 347 340 337 338
357 357 357 356 356 357 357 358 360 360 358 358 358 359 359 359 361 361 360 360 360 360 360 360 360 360 359 358 358 359 359 359 358 357 358 357 355 354 351 346 341 335
357 357 357 356 356 357 357 357 358 360 361 359 358 360 360 360 361 361 361 360 360 361 360 360 360 359 360 359 358 359 360 360 359 358 358 359 357 355 352 349 347 342
358 357 357 357 357 357 357 357 356 358 361 361 360 360 361 361 361 360 361 361 360 360 360 360 360 360 360 360 359 359 359 359 359 359 359 359 358 357 354 351 350 347
358 358 356 357 357 358 358 357 356 357 359 362 362 361 362 362 362 361 361 360 360 360 360 360 360 360 361 361 360 360 361 361 360 360 359 359 359 358 356 354 351 349
358 357 357 357 358 358 358 357 357 357 357 360 362 362 362 362 362 362 361 360 360 361 361 361 360 361 361 361 361 361 361 361 361 361 360 359 359 359 357 355 353 350
359 358 357 357 358 358 358 358 358 357 356 357 359 361 362 362 360 360 361 361 360 360 361 362 362 361 362 363 362 362 362 363 362 361 361 360 359 360 358 356 354 352
359 359 358 358 358 359 359 359 358 358 357 357 357 358 361 362 361 359 359 361 361 360 361 361 362 362 362 363 362 362 362 362 363 362 361 360 359 359 359 358 356 354
360 360 359 359 359 359 359 359 359 359 358 356 356 356 358 360 362 360 359 360 362 362 361 360 361 363 363 363 363 363 363 362 362 361 361 360 359 359 358 358 357 355
361 360 359 359 359 359 359 359 359 359 359 357 356 357 358 359 360 361 360 359 360 361 362 362 361 361 362 362 363 363 363 362 362 361 360 360 360 359 358 357 357 356
361 360 360 359 359 359 358 358 359 359 359 359 358 357 358 359 360 361 361 360 358 358 361 363 363 362 363 363 364 363 363 363 362 361 360 359 360 360 358 358 357 356
361 360 360 359 359 358 357 357 359 358 358 359 359 358 359 359 359 360 361 360 360 359 359 361 363 363 363 363 364 363 363 363 362 361 360 359 359 359 359 358 357 357
361 360 360 360 360 358 358 358 358 359 358 358 358 359 358 358 358 359 360 360 361 361 360 360 361 363 364 364 364 364 363 363 362 362 362 361 360 360 360 359 358 357
362 361 360 360 360 359 359 359 359 359 358 357 358 359 358 358 357 357 359 360 361 362 362 361 361 362 363 364 363 363 363 363 363 362 362 361 361 360 360 360 359 358
362 361 360 360 360 360 361 360 359 360 358 357 359 359 360 360 359 358 359 360 361 362 362 363 362 362 363 363 364 363 363 363 362 363 363 363 362 361 360 359 359 359
363 362 361 360 359 360 361 361 360 359 358 358 358 359 361 361 360 360 359 359 362 362 362 363 363 363 363 363 363 363 363 363 363 363 363 363 363 362 361 360 359 359
366 364 362 361 361 360 361 362 361 360 359 359 358 359 361 362 363 362 361 360 361 363 363 363 363 364 363 363 363 363 363 363 362 362 363 363 363 363 362 361 360 359
367 366 364 362 363 361 361 361 361 360 359 359 359 359 360 362 363 363 362 361 361 361 363 363 363 364 364 364 363 363 363 363 363 362 362 363 363 363 362 361 360 359
369 367 366 365 364 363 362 362 362 362 360 359 360 359 360 360 362 362 363 363 362 361 362 363 364 365 365 365 365 364 364 364 363 363 362 362 362 362 362 362 361 360
369 368 368 367 365 365 364 363 363 363 362 360 360 360 361 361 360 361 361 363 363 363 362 362 363 365 366 366 366 366 365 365 364 363 363 362 361 362 362 362 362 361
370 370 369 368 367 367 366 365 364 364 363 363 361 360 360 361 360 361 360 361 363 363 364 363 362 364 365 367 368 368 367 366 366 364 363 363 362 362 361 362 362 361
370 370 369 369 368 368 367 366 366 365 364 364 363 362 361 361 361 361 361 361 362 363 364 364 363 363 364 366 368 369 369 369 367 365 364 364 363 363 362 362 362 362
371 372 371 370 370 369 369 369 367 366 366 366 366 364 363 362 362 363 362 362 362 363 364 365 365 365 364 365 366 368 369 370 368 366 364 364 364 364 363 363 362 363
371 372 373 372 372 371 371 370 370 369 368 367 367 366 365 364 364 363 364 365 364 364 365 365 365 366 366 366 366 366 366 368 368 366 364 364 365 364 364 364 363 363

ECMWFNIL_925_thetae_060.txt.gz
Theta_e
352 352 352 351 352 354 354 352 352 353 353 353 354 353 354 354 354 356 356 357 357 356 356 356 355 355 357 360 360 359 359 358 358 357 356 356 353 348 344 344 344 344
352 352 352 351 352 353 355 354 353 353 353 353 353 352 354 354 355 355 355 356 357 356 356 356 356 356 356 358 360 360 359 359 358 358 357 356 355 352 347 345 344 345
353 352 352 352 352 352 354 355 354 353 353 354 355 354 354 354 355 355 355 355 355 357 356 356 356 357 356 357 360 360 359 359 358 358 358 358 356 354 351 347 344 344
353 353 352 352 352 352 352 355 356 355 354 355 356 355 354 354 354 354 355 355 355 356 357 357 357 357 357 357 360 361 359 359 359 358 359 359 357 356 355 352 346 343
353 353 353 352 352 353 353 354 356 356 355 355 355 356 356 355 355 355 356 356 356 357 357 357 357 357 357 358 360 361 359 358 359 359 359 359 358 357 356 354 350 345
354 353 353 353 353 354 354 354 355 356 356 355 355 356 357 356 356 356 356 357 357 357 357 358 359 358 358 359 360 360 359 357 357 359 359 358 358 357 356 356 354 350
354 354 353 354 354 354 355 355 355 355 357 356 355 355 357 357 358 357 356 357 357 358 358 358 359 359 358 358 360 360 359 357 357 358 359 359 358 358 356 356 355 353
355 355 354 354 354 355 356 355 355 356 356 358 357 356 356 356 357 358 358 358 358 358 359 358 358 360 360 360 359 360 359 357 357 358 359 359 358 358 357 356 356 354
355 355 355 355 355 355 355 355 355 355 356 358 358 357 357 356 356 357 358 359 358 359 359 358 359 359 359 360 359 359 359 358 358 358 358 359 358 358 358 357 357 356
356 355 355 356 356 355 355 355 355 355 355 357 358 359 358 357 357 357 358 358 359 359 359 359 359 359 359 360 359 359 359 358 358 358 358 359 358 358 358 357 357 356
356 356 355 356 355 355 356 355 355 355 355 356 357 359 359 358 358 358 358 359 358 359 359 359 359 359 359 360 360 359 359 358 358 359 358 358 358 357 357 357 356 355
357 357 356 356 355 355 355 356 355 356 355 355 355 356 358 359 360 359 359 359 359 358 358 359 359 359 359 360 360 360 360 359 359 358 358 358 358 358 358 357 357 356
357 357 357 356 356 355 355 355 355 355 356 355 355 354 356 358 360 360 360 360 360 360 360 359 359 359 359 359 360 360 360 360 360 359 359 359 358 358 358 358 358 356
358 358 357 357 356 356 356 355 356 356 355 356 355 354 355 356 357 359 360 359 360 359 360 360 359 360 359 360 360 360 360 361 361 361 360 360 360 360 359 359 358 357
359 359 358 357 357 356 356 356 355 356 356 356 356 355 355 355 355 357 359 360 360 359 359 359 359 359 359 359 360 360 361 360 361 361 361 361 360 360 359 359 359 359
360 360 359 359 358 357 357 356 356 356 356 356 356 356 356 355 355 355 357 358 359 359 358 359 359 360 359 359 359 359 360 360 361 361 361 361 361 360 360 359 359 359
361 360 360 359 359 358 357 357 357 357 356 356 356 357 356 356 356 355 356 356 358 358 358 358 358 359 359 359 359 359 360 360 361 361 361 361 361 360 360 359 359 359
361 361 360 360 359 358 358 357 357 357 356 356 356 357 357 357 357 356 355 356 357 357 359 358 358 358 357 358 359 359 360 360 360 361 361 361 361 361 360 359 359 359
362 362 361 360 360 359 358 358 358 357 356 356 356 356 357 357 357 357 356 357 357 357 358 358 358 358 358 358 358 358 360 361 361 361 361 361 361 361 361 360 360 359
364 362 361 361 360 359 358 358 358 357 356 356 356 356 356 356 357 357 357 357 356 357 357 358 358 358 358 359 358 358 359 360 361 362 361 361 361 361 361 361 361 360
365 363 362 361 360 360 359 358 358 358 358 356 356 356 356 356 357 357 357 357 356 356 357 357 357 357 358 358 358 359 359 359 360 361 361 361 361 361 361 361 361 361
366 364 363 362 361 360 359 358 358 358 358 358 357 356 356 356 356 357 357 357 358 357 356 356 356 357 358 358 359 359 360 361 361 361 361 361 361 361 361 361 362 362
367 366 364 362 361 361 359 359 358 359 359 359 358 357 357 356 357 357 357 358 359 358 357 357 357 357 358 359 359 360 360 361 361 361 361 361 361 361 361 361 361 361
367 366 365 364 363 362 360 359 359 359 358 359 359 358 357 357 357 357 357 358 359 359 359 359 359 358 359 360 361 361 361 362 361 361 361 360 361 361 361 362 361 361
367 367 367 366 365 364 362 361 360 359 359 359 359 359 358 358 358 357 357 358 358 359 360 360 361 360 360 360 361 361 362 363 363 362 361 360 361 361 361 361 361 361
368 368 367 367 366 365 364 363 362 360 360 360 360 360 359 358 358 358 358 358 358 358 359 360 361 361 361 362 361 361 362 363 363 363 361 361 362 361 362 362 362 362

ECMWFNIL_925_thetae_063.txt.gz
Theta_e
354 354 353 353 353 352 352 351 351 351 351 351 351 352 352 353 353 352 352 352 352 353 352 350 350 350 351 352 353 356 358 359 359 356 356 355 354 352 353 351 347 343
353 353 353 353 352 352 352 351 351 351 350 350 350 351 352 352 353 352 351 352 352 352 353 351 350 351 352 353 353 355 358 359 359 358 356 356 355 353 353 353 350 346
354 353 353 353 352 352 352 352 352 351 351 350 350 351 351 352 353 353 352 351 352 353 353 352 351 352 353 354 354 355 356 358 359 358 357 356 356 356 354 355 353 349
353 353 353 352 352 352 352 352 352 351 351 351 350 350 350 351 352 352 353 352 353 353 353 353 353 353 353 353 354 355 355 357 359 358 358 357 357 357 356 356 356 353
354 353 353 352 352 351 351 352 352 351 351 351 351 351 351 352 353 353 353 353 353 353 354 354 354 353 354 354 354 355 355 356 357 358 359 358 357 357 357 358 357 356
354 353 353 353 352 352 351 351 351 352 352 352 351 351 351 352 352 353 352 352 353 354 354 354 354 353 354 354 354 355 355 355 356 358 359 359 358 358 358 357 358 357
354 353 353 352 352 351 351 350 351 352 352 353 352 352 352 352 352 352 353 353 352 353 353 353 354 354 354 354 355 355 356 357 356 358 359 359 359 358 358 358 358 357
353 353 353 353 352 351 351 351 351 351 352 353 353 353 353 353 353 353 354 354 354 353 354 353 354 354 355 355 355 356 356 357 357 357 359 359 358 358 358 357 358 357
352 353 352 352 352 351 351 351 351 351 351 353 353 354 354 353 354 354 355 355 355 354 354 354 354 354 354 356 355 356 356 357 357 358 358 359 359 358 357 357 358 358
353 352 352 352 352 352 352 351 351 352 352 352 353 354 354 354 354 354 355 356 356 356 355 355 355 354 355 355 356 356 357 356 357 357 358 358 358 358 357 357 357 358
352 353 352 352 353 352 352 352 352 352 352 352 353 353 354 354 354 355 355 356 356 356 357 356 355 356 355 356 357 357 357 356 357 358 358 358 358 358 357 356 357 357
353 353 353 353 352 352 353 353 352 353 353 353 352 353 353 354 355 355 355 355 356 356 357 356 356 356 356 357 357 357 357 357 357 357 357 357 357 357 357 356 356 356
353 353 353 353 353 353 352 353 353 353 353 353 353 353 354 354 354 355 355 355 355 355 356 357 357 357 357 357 357 357 357 358 358 358 358 358 357 357 357 357 356 356
354 354 354 353 354 353 353 353 353 353 353 353 353 353 353 354 354 355 355 355 355 355 355 356 356 357 357 357 358 357 357 358 358 358 358 357 358 357 357 357 357 356
355 355 354 354 354 354 353 353 353 353 353 353 353 353 353 353 354 354 356 356 356 356 356 356 356 356 356 356 357 357 357 358 358 358 358 358 358 357 357 358 357 357
356 356 355 355 354 354 354 354 353 353 353 353 353 353 353 353 353 354 355 356 356 356 357 356 356 356 356 355 356 357 357 358 358 358 358 358 358 358 358 358 357 357
357 356 356 356 355 355 355 354 354 354 353 354 354 353 354 353 353 353 353 354 355 356 356 357 357 356 356 356 356 357 357 357 358 358 358 358 359 358 358 358 358 358
358 357 357 356 356 356 355 354 354 354 354 353 354 354 354 354 353 354 353 353 353 355 356 356 357 356 356 356 357 357 357 357 358 358 359 358 359 359 359 359 359 358
359 358 358 357 356 356 356 356 355 355 354 354 354 354 354 354 354 354 353 353 353 354 354 355 355 356 356 356 356 357 357 357 358 358 358 359 359 358 359 359 359 359
360 359 359 358 357 357 356 356 356 356 355 355 354 354 354 354 354 354 354 354 353 353 353 353 354 355 355 355 356 356 357 357 358 357 357 357 358 358 359 359 359 359
361 360 360 359 359 358 357 357 356 356 355 355 355 354 355 354 354 354 355 354 354 354 354 353 353 354 354 355 355 355 356 357 357 357 357 358 358 358 358 359 359 359
362 361 361 360 359 359 358 358 358 357 356 356 356 355 355 355 355 354 354 354 355 354 354 354 353 354 354 354 355 355 356 357 356 357 357 357 357 358 358 359 359 359
362 361 361 360 360 360 359 359 358 358 357 357 356 355 355 355 354 355 354 355 355 355 355 355 354 354 354 354 355 355 356 356 357 357 357 357 357 357 357 359 358 359
363 363 362 361 360 360 359 359 359 358 358 358 357 356 356 355 355 355 355 354 354 354 354 355 354 355 354 355 354 355 356 356 357 357 357 357 357 357 358 358 358 359
364 363 363 362 362 361 360 360 359 359 359 358 358 357 357 356 356 355 354 354 354 354 355 355 355 355 354 355 354 355 355 355 356 357 356 356 356 357 357 358 358 358
365 365 364 363 363 361 361 361 360 360 359 358 358 358 357 357 356 355 355 355 354 355 354 354 355 355 355 356 355 356 356 355 356 357 357 356 356 357 357 358 358 358

ECMWFNIL_925_thetae_066.txt.gz
Theta_e
352 351 350 351 352 352 352 352 352 353 352 353 352 352 353 352 352 351 350 350 350 350 351 351 351 352 351 349 347 347 348 351 353 355 356 357 356 355 354 352 351 350
352 352 351 351 351 352 352 352 352 352 352 352 352 351 352 352 352 351 350 351 351 351 351 351 351 352 352 351 348 348 349 351 352 353 356 357 357 356 355 354 353 352
352 352 351 351 351 352 352 352 352 352 352 352 352 352 351 352 352 351 351 350 351 351 351 351 351 352 353 352 350 349 349 351 352 353 355 357 357 357 356 355 354 353
353 352 352 352 352 351 351 352 352 352 351 351 351 351 350 350 350 351 351 350 351 351 350 351 350 351 352 353 352 350 350 351 352 353 355 356 357 357 357 356 355 355
353 353 353 352 352 351 351 351 351 352 352 351 351 351 350 349 349 350 350 351 350 351 351 351 350 351 351 353 353 352 351 352 352 353 354 355 355 357 357 357 356 356
353 353 353 352 352 352 352 351 351 351 351 351 351 350 350 350 350 349 349 350 350 350 351 351 351 350 351 352 353 353 353 352 352 353 354 354 354 355 356 357 357 357
353 353 352 352 352 352 351 351 352 352 351 351 351 350 350 350 350 349 349 349 350 350 351 350 351 350 351 352 353 353 354 353 353 354 354 354 354 354 354 355 356 357
353 353 352 352 352 352 352 351 351 352 351 351 351 350 351 350 350 350 349 349 350 350 350 351 351 351 350 352 353 353 353 354 354 354 354 355 355 355 355 354 355 356
353 353 352 352 352 352 351 351 351 351 351 351 351 351 350 350 350 350 350 350 350 351 351 351 351 351 351 352 353 354 353 353 354 354 355 355 355 355 355 354 355 356
353 353 353 353 352 352 352 351 351 351 351 351 351 351 350 350 350 350 351 351 351 351 351 352 351 351 352 352 352 352 353 353 353 354 354 354 354 355 355 356 356 355
353 353 353 352 352 352 352 352 351 351 351 350 351 350 350 351 351 351 351 351 352 351 351 352 351 352 352 352 352 353 353 353 354 354 354 354 355 354 355 356 356 356
352 353 352 352 353 352 352 352 351 351 351 351 350 350 351 351 351 352 352 352 352 352 352 352 352 353 353 353 354 353 353 353 354 354 354 355 355 355 355 355 355 356
352 352 352 352 352 352 352 352 352 351 351 351 351 350 350 350 351 351 352 352 352 352 353 352 352 353 353 353 354 354 354 354 354 355 354 355 355 355 355 355 355 355
352 352 352 352 352 352 352 352 352 351 351 351 351 350 350 351 351 351 351 351 352 352 353 353 353 354 354 354 354 354 354 354 354 355 355 355 356 356 356 356 356 355
351 352 352 352 352 351 351 351 351 351 351 351 351 351 351 351 351 351 351 351 352 352 353 353 353 354 353 353 353 354 354 354 355 355 355 355 356 356 356 356 356 356
352 352 352 352 352 351 351 351 352 352 351 351 351 351 351 352 352 352 351 351 352 352 353 353 354 354 353 352 352 353 353 354 354 355 355 355 355 356 356 356 356 356
352 352 352 352 351 352 352 352 352 352 352 351 351 351 352 352 352 352 352 352 352 353 353 353 353 353 352 353 352 353 354 354 355 355 355 355 355 355 355 356 356 356
353 352 352 353 352 352 352 352 352 352 352 352 351 352 352 352 351 351 352 352 352 353 353 353 353 353 352 353 354 354 354 354 354 355 355 355 355 355 355 355 356 356
353 353 353 353 353 353 352 353 352 352 352 352 352 352 352 351 352 352 351 352 351 352 352 352 353 353 353 354 353 354 354 355 355 355 355 355 355 355 356 356 356 356
354 354 354 354 354 353 353 353 353 353 353 353 352 352 352 352 352 352 352 352 352 352 352 352 352 352 352 352 353 354 354 355 355 355 355 355 356 356 356 356 356 356
355 355 354 354 355 354 354 354 353 353 353 353 353 353 353 353 352 352 352 352 352 352 352 352 351 351 351 352 352 353 354 354 355 355 356 356 356 356 356 356 356 356
356 356 355 355 355 355 355 354 354 354 353 354 354 353 353 353 353 353 353 352 353 353 352 352 352 352 351 351 351 352 353 354 354 355 355 355 355 355 355 356 356 356
357 357 356 356 356 356 355 355 355 355 355 354 354 354 353 353 353 353 353 352 353 353 352 353 353 352 352 352 351 352 352 352 353 354 354 354 354 354 354 355 355 355
358 358 357 357 357 356 356 356 355 355 355 355 355 354 354 354 354 353 353 353 353 353 353 353 353 353 353 352 352 352 352 352 352 352 353 353 354 354 354 354 354 354
359 359 359 358 358 357 357 357 356 356 356 355 355 355 355 355 354 354 354 353 354 354 353 353 353 353 353 353 353 353 353 353 353 352 352 353 353 353 354 354 354 354
360 360 360 359 359 359 359 358 357 357 357 357 356 356 355 356 355 354 355 355 354 354 353 354 354 354 353 354 354 353 353 353 353 353 353 353 353 353 354 353 354 354

ECMWFNIL_925_thetae_069.txt.gz
Theta_e
354 354 354 353 353 353 353 351 349 349 349 350 352 351 351 352 352 352 352 351 351 351 351 350 351 351 351 351 351 352 354 354 354 353 354 358 358 357 357 354 353 352
354 353 353 354 353 352 352 351 349 348 348 348 350 350 350 351 351 351 351 351 351 351 351 350 350 350 351 352 351 353 356 356 356 355 355 358 358 358 358 357 356 355
354 354 353 353 353 352 352 352 350 349 349 348 349 350 350 351 351 351 351 351 351 351 351 350 350 350 351 352 351 352 356 358 357 355 355 357 358 358 359 358 358 356
354 354 353 353 353 353 353 353 352 350 350 350 350 350 351 351 351 351 351 351 351 351 351 350 350 351 351 352 352 353 357 358 357 356 356 357 358 358 359 359 358 357
354 354 354 354 354 354 353 353 352 351 351 351 350 351 351 351 351 351 351 351 351 351 351 350 350 350 351 352 353 355 358 358 357 357 357 357 357 358 359 358 356 356
355 354 354 354 354 354 354 352 352 352 352 352 351 351 351 351 351 351 352 351 351 351 351 351 350 350 351 352 353 355 358 358 358 358 357 357 357 357 358 357 354 354
356 355 354 355 355 354 353 353 353 352 352 352 352 351 351 351 351 351 351 351 351 351 351 350 350 349 351 352 352 354 357 358 358 359 358 357 357 357 357 357 356 355
356 356 355 355 355 355 354 354 353 353 351 352 352 351 351 351 351 351 350 350 350 350 350 349 349 349 350 352 352 353 356 357 358 358 359 359 358 358 358 358 358 358
356 356 356 356 355 355 355 354 354 353 352 352 352 352 351 351 350 351 351 350 350 350 349 349 349 348 349 351 352 352 354 355 356 356 358 358 358 358 358 357 357 358
357 357 356 356 356 355 355 354 354 354 353 352 352 353 353 351 351 351 351 350 350 350 349 349 349 349 349 350 350 351 352 354 354 354 356 356 356 356 357 357 358 358
357 357 356 356 356 355 355 355 354 354 354 353 353 353 353 353 351 351 351 350 350 350 349 349 349 350 350 350 351 351 352 353 354 354 354 354 354 354 355 356 357 358
357 357 356 356 356 355 355 355 354 354 354 353 353 353 354 354 353 352 352 351 350 350 350 349 349 350 350 350 352 352 352 352 353 353 353 354 354 355 355 355 355 356
357 357 356 356 356 356 355 355 354 354 354 354 354 354 354 354 354 354 352 351 350 350 350 350 349 350 350 350 351 353 352 352 352 354 355 355 355 356 356 357 356 357
357 357 356 356 356 356 355 355 355 354 354 354 354 354 354 354 354 355 354 352 352 351 351 351 351 350 351 351 351 352 353 353 353 354 356 357 356 356 357 357 357 358
356 356 356 356 356 355 355 355 355 354 354 354 354 354 354 354 354 355 355 355 354 354 353 353 353 353 352 352 351 352 353 354 356 355 356 357 358 358 357 357 357 358
355 355 356 356 356 355 355 355 355 355 355 354 354 354 354 354 354 355 355 355 355 355 355 355 355 354 352 351 351 351 353 355 357 356 355 357 358 358 358 358 358 358
355 356 356 356 356 355 355 355 354 355 355 354 354 354 354 354 354 355 355 355 355 356 356 356 355 353 351 350 349 349 352 355 357 357 356 356 357 358 358 358 358 359
356 356 356 356 355 355 354 354 354 354 354 355 354 354 355 355 355 355 355 355 355 355 356 356 355 353 350 349 349 349 350 353 356 358 358 358 358 358 358 358 359 359
356 356 356 356 355 355 354 354 354 354 355 355 355 355 355 355 355 355 355 355 355 356 356 356 356 354 352 350 349 349 349 351 354 357 358 359 359 359 358 359 359 359
356 356 356 356 355 354 355 355 355 355 355 355 355 355 355 355 355 355 356 356 355 356 356 356 356 355 353 352 350 350 350 351 352 355 357 358 358 359 359 359 359 360
357 357 356 357 356 355 355 356 356 355 356 355 355 356 356 356 355 355 356 356 356 356 356 356 355 354 353 353 352 351 351 352 352 354 355 357 358 359 359 359 359 359
357 357 357 357 357 356 356 356 357 356 356 356 356 356 356 356 356 356 356 356 356 355 356 356 355 354 353 352 351 351 352 352 353 353 354 356 357 358 358 358 358 359
357 357 358 358 358 358 357 357 357 357 356 356 356 356 356 356 356 356 356 356 356 356 356 356 356 354 353 352 352 352 351 352 352 352 354 355 356 357 357 358 357 357
357 358 358 358 358 358 358 358 358 357 357 357 357 356 356 357 356 356 357 357 356 356 356 356 356 356 354 353 352 352 352 351 351 352 354 355 356 356 356 357 356 355
358 358 358 358 359 359 358 358 358 358 358 358 357 357 357 357 357 357 357 357 357 357 356 356 356 356 355 354 353 352 352 351 351 353 354 355 356 356 356 356 355 354
359 359 359 359 359 359 359 359 359 358 359 359 358 358 357 358 358 358 358 358 357 357 357 356 356 356 356 355 354 353 353 352 351 353 354 355 356 356 356 357 357 356

ECMWFNIL_925_thetae_072.txt.gz
Theta_e
356 357 357 358 360 357 357 358 358 358 357 356 355 355 356 357 358 358 358 359 360 360 360 360 359 358 358 358 359 358 358 359 358 358 358 359 359 359 358 358 357 356
356 357 357 358 359 359 358 359 359 359 358 357 355 355 357 358 359 359 359 359 359 359 359 359 359 359 358 358 359 359 359 358 359 358 359 359 359 359 359 359 358 358
357 356 356 357 358 360 358 359 360 359 358 357 356 356 357 358 359 360 360 359 358 358 358 358 359 358 359 359 359 359 358 359 359 358 359 360 359 359 359 360 359 359
357 357 357 357 359 360 360 359 360 360 358 358 357 356 356 357 359 361 361 361 359 359 359 359 359 359 359 359 359 359 359 358 358 358 358 359 360 359 358 360 360 358
357 358 357 358 359 360 360 359 360 360 358 357 357 357 357 358 359 360 360 361 361 360 358 359 359 359 360 360 359 358 358 357 357 358 357 358 359 360 359 360 361 360
358 358 358 359 359 359 359 360 359 359 358 357 356 358 358 359 359 358 359 360 360 358 357 357 358 358 359 360 359 359 359 357 357 357 357 357 359 360 360 360 361 362
359 359 359 359 359 359 360 360 360 359 359 358 358 357 358 359 360 359 358 359 359 358 357 356 357 359 358 360 361 360 360 359 358 358 357 357 358 359 359 361 362 362
360 360 360 360 360 360 360 360 360 360 360 358 358 358 359 359 360 359 359 359 358 359 359 358 360 360 359 359 360 361 361 359 359 359 359 358 358 359 360 362 362 363
361 361 361 362 361 360 360 360 360 360 360 359 358 359 359 359 358 359 359 360 360 360 360 360 360 361 360 358 360 362 362 360 359 360 360 360 359 360 361 362 362 363
362 362 362 362 361 360 360 359 360 360 360 359 359 358 359 359 359 359 359 361 362 361 361 361 361 361 361 360 360 362 362 360 360 360 361 361 360 361 361 361 362 363
363 363 362 362 361 360 360 359 358 359 360 360 360 358 358 359 359 359 359 361 362 362 361 361 362 362 361 360 360 361 362 361 361 361 362 362 362 361 361 362 362 362
364 363 362 363 361 359 359 359 358 359 359 360 359 358 357 358 359 360 360 360 362 362 361 362 362 362 362 361 359 359 361 361 360 361 362 362 362 361 361 362 362 363
364 363 362 362 362 361 359 359 359 358 358 359 360 359 358 357 358 360 360 360 361 362 361 362 363 363 363 362 361 359 360 361 361 360 361 362 362 361 360 360 362 362
364 364 363 362 362 362 360 360 359 359 359 359 360 359 359 357 358 359 361 360 361 362 361 361 363 363 363 363 362 360 360 361 362 360 359 360 361 360 359 359 359 360
365 364 363 363 363 363 362 361 360 360 360 360 360 359 358 357 357 357 360 361 361 362 362 361 362 363 363 362 363 362 360 359 361 361 359 358 359 359 359 359 359 357
365 365 364 363 364 363 363 363 361 361 361 361 361 360 359 359 358 358 358 360 361 362 362 361 362 362 362 359 358 359 361 360 360 362 361 360 360 360 359 359 358 357
366 365 364 364 364 364 364 364 362 362 362 362 361 361 361 361 361 360 359 359 360 362 362 362 362 361 359 356 352 352 357 361 362 362 362 363 361 361 360 359 358 358
366 365 365 365 365 365 365 364 364 363 363 363 362 362 362 362 361 361 361 360 359 361 361 362 362 362 359 355 350 347 349 355 360 361 362 363 362 362 361 360 359 359
366 366 365 365 365 365 365 365 364 364 364 364 363 363 363 362 362 361 361 361 360 360 361 361 362 362 359 356 352 350 348 350 355 359 359 361 362 362 362 362 362 361
366 366 366 366 366 365 366 365 364 365 364 363 364 364 363 363 363 362 363 362 361 361 361 360 360 361 360 358 355 353 351 350 353 356 358 358 361 362 362 363 364 363
366 367 366 366 366 366 366 365 365 365 364 364 363 363 363 364 363 363 363 363 362 361 360 361 359 359 359 359 356 355 354 352 353 356 357 358 359 361 361 363 364 364
366 366 366 366 366 365 365 365 365 365 365 364 363 362 363 364 363 363 363 363 363 362 361 360 360 359 358 358 357 356 355 354 354 356 358 358 359 360 361 362 363 364
365 365 365 365 365 365 365 365 365 365 364 364 363 362 361 362 363 363 363 362 362 362 361 361 361 359 358 357 356 356 355 354 354 356 358 358 359 360 361 362 363 363
364 365 365 365 366 365 365 365 365 364 365 364 363 362 361 361 362 363 362 362 361 362 362 362 362 361 359 358 357 356 355 355 355 357 359 359 360 360 361 362 362 363
364 364 364 365 365 365 365 365 365 364 364 364 363 363 361 360 361 362 362 362 361 362 362 361 362 362 360 359 357 356 354 355 356 358 359 360 360 361 361 362 362 362
364 364 364 365 364 365 364 365 364 363 364 363 363 362 362 361 361 361 362 363 362 362 361 360 361 362 361 360 359 357 356 355 356 359 359 360 361 361 361 362 362 363

ECMWFNIL_925_thetae_075.txt.gz
Theta_e
358 358 358 359 361 360 359 360 358 357 355 355 357 356 354 353 354 354 355 357 359 360 360 361 362 361 360 360 361 361 360 359 358 358 359 359 360 359 359 358 357 355
358 359 359 359 361 362 361 360 358 357 356 355 354 354 355 356 356 356 356 358 359 360 360 360 361 362 360 360 360 361 361 361 360 358 359 360 360 360 360 358 358 357
359 359 359 359 360 362 362 360 359 358 357 357 355 353 354 356 358 359 357 358 359 359 360 360 360 361 361 360 360 361 360 362 361 358 358 360 360 359 358 358 358 358
359 359 359 359 360 361 361 361 360 360 358 358 357 353 353 354 356 359 359 359 358 357 358 360 359 359 360 360 360 361 360 360 361 360 359 361 361 360 359 358 358 358
360 360 360 360 360 361 362 361 360 360 358 357 357 355 354 354 356 358 359 360 360 357 357 359 359 359 360 360 361 361 359 359 359 361 361 362 362 361 359 358 359 359
360 361 360 361 361 361 363 362 361 361 359 357 357 357 355 355 356 356 358 359 359 357 355 356 358 359 359 360 360 361 359 357 357 359 361 361 360 360 359 358 359 360
361 361 361 362 362 362 363 363 361 361 359 357 356 357 357 356 356 357 357 358 357 355 354 354 357 358 358 360 361 361 360 358 356 358 361 361 360 360 359 359 359 360
362 362 361 362 362 363 363 362 362 362 360 359 357 357 357 357 358 358 356 358 356 355 355 355 356 358 358 358 360 361 360 359 358 359 361 362 361 361 361 361 361 362
363 362 362 362 362 363 363 362 362 363 362 360 358 357 358 358 359 359 357 358 357 356 357 356 356 359 358 357 358 361 361 359 357 358 361 361 361 360 361 361 361 362
363 363 362 362 362 362 362 361 363 364 363 361 359 357 357 358 359 360 360 360 358 357 359 358 358 360 360 357 357 360 362 361 359 359 360 361 359 359 360 360 361 362
364 363 362 362 362 361 361 361 361 362 362 362 360 357 357 358 359 359 361 362 361 360 361 361 361 361 360 358 357 359 362 362 361 360 361 362 361 360 361 361 360 362
364 362 362 363 361 360 360 361 359 358 361 362 360 357 356 358 361 361 361 364 364 362 362 363 363 362 362 360 357 357 360 361 360 360 361 362 362 361 361 360 361 361
365 362 362 362 362 360 360 361 358 357 358 360 360 358 356 356 360 362 361 362 365 364 364 364 364 363 364 363 358 356 359 360 359 359 360 361 362 362 360 358 360 360
366 363 361 362 363 362 360 360 358 356 356 359 360 359 357 356 357 360 361 362 364 364 364 365 365 365 364 365 362 358 358 360 360 359 359 360 361 361 357 355 355 356
367 365 363 362 363 363 361 359 358 358 356 358 361 360 358 355 354 357 361 362 362 365 364 363 364 366 365 365 365 361 358 359 361 361 358 358 359 359 357 354 353 352
368 367 365 363 364 363 362 361 360 359 358 358 361 361 359 358 355 355 359 361 363 364 364 364 363 365 365 364 364 363 360 358 359 362 360 357 358 359 357 354 354 353
370 368 366 364 364 365 364 362 361 360 360 360 362 363 362 360 358 355 356 359 361 364 365 364 363 363 364 362 360 360 361 360 358 360 361 359 358 358 358 354 353 353
371 370 368 366 366 368 367 365 363 362 362 362 362 363 364 362 360 359 358 357 359 362 363 363 362 361 362 362 359 356 357 360 358 357 360 362 359 358 358 357 353 351
372 372 370 368 368 370 369 368 365 364 364 364 364 365 365 364 362 361 360 359 358 359 362 362 362 362 361 360 359 355 353 356 358 357 357 359 360 358 357 358 358 355
372 372 371 370 370 371 371 370 367 367 367 367 366 366 366 366 365 363 362 361 360 359 361 362 360 362 362 360 359 357 353 352 356 357 357 357 359 361 359 358 359 360
372 372 372 372 372 371 372 371 369 369 369 368 367 366 367 368 366 365 365 364 363 361 361 362 360 360 362 362 360 359 356 353 354 357 357 357 358 360 362 362 362 363
371 372 372 373 372 372 372 371 370 370 370 369 367 365 366 368 367 366 366 366 365 363 361 361 360 359 361 363 361 360 358 356 355 357 358 358 359 360 361 363 364 364
372 372 372 372 372 372 372 371 372 371 370 369 368 365 365 367 367 366 366 366 366 365 363 362 361 359 360 360 361 361 359 357 357 359 360 360 360 361 361 362 364 364
371 372 372 372 373 373 372 371 371 371 371 370 369 366 364 363 366 366 366 366 366 366 366 364 361 360 359 359 359 359 359 358 359 361 361 361 361 362 362 363 363 363
371 372 373 372 373 372 372 372 371 370 370 370 368 367 363 361 363 364 365 365 366 365 366 365 362 360 360 360 360 359 358 358 360 361 361 362 362 362 363 363 363 364
372 372 372 372 373 372 371 371 370 370 370 369 368 366 365 362 361 361 363 363 364 363 364 365 364 362 362 361 360 359 358 358 361 362 362 363 364 363 364 364 363 364

ECMWFNIL_925_thetae_078.txt.gz
Theta_e
352 351 351 352 351 350 351 356 355 354 355 355 356 354 352 350 351 354 355 357 358 359 359 360 361 361 360 360 360 359 360 359 359 359 359 360 360 360 359 356 354 354
355 353 353 354 355 353 353 356 358 357 356 355 356 357 354 351 350 351 354 355 357 359 360 361 362 362 362 362 361 360 360 360 360 359 359 360 360 360 359 358 356 356
356 356 356 357 358 357 356 357 359 359 357 355 356 357 357 353 351 352 353 355 357 359 360 361 362 363 362 361 361 361 362 362 361 359 358 359 360 360 360 358 357 357
357 357 357 358 359 358 358 358 360 360 358 356 355 355 356 356 354 354 354 355 357 359 361 361 362 363 363 362 360 361 361 362 362 361 359 359 360 360 360 359 358 357
357 357 357 357 358 359 359 360 360 359 358 357 354 354 354 356 356 356 355 356 357 359 360 361 362 361 362 362 361 362 361 361 362 362 360 361 361 361 360 359 359 358
358 357 357 358 358 359 361 361 361 360 359 357 357 355 353 354 356 357 358 358 358 360 359 359 361 361 361 361 361 362 362 361 360 361 361 362 362 362 360 360 359 359
359 358 357 359 359 360 362 362 362 360 359 358 357 356 354 354 356 357 359 359 359 359 358 358 360 360 360 360 361 361 361 360 360 359 360 361 362 362 360 359 358 358
360 359 358 359 360 360 362 363 362 361 359 358 357 358 355 354 354 356 359 359 360 360 357 357 358 359 359 360 360 361 362 361 360 358 357 360 361 361 360 359 359 359
360 360 360 360 360 361 361 362 362 361 361 359 357 357 357 354 354 356 357 358 360 360 357 356 357 358 358 359 360 361 361 361 359 358 358 360 361 362 362 361 361 360
361 361 361 360 361 360 361 362 363 362 361 359 357 356 357 356 355 356 356 358 359 358 357 355 356 356 357 358 359 360 360 360 360 358 357 359 361 362 363 362 361 361
361 362 361 361 360 361 361 362 363 363 362 361 358 356 356 357 356 356 356 358 358 358 357 355 356 356 357 358 359 359 360 361 361 359 357 359 361 362 362 361 360 360
361 362 362 362 361 361 361 361 362 362 361 361 359 357 356 357 357 358 357 358 357 358 357 355 355 356 357 358 358 358 359 361 361 361 359 358 360 361 361 360 360 360
363 361 362 362 361 361 361 362 362 361 361 362 360 357 356 357 358 358 358 359 357 357 358 357 356 357 358 358 359 358 358 359 362 361 361 359 359 361 361 360 360 361
363 361 362 362 361 360 361 362 360 359 361 363 362 359 356 356 358 358 359 360 359 358 358 358 358 358 359 359 358 357 357 358 360 360 361 360 359 360 361 361 361 361
364 363 362 362 362 360 360 361 360 359 362 363 362 359 356 356 356 358 359 360 362 361 359 360 360 359 360 360 359 357 357 358 359 360 360 360 359 360 360 361 361 360
365 363 363 362 362 361 360 360 359 359 361 361 362 361 358 355 354 358 360 360 362 364 362 361 362 361 360 359 358 356 355 357 358 359 359 359 358 359 360 361 360 358
366 364 363 362 362 363 361 360 360 361 359 360 362 362 359 355 354 357 360 360 361 364 364 363 364 364 363 360 357 355 354 355 356 358 359 359 359 358 359 358 359 357
366 365 364 362 363 364 362 361 362 361 359 359 360 361 360 358 356 355 358 360 361 363 365 364 364 364 364 361 358 356 355 354 355 356 359 360 359 358 358 358 357 356
367 366 365 364 364 365 363 362 362 361 361 358 360 361 360 360 358 356 356 359 360 362 363 364 364 363 363 363 360 358 355 355 355 356 357 359 360 359 358 357 358 356
368 368 367 365 365 365 365 364 363 363 362 360 360 362 362 362 360 358 357 357 359 361 363 363 363 362 362 362 361 358 356 355 356 357 356 356 359 360 359 357 356 356
370 370 368 366 366 366 366 365 364 363 363 362 361 361 363 364 361 360 358 357 357 360 362 362 362 362 362 361 361 359 357 356 356 358 358 356 356 358 360 359 358 357
371 372 369 368 366 367 367 366 365 365 364 363 361 360 363 364 364 362 361 359 358 359 360 361 361 361 362 361 361 360 359 358 357 357 358 358 357 358 357 358 359 358
373 372 371 369 368 367 368 368 366 365 364 364 363 361 362 365 365 364 363 362 361 358 359 359 359 360 361 361 362 361 360 359 359 358 358 357 358 358 359 360 359 359
373 373 373 372 370 369 369 369 367 366 365 365 364 363 364 365 366 366 364 363 362 361 360 359 359 360 360 360 360 361 360 360 360 360 359 358 356 357 357 359 360 361
373 373 374 373 373 371 371 371 370 367 366 366 364 364 364 365 366 366 365 364 363 363 363 361 360 359 359 360 360 360 361 361 360 360 360 359 357 356 355 355 357 358
372 373 373 373 374 373 373 373 371 368 367 367 366 364 363 363 365 366 366 365 364 364 364 363 362 359 359 360 360 360 360 361 361 361 361 360 360 358 357 356 356 355

ECMWFNIL_925_thetae_081.txt.gz
Theta_e
346 346 345 345 347 347 346 344 343 344 347 349 350 350 351 351 351 353 355 357 357 356 359 358 357 357 356 355 357 358 356 357 357 357 358 359 360 358 358 357 355 355
348 347 347 346 347 348 349 347 344 343 344 348 349 349 351 353 354 353 354 357 356 354 357 358 357 357 357 357 357 358 359 358 358 358 358 359 359 359 358 357 356 356
350 349 348 347 347 348 349 349 347 344 343 346 349 349 349 351 354 354 354 355 356 355 355 357 358 358 358 358 357 357 359 358 357 358 359 358 358 359 359 359 358 356
351 349 348 347 346 345 347 349 350 347 345 347 350 351 349 349 350 353 354 355 355 355 354 356 357 358 357 358 358 356 355 355 354 356 359 359 358 358 358 359 358 357
352 350 348 347 346 345 345 348 351 351 349 349 350 353 352 350 348 349 353 356 355 354 355 357 357 358 357 358 359 359 355 355 354 353 358 360 359 358 357 358 358 358
353 351 349 348 348 347 346 348 351 352 353 351 352 354 355 353 351 349 350 354 355 354 355 357 358 359 359 358 360 360 359 358 358 356 357 358 359 359 357 357 357 358
354 352 351 350 349 349 348 348 350 353 355 354 354 355 356 356 355 351 349 352 355 355 355 357 358 359 360 359 359 360 359 360 361 359 358 357 359 360 358 357 357 357
356 355 353 352 352 352 352 350 351 354 356 357 356 356 356 357 357 355 351 351 354 356 356 357 358 358 360 360 359 359 359 359 360 361 360 358 357 357 356 359 360 358
357 356 356 355 354 354 354 353 353 355 356 358 358 356 355 355 356 355 353 353 353 355 356 358 358 358 358 359 358 358 357 357 357 359 360 359 357 355 354 357 360 360
358 357 356 356 355 354 356 356 355 356 357 358 358 357 355 354 354 356 355 355 355 355 357 358 359 358 357 358 357 357 356 356 356 356 359 360 358 356 355 356 357 358
359 357 357 356 355 356 356 357 357 357 358 359 358 357 356 354 353 356 357 356 356 356 357 358 358 357 356 356 355 356 356 356 356 355 356 357 357 357 357 357 356 356
359 358 357 356 356 356 356 358 358 359 359 360 358 358 357 355 354 355 357 357 357 357 357 358 358 357 356 356 355 355 356 357 357 356 356 356 355 356 357 358 357 356
360 358 357 356 356 356 357 357 359 359 359 360 359 358 357 357 355 354 356 357 357 358 358 358 358 358 357 356 355 355 356 356 357 357 357 357 357 356 356 357 357 358
361 360 358 357 357 356 357 357 358 359 360 360 360 359 358 357 356 355 355 356 357 358 358 358 358 357 357 356 355 355 355 356 357 357 356 357 358 358 357 357 357 358
362 361 359 358 357 356 357 357 358 360 360 360 360 359 357 356 356 356 355 355 356 357 358 359 358 358 357 357 356 356 356 356 357 358 357 357 358 359 358 357 358 358
362 361 359 358 358 357 358 358 358 360 361 361 360 359 358 356 356 356 355 355 356 358 358 359 358 357 356 356 357 356 356 357 357 357 358 358 359 359 359 358 358 359
362 361 360 359 359 358 358 359 359 359 361 361 361 359 358 357 356 356 357 356 356 357 357 358 358 358 357 356 356 355 355 357 358 358 358 357 359 359 359 359 359 359
362 361 361 360 359 360 358 359 359 360 360 361 361 360 358 357 356 356 356 357 357 358 358 357 357 358 357 356 356 356 355 356 357 358 358 358 358 358 359 359 358 358
363 362 361 360 360 360 359 359 360 360 360 360 361 361 359 358 357 357 357 357 358 359 359 358 357 357 357 357 356 356 355 356 356 357 357 357 357 357 357 357 358 358
364 363 361 361 361 360 360 360 360 361 360 361 361 362 361 360 358 357 357 358 358 358 359 360 359 358 358 357 357 357 356 356 357 356 356 357 357 357 357 357 356 357
364 363 362 362 361 361 361 360 360 361 361 360 362 362 362 361 359 357 357 358 359 359 360 361 361 360 359 359 359 358 357 357 358 357 356 356 356 357 357 357 356 356
365 364 363 363 362 362 362 361 361 360 361 361 361 361 362 361 360 358 357 358 359 360 359 361 362 361 360 360 360 360 359 359 359 358 357 356 355 356 357 357 357 356
367 366 364 363 363 363 363 362 361 361 361 361 361 361 362 361 360 360 358 357 358 360 360 361 361 361 362 360 360 361 361 362 360 359 359 357 356 355 356 356 356 356
367 366 365 364 363 363 364 363 362 361 361 362 361 361 362 362 361 359 358 357 356 358 360 361 361 361 361 362 360 361 361 362 362 360 360 359 357 357 357 357 358 358
368 367 367 365 365 364 364 364 364 362 362 362 362 361 360 362 362 361 360 359 357 356 359 360 362 362 361 361 361 361 361 361 361 361 360 359 359 357 356 356 358 359
369 368 368 366 365 364 364 364 364 363 362 362 362 362 360 360 362 362 361 360 360 359 357 358 359 361 361 361 360 360 361 361 361 360 360 360 359 358 357 355 355 354

ECMWFNIL_925_thetae_084.txt.gz
Theta_e
343 344 344 342 342 340 341 342 343 343 343 344 347 349 347 345 346 349 352 354 355 356 356 355 355 356 356 356 356 356 356 355 354 354 354 355 352 348 349 352 353 352
343 342 342 343 343 342 341 342 344 346 346 345 345 348 349 347 346 348 351 353 355 356 357 356 356 355 355 355 356 357 357 355 355 355 355 355 354 351 351 353 354 355
345 343 342 342 343 343 343 343 345 347 347 346 346 347 348 347 347 347 350 351 354 356 356 357 358 357 354 355 355 357 357 355 356 356 356 356 355 354 354 354 356 357
347 345 343 341 341 343 344 343 344 345 345 346 347 347 346 347 347 348 348 350 352 354 355 356 359 358 355 354 354 357 357 356 356 357 358 357 356 355 355 356 357 357
348 347 345 343 341 342 345 346 344 344 343 344 345 346 346 346 347 348 348 349 350 353 354 355 357 358 357 355 353 355 357 358 357 357 357 358 358 357 356 356 356 357
349 348 346 345 343 342 344 345 344 343 341 340 340 344 347 346 346 347 349 350 351 352 354 355 355 356 358 357 355 354 354 357 358 357 357 357 358 359 357 356 356 357
351 351 348 347 345 344 344 343 343 343 340 339 338 340 344 346 347 348 348 350 351 352 354 354 354 355 356 357 356 355 354 354 355 355 355 355 357 359 359 357 356 355
352 352 350 349 348 347 346 345 345 345 343 342 342 341 342 343 345 346 348 350 351 352 354 354 355 354 355 356 357 356 355 353 352 351 350 351 354 358 359 358 357 355
353 353 352 350 349 348 348 346 346 346 347 347 346 344 343 343 343 344 347 348 350 351 353 355 355 354 355 356 357 357 356 354 353 352 349 350 352 354 357 358 357 355
354 353 352 351 350 349 348 347 347 347 347 349 348 346 346 345 345 345 347 348 349 350 352 354 355 355 354 356 357 358 357 355 355 354 352 351 350 350 353 354 356 354
354 354 353 352 352 350 349 348 348 347 346 348 349 349 348 348 349 350 350 351 351 350 351 353 355 355 355 356 356 358 358 356 356 355 353 352 350 348 351 354 355 353
355 354 354 353 352 351 350 349 348 348 347 347 350 350 351 350 351 352 353 354 353 352 351 352 353 355 355 355 356 357 359 358 357 355 353 352 350 349 351 355 356 353
356 356 355 354 353 352 352 350 350 349 349 349 350 351 353 353 353 353 354 355 355 354 353 352 353 355 356 356 356 357 359 359 359 357 355 353 350 349 350 353 354 354
358 357 356 355 354 354 353 352 351 351 351 350 350 352 353 354 354 354 354 355 356 356 354 353 352 354 355 356 356 357 358 359 359 359 357 355 351 349 350 351 352 352
359 359 358 357 356 355 354 354 352 352 353 353 352 353 354 354 354 354 354 354 355 356 356 354 354 354 355 355 356 357 357 357 358 358 357 356 354 351 350 350 350 349
361 360 359 358 357 356 356 355 354 354 353 354 354 354 355 355 355 355 355 354 354 355 355 355 355 355 354 354 354 355 357 356 357 357 357 356 356 354 352 350 349 350
362 361 360 359 358 357 356 355 354 354 354 355 355 356 356 356 355 355 356 355 354 354 356 356 356 356 355 354 354 354 355 356 356 357 357 356 356 355 354 351 350 351
363 362 361 360 359 358 357 355 355 354 354 355 356 356 357 357 357 356 356 355 354 355 355 356 356 356 355 355 354 354 355 356 356 356 357 357 357 356 355 354 352 352
363 362 362 361 360 359 357 357 356 355 355 355 356 357 357 358 357 357 356 356 355 354 354 356 356 356 356 356 355 355 355 356 356 356 356 356 356 356 356 356 355 354
364 363 363 361 361 359 358 357 356 355 356 355 356 357 358 358 358 357 356 356 355 355 355 355 355 356 355 356 356 355 355 356 356 356 356 355 356 356 356 356 355 356
365 364 363 362 361 360 358 358 357 356 356 355 356 357 357 358 358 357 357 355 356 355 355 355 355 354 355 356 355 356 356 356 357 356 355 356 356 355 356 356 356 356
365 364 363 362 361 360 359 358 357 357 356 356 356 357 358 359 358 357 357 356 355 355 356 355 355 354 354 354 355 355 356 357 356 356 355 355 355 356 355 356 356 356
366 365 363 363 362 361 360 358 358 357 356 357 357 357 358 358 358 359 358 356 355 356 355 356 356 355 355 354 354 355 356 357 357 356 356 356 356 355 355 355 356 356
366 365 364 363 363 361 360 359 359 358 358 357 357 357 358 358 359 359 358 357 356 355 355 356 356 356 356 355 355 355 355 356 357 356 357 357 356 356 355 355 355 355
366 366 365 364 363 362 361 360 360 359 359 358 358 358 358 359 359 360 359 358 357 356 355 356 356 357 356 357 356 356 355 356 356 356 357 357 357 357 356 356 356 355
367 367 365 365 364 362 362 361 360 360 358 358 358 358 358 358 359 360 359 359 358 357 357 356 357 357 357 358 357 357 356 357 356 357 357 357 357 357 357 357 357 356

ECMWFNIL_925_thetae_087.txt.gz
Theta_e
347 346 343 342 342 342 343 342 342 342 342 343 345 345 344 345 344 343 345 348 351 353 353 353 352 352 353 355 355 356 357 356 355 355 356 357 353 351 349 348 348 348
346 346 344 342 342 341 341 342 341 340 340 340 342 341 342 344 346 345 344 347 349 351 353 353 353 352 352 354 355 356 356 355 355 354 355 354 353 352 351 348 349 350
346 346 345 343 342 340 341 341 341 339 339 340 341 339 339 341 345 345 344 345 347 349 351 353 354 353 352 353 355 356 355 355 355 355 355 354 353 353 352 350 349 350
346 346 345 344 343 342 343 344 342 340 339 341 341 340 340 340 343 346 345 344 346 348 349 351 353 353 352 354 355 356 356 355 356 356 355 355 354 353 353 353 350 351
346 345 344 344 345 345 345 345 344 342 341 340 341 340 342 342 343 345 346 346 345 347 348 350 352 353 352 355 356 356 356 355 355 355 355 355 356 355 354 354 353 353
347 345 344 344 344 345 345 344 343 342 341 341 340 341 342 344 344 345 346 347 346 346 348 349 352 353 353 355 357 357 356 355 355 356 355 355 356 356 355 355 354 354
348 347 346 344 343 343 343 344 344 342 341 342 341 342 343 345 345 345 346 347 347 346 347 349 351 352 353 354 357 357 357 355 355 356 356 355 356 357 356 355 354 354
347 347 346 346 344 343 342 342 343 343 343 343 343 343 345 345 346 345 346 347 347 346 347 348 349 350 352 353 356 357 357 356 355 356 357 357 357 357 355 354 355 355
347 347 346 346 345 345 343 342 341 342 343 344 344 344 345 346 346 345 346 346 347 346 346 347 348 349 351 353 354 356 356 356 356 355 355 356 357 357 357 355 355 355
349 348 347 347 346 345 344 344 342 341 342 344 345 345 345 344 345 344 345 346 346 347 348 348 349 350 351 352 353 355 355 356 356 356 355 355 355 354 355 353 352 353
350 349 349 349 348 347 346 345 344 343 342 342 343 345 345 344 343 343 344 346 346 348 348 348 349 350 352 352 352 353 355 354 355 355 354 355 354 352 352 350 348 348
351 350 350 350 349 349 348 347 346 345 344 343 343 343 344 344 344 344 344 345 346 346 347 347 348 350 351 351 353 353 354 354 354 354 354 355 355 353 351 348 348 347
352 351 351 351 350 350 349 349 348 347 346 345 344 344 345 345 346 346 345 346 346 345 346 346 346 348 348 350 351 353 354 355 355 354 354 354 355 355 354 352 350 348
353 353 352 352 351 351 351 350 349 349 347 346 346 345 345 346 347 348 348 347 347 346 346 346 346 347 348 349 350 352 353 354 355 354 355 354 354 355 355 355 354 351
353 354 353 353 353 352 351 351 351 349 348 348 347 346 346 346 347 347 348 348 349 348 348 348 348 348 349 349 351 351 353 354 355 355 355 355 354 354 355 356 355 354
354 354 354 354 353 353 353 352 351 351 350 349 348 347 347 347 346 347 348 349 350 349 350 350 351 351 350 351 351 352 352 353 354 354 355 355 355 355 354 354 354 353
354 354 354 354 354 354 354 353 352 352 351 350 349 348 348 348 348 348 348 349 350 351 351 352 352 352 352 352 352 352 352 353 354 355 355 356 356 355 355 353 352 351
356 356 356 355 355 354 354 354 353 353 352 351 350 350 350 349 349 349 349 350 351 351 352 352 353 353 352 353 353 353 353 353 353 354 355 355 356 355 355 354 352 350
357 357 357 356 356 356 355 355 354 353 353 353 352 352 351 351 351 351 351 351 352 352 352 353 352 353 353 353 354 353 354 354 354 354 354 354 355 355 355 354 353 352
359 359 359 358 358 358 357 356 355 355 354 354 353 353 352 352 352 352 352 352 352 353 353 352 353 353 352 353 353 353 353 354 354 354 354 354 354 354 354 354 353 353
360 360 360 360 359 358 358 358 356 356 355 354 354 354 353 354 353 354 353 353 354 353 353 353 353 353 353 354 353 353 354 354 354 354 355 354 355 354 354 354 354 354
361 361 361 360 360 360 359 359 358 357 356 356 355 354 354 354 354 354 354 354 354 354 354 354 354 353 354 354 353 353 354 354 355 355 355 355 354 355 355 354 355 355
358 360 361 361 361 361 360 359 358 358 357 356 356 354 354 354 354 354 355 355 355 355 355 355 355 354 354 354 354 354 354 355 355 355 355 355 355 355 355 354 354 354
356 356 359 361 362 361 361 360 359 358 358 357 356 355 355 355 354 355 354 355 355 355 355 355 355 355 354 354 354 354 354 355 355 355 355 355 355 355 355 355 355 354
357 355 356 360 362 362 361 361 360 359 359 358 357 356 355 355 355 355 355 356 355 356 355 356 355 355 354 355 354 354 354 354 354 354 354 354 355 354 355 355 355 354
357 358 358 362 364 363 362 362 361 360 359 358 357 357 356 355 355 355 355 356 356 356 356 355 355 355 355 355 354 355 354 354 354 354 354 354 354 354 355 355 355 355

ECMWFNIL_925_thetae_090.txt.gz
Theta_e
350 349 348 348 348 347 346 347 347 346 344 344 344 344 345 346 345 345 345 344 346 350 353 354 355 355 355 355 355 355 355 355 355 355 355 355 356 355 354 352 350 349
350 349 348 347 347 347 346 347 346 346 344 344 343 343 344 344 344 345 345 344 345 347 350 353 354 355 355 354 354 354 354 355 355 355 355 354 355 355 354 353 353 350
349 349 348 347 346 346 346 345 346 346 345 343 343 343 342 342 343 344 344 344 345 344 345 349 351 353 354 354 354 353 354 354 354 354 355 354 354 354 355 355 354 352
348 349 348 347 346 346 345 345 345 345 344 344 343 342 341 340 340 341 342 343 344 345 344 345 348 350 352 353 353 353 352 353 354 355 355 355 355 354 354 355 355 355
348 347 348 347 346 346 345 344 344 343 343 343 343 343 342 340 339 339 340 340 341 344 344 344 345 347 349 352 353 353 352 353 353 354 354 355 354 355 354 355 355 355
347 347 347 347 346 346 345 344 343 342 342 342 342 342 341 339 339 339 339 339 340 342 344 344 344 345 347 349 352 353 352 352 354 355 355 354 354 354 354 355 355 355
347 347 347 346 345 345 345 345 343 342 341 342 341 340 340 339 339 339 340 340 340 341 343 344 345 344 345 346 349 351 352 352 354 355 356 355 354 354 354 354 355 355
347 347 346 346 345 345 345 344 344 342 341 342 342 341 342 342 340 340 339 340 341 342 343 344 344 344 344 345 347 349 350 351 353 355 357 356 355 355 354 355 355 355
347 347 347 346 346 345 344 344 343 342 340 341 342 342 343 343 342 340 340 340 340 342 343 344 344 345 345 345 345 346 348 350 351 353 355 356 356 355 354 355 356 356
347 347 346 347 346 345 344 343 343 342 341 341 341 343 343 343 342 341 341 341 341 342 343 344 345 345 345 345 344 345 346 348 350 352 353 355 355 355 354 354 355 356
347 347 347 347 346 345 344 343 343 342 341 340 340 341 343 343 343 342 342 343 343 343 344 344 345 345 345 345 343 345 346 347 349 351 352 353 353 354 353 353 353 353
347 347 346 346 346 346 346 345 344 342 342 341 340 341 342 342 342 343 343 343 343 344 344 344 345 345 345 344 343 344 346 346 348 349 350 352 352 352 353 352 351 350
347 347 346 347 346 346 346 345 345 344 343 342 341 340 340 341 342 342 343 344 343 343 344 343 343 343 344 343 344 345 345 347 348 349 349 351 351 352 352 352 351 350
347 347 347 347 346 346 346 346 346 345 344 344 342 342 341 341 341 342 342 343 343 343 344 343 342 342 342 343 344 345 345 346 347 349 349 350 350 351 351 351 352 350
347 348 347 347 347 347 347 346 347 346 345 345 344 343 344 342 342 342 342 343 343 343 343 342 342 342 341 342 343 344 345 345 346 347 349 350 350 351 352 352 351 351
348 348 348 349 348 348 349 348 348 347 346 346 346 345 345 344 344 344 343 344 344 344 344 343 344 344 343 343 343 344 344 344 345 347 348 350 351 352 353 352 352 351
349 349 349 350 349 350 349 349 349 349 348 348 348 347 347 346 345 345 345 345 345 346 346 346 346 345 344 344 344 344 344 345 346 347 348 350 351 351 353 352 352 351
349 349 350 350 350 350 350 350 350 350 350 350 349 348 348 347 347 346 346 346 346 347 347 346 347 346 345 345 345 345 346 346 347 348 349 350 351 351 352 352 352 352
349 349 350 351 351 351 351 351 352 351 351 351 350 350 349 348 348 348 347 347 346 347 347 347 347 346 346 346 345 345 346 347 348 349 350 351 351 351 351 351 352 352
350 351 351 351 352 352 352 352 352 352 352 351 351 351 350 349 349 348 348 348 347 347 347 347 348 347 347 347 347 347 348 348 350 350 350 351 352 352 352 352 352 352
352 351 352 352 352 352 353 353 353 352 352 352 351 352 351 350 350 349 349 349 348 348 348 348 348 347 348 347 348 348 349 350 351 352 352 352 352 353 352 353 352 352
354 353 353 353 353 353 354 353 354 353 353 353 352 352 352 351 351 351 351 350 350 349 349 349 349 349 349 349 349 349 350 350 352 352 353 353 353 353 353 353 353 353
355 355 355 355 355 355 355 355 354 355 354 354 353 353 353 353 352 352 352 351 351 351 350 351 350 350 350 350 350 351 350 352 352 352 353 353 353 353 353 353 353 353
358 357 356 357 357 356 357 356 355 356 356 355 354 353 353 353 353 353 353 352 352 352 352 352 351 352 351 351 351 352 351 352 352 352 352 353 353 353 353 353 353 353
359 359 358 358 358 358 358 357 355 355 355 355 354 354 353 353 354 354 353 354 353 353 353 353 353 353 353 352 353 352 352 352 352 352 352 352 353 353 353 353 353 353
356 358 359 359 359 358 357 357 356 355 354 354 354 354 353 353 354 354 355 354 354 354 354 354 354 354 353 353 353 353 353 353 352 352 352 352 353 353 353 353 353 354

ECMWFNIL_925_thetae_093.txt.gz
Theta_e
349 350 351 351 350 350 350 349 348 348 348 348 347 346 345 345 345 346 346 346 345 346 348 350 353 355 355 355 356 356 355 356 356 356 355 355 355 356 356 356 355 354
349 349 350 351 351 350 350 349 348 347 347 347 348 346 344 343 343 344 345 345 345 345 345 347 351 354 355 355 355 355 355 355 355 355 355 355 354 355 356 357 356 355
349 350 350 350 350 350 350 349 348 348 347 347 347 346 345 343 342 343 344 345 345 345 345 345 348 351 354 354 354 355 355 354 355 355 355 354 354 354 356 357 357 356
350 349 350 350 351 351 350 349 348 347 347 347 346 346 346 343 343 343 343 344 344 344 344 345 345 347 350 353 353 354 354 354 353 354 354 355 354 354 356 356 357 357
349 349 349 350 350 350 350 349 348 347 346 346 346 346 345 344 343 343 342 342 341 341 342 343 344 345 346 349 351 352 353 354 354 352 352 354 355 355 356 355 356 357
349 349 349 350 350 349 350 349 348 347 346 345 345 345 345 344 343 343 342 341 339 339 339 340 342 344 344 345 347 349 351 354 356 352 351 353 355 356 356 355 355 357
349 348 348 349 349 349 349 348 348 346 346 344 344 344 344 344 343 343 343 342 340 339 339 339 340 342 344 344 345 346 347 350 353 352 351 353 354 355 356 355 354 355
349 349 348 348 349 349 348 348 347 346 345 344 344 342 342 342 343 342 343 343 341 338 338 339 340 340 343 344 344 345 345 347 349 350 351 353 353 353 355 355 354 354
350 350 349 349 349 349 348 348 347 346 345 344 343 342 341 340 341 342 342 342 340 339 339 339 340 340 341 343 344 344 344 345 346 347 349 352 354 354 355 356 356 356
350 350 350 349 349 349 348 348 347 347 346 344 344 344 342 339 338 339 340 341 340 340 341 340 340 340 340 342 343 344 344 344 344 344 346 349 353 354 356 356 356 356
351 351 351 350 349 349 348 348 347 347 346 345 344 345 344 341 338 338 338 339 339 340 341 340 340 340 340 340 341 343 344 344 344 344 343 345 348 350 352 354 355 356
351 351 351 350 350 349 348 348 347 347 347 345 345 345 345 343 342 339 338 336 336 337 338 338 339 340 340 340 341 342 343 344 344 343 342 343 344 347 349 351 353 355
351 351 350 350 350 349 349 348 347 347 347 346 345 345 344 345 344 342 340 337 336 336 335 335 337 339 340 340 341 343 343 344 344 344 344 344 343 346 350 352 353 354
350 350 350 350 350 350 349 349 348 347 347 346 346 345 345 345 345 344 342 340 339 338 337 337 338 339 340 340 341 342 343 344 343 343 345 347 345 346 349 351 352 354
349 350 350 350 350 349 349 349 349 348 347 346 346 345 346 345 345 345 345 343 342 341 339 340 341 340 340 339 340 341 342 343 343 342 344 347 348 349 351 351 351 353
348 349 350 350 349 348 348 348 349 349 348 347 346 345 345 345 345 345 346 345 344 343 342 342 341 340 339 337 338 340 341 343 343 341 341 344 348 350 352 353 351 351
348 348 348 349 348 348 348 347 348 349 348 347 347 346 346 345 345 345 346 346 346 346 345 345 344 341 340 339 338 339 340 342 343 343 343 345 348 350 351 353 353 352
348 348 348 349 348 348 348 347 347 348 348 348 348 348 347 346 346 347 346 346 347 347 347 347 347 344 343 342 341 340 339 342 345 348 350 350 351 351 352 353 354 354
348 349 349 349 348 348 348 348 349 349 349 349 349 349 348 348 348 348 347 347 347 348 348 349 349 347 346 344 343 343 341 342 345 350 353 353 353 353 353 354 354 355
348 350 350 349 349 349 349 351 350 349 349 350 351 351 350 350 349 349 349 348 348 349 349 349 350 349 348 347 345 345 344 343 344 348 352 354 353 353 353 354 354 354
349 350 351 351 351 351 351 352 351 351 351 352 352 353 352 351 350 351 351 350 349 350 350 350 350 350 349 348 348 346 346 345 345 347 350 353 354 354 353 353 354 354
351 351 351 351 353 353 354 354 353 352 352 353 354 354 353 353 352 352 352 351 351 351 351 351 351 350 349 349 349 348 347 346 346 347 349 352 354 355 354 352 352 353
354 353 353 353 354 355 355 355 355 354 354 354 355 355 354 355 354 354 353 353 353 352 352 352 352 351 351 350 350 349 347 347 347 347 348 351 354 355 355 353 352 352
357 356 356 356 356 356 356 356 356 356 355 355 355 355 355 355 355 355 355 354 354 353 353 353 353 352 352 351 351 350 348 348 348 348 349 351 353 355 356 355 353 352
358 358 358 358 357 357 356 357 357 357 356 355 355 356 356 356 356 356 356 356 355 355 354 354 354 354 353 352 352 351 350 349 348 349 351 352 354 355 356 356 355 353
356 359 359 359 359 359 358 359 359 358 357 357 357 357 357 357 357 357 357 357 356 356 356 355 355 355 354 353 353 352 352 350 349 350 352 353 354 355 356 357 357 355

ECMWFNIL_925_thetae_096.txt.gz
Theta_e
356 357 357 357 356 355 354 356 355 355 355 353 350 350 352 353 355 355 355 356 357 357 359 360 360 361 362 362 362 362 363 363 361 361 362 362 360 357 355 354 353 352
357 356 357 357 357 356 355 355 355 355 355 354 351 350 352 354 355 355 355 356 356 355 357 358 357 359 361 361 362 363 364 364 362 361 362 362 361 359 356 354 354 354
358 357 357 356 356 357 355 354 356 355 355 354 354 353 353 352 353 355 355 355 355 354 356 357 356 358 359 361 362 363 363 365 362 361 363 363 362 361 357 355 354 353
359 357 356 355 353 355 355 353 354 355 354 352 353 354 352 350 353 356 356 354 354 355 356 356 356 357 358 359 361 361 361 363 362 362 364 363 363 362 359 357 355 353
359 357 355 355 353 353 355 354 353 354 353 352 353 353 354 354 354 355 355 354 354 354 355 356 356 356 356 358 359 359 359 359 360 361 362 362 362 361 359 359 358 355
360 358 357 355 354 353 355 354 353 353 351 351 352 352 353 355 354 352 354 354 352 351 351 352 354 353 355 356 357 358 357 357 357 360 360 359 359 360 359 360 360 358
359 359 357 356 355 354 355 355 353 352 351 350 351 352 353 353 354 352 353 353 351 350 350 350 352 353 353 354 356 357 357 356 356 358 360 359 357 358 359 360 360 360
359 359 358 357 355 355 355 355 353 352 352 351 351 352 352 352 352 352 352 352 351 351 352 352 355 356 353 352 355 357 357 355 355 358 359 358 358 358 359 359 360 361
359 359 359 358 356 355 354 353 352 352 352 352 351 350 351 351 349 350 351 353 352 351 354 354 355 356 354 352 355 357 357 355 353 355 357 358 357 358 358 357 358 359
359 358 358 357 356 355 354 353 351 351 351 352 350 348 349 351 349 349 351 354 353 352 354 353 354 355 353 352 354 356 357 355 354 355 356 356 355 355 356 356 356 357
358 358 357 357 356 354 353 353 351 351 351 352 351 348 348 349 351 349 351 353 353 351 351 350 351 353 353 351 351 353 354 354 354 355 356 355 354 354 354 354 356 355
358 357 356 356 356 354 353 353 352 351 351 351 351 349 347 347 349 351 351 351 349 348 349 348 345 349 352 350 349 350 352 353 352 353 355 355 354 353 353 353 354 355
358 357 357 356 356 355 353 353 352 351 351 352 352 350 348 345 347 349 351 352 349 347 348 349 347 348 349 348 347 348 350 353 352 351 352 354 353 352 350 350 351 353
357 357 357 356 356 356 355 353 352 352 351 351 352 352 350 347 345 346 349 351 351 350 348 350 351 352 352 350 349 349 349 350 352 351 350 351 352 352 350 349 348 349
358 357 357 357 356 357 356 355 354 353 353 353 353 353 351 350 348 346 347 350 350 351 350 349 350 352 353 353 351 352 349 348 350 352 351 349 349 350 350 349 348 348
358 358 357 357 357 357 358 356 355 354 354 354 354 353 353 352 351 350 349 349 351 352 353 352 350 350 351 349 348 349 351 350 350 352 353 352 351 351 349 348 348 348
359 359 358 358 358 358 358 358 357 356 355 355 354 354 354 353 353 352 351 350 351 352 353 353 352 351 350 348 345 343 346 350 353 353 354 355 354 353 351 349 348 348
358 359 358 358 358 359 359 359 358 357 356 356 355 354 354 354 353 353 353 351 351 350 352 352 353 353 351 349 347 343 342 346 351 352 354 356 355 354 352 352 350 350
358 359 359 359 359 359 359 360 359 358 358 357 356 356 356 355 355 353 353 353 352 351 351 352 352 353 351 350 348 347 345 344 346 349 352 353 355 355 355 354 354 353
358 359 358 359 359 359 359 359 359 358 358 357 357 356 357 356 355 355 355 354 354 353 353 352 351 352 352 350 349 348 348 346 346 348 350 350 353 355 356 357 356 356
357 358 358 359 359 359 359 358 359 359 358 358 357 357 357 357 356 356 355 355 355 355 354 354 353 352 351 351 350 349 349 348 347 348 349 350 351 354 355 358 358 358
356 356 358 359 359 359 360 359 359 359 359 359 357 355 355 356 357 357 356 356 355 356 355 355 354 353 352 351 351 350 350 349 348 349 350 351 351 353 355 357 358 359
356 356 356 358 358 360 360 359 359 359 359 359 358 357 355 356 357 357 357 357 356 356 357 356 355 354 353 352 351 351 350 350 349 350 352 352 353 354 355 357 359 359
353 356 357 357 358 359 359 360 360 360 360 359 359 358 356 355 356 357 358 358 357 357 357 357 357 356 355 353 353 352 351 350 351 352 353 354 355 355 355 356 358 359
346 350 355 357 358 358 359 359 359 359 360 360 360 359 358 357 356 356 357 358 358 358 357 358 357 357 357 355 355 353 352 351 351 354 355 356 356 356 357 357 358 358
343 347 351 355 357 357 356 357 358 360 360 360 360 360 359 359 358 357 358 358 358 359 359 358 358 358 358 357 356 355 354 351 352 354 356 356 357 358 358 358 358 358

ECMWFNIL_925_thetae_099.txt.gz
Theta_e
356 357 358 356 355 352 351 353 355 355 356 355 354 353 354 354 355 354 355 357 359 360 362 362 363 364 365 365 364 363 365 365 362 362 361 361 360 358 356 354 352 353
356 356 357 356 355 353 351 352 353 353 354 354 351 350 352 353 354 355 355 356 357 358 359 360 361 362 362 364 365 362 365 365 362 362 362 361 362 361 358 354 352 353
357 356 357 356 354 353 352 351 353 353 352 353 352 349 350 352 353 355 355 356 355 355 357 357 358 360 360 363 366 363 364 366 363 361 363 363 361 362 360 355 352 352
358 355 356 355 352 352 352 351 352 353 350 350 352 350 348 349 351 354 355 355 355 354 355 356 355 357 357 360 363 363 364 367 365 362 366 367 363 361 361 357 353 352
359 356 355 354 352 351 352 351 350 351 350 349 350 349 349 348 349 351 354 354 355 354 353 355 356 355 356 358 360 361 361 362 362 362 365 367 363 361 360 358 357 355
362 359 356 355 353 351 352 351 351 350 349 349 348 348 349 350 349 350 351 352 352 351 350 352 354 354 355 356 358 359 359 357 358 361 362 362 362 360 359 359 359 358
363 362 358 355 354 353 352 352 352 351 349 348 348 348 348 350 352 351 350 350 349 348 348 349 351 352 353 355 357 358 358 356 356 358 360 361 360 358 359 360 361 361
361 362 360 357 354 353 352 352 353 353 351 348 347 349 349 349 352 352 350 350 349 347 348 348 349 352 352 352 355 357 357 355 353 356 358 359 359 358 358 359 360 361
359 360 360 358 354 352 352 350 351 353 353 350 347 348 349 349 350 351 350 351 350 348 349 349 350 353 353 351 352 355 356 354 351 353 355 356 357 357 357 357 358 359
359 358 358 357 354 352 351 349 348 350 351 350 348 346 347 349 349 349 349 351 351 351 350 351 351 354 354 351 350 352 355 355 352 352 354 355 355 355 355 355 355 356
360 358 356 356 354 350 350 349 346 346 348 349 349 346 345 347 349 349 349 351 353 352 352 352 352 354 355 351 349 350 353 353 353 352 352 353 353 353 353 354 354 355
360 358 355 354 354 352 349 349 347 344 345 347 348 347 344 345 348 349 347 349 353 353 352 353 354 353 354 353 349 348 350 351 351 351 352 352 352 352 352 351 352 353
359 359 357 354 354 354 351 349 348 346 344 345 346 347 345 343 344 347 347 348 351 354 352 352 354 354 353 353 351 347 347 349 349 348 349 351 351 351 350 349 349 350
360 358 358 356 355 356 353 350 348 347 347 345 346 347 346 344 342 344 347 348 349 353 351 350 353 353 353 353 354 350 345 346 348 348 348 348 348 348 348 347 346 346
360 359 358 357 357 357 356 354 350 349 348 346 346 347 346 346 343 340 344 347 349 351 351 349 349 351 352 352 353 352 346 342 344 347 347 347 346 347 347 346 346 345
358 358 358 358 359 359 359 359 355 351 350 349 348 348 348 348 346 342 341 344 347 350 351 350 347 347 350 351 351 352 349 344 341 343 345 346 346 346 345 344 344 344
357 358 359 359 360 360 361 361 360 357 353 352 350 350 350 350 349 348 344 342 345 348 350 351 348 345 346 349 350 350 350 349 345 343 344 346 347 347 346 344 342 341
356 359 361 358 358 361 362 362 362 361 358 356 354 353 353 353 353 353 351 347 345 345 348 349 349 347 345 346 347 347 347 348 348 346 345 346 348 349 348 347 345 342
353 357 362 360 359 359 361 362 363 363 361 359 357 357 357 357 357 357 356 355 351 348 348 348 349 350 349 347 347 346 344 345 346 346 345 346 348 350 350 350 350 347
354 353 356 360 361 358 359 363 363 364 363 361 359 359 359 359 359 358 358 358 357 354 352 350 348 350 351 351 350 349 347 346 346 347 346 345 347 350 352 353 353 352
356 353 353 358 360 360 361 361 362 364 364 362 360 359 359 360 359 359 359 359 359 358 356 354 352 350 351 352 352 352 351 350 349 350 350 348 348 349 351 354 355 356
355 355 356 358 358 358 360 360 360 362 363 362 360 358 358 360 360 360 360 359 359 359 358 356 354 352 351 352 352 352 353 352 350 351 353 352 351 351 352 353 356 357
351 353 355 357 355 355 356 356 356 357 360 362 361 358 356 356 358 359 360 360 359 359 360 359 357 355 354 352 352 352 352 352 351 352 354 355 354 354 353 354 354 356
348 350 353 354 353 353 353 353 353 354 356 358 357 355 355 355 356 357 358 360 360 359 359 360 359 358 356 355 353 352 352 351 351 353 355 356 356 356 356 355 355 355
345 347 351 351 350 351 351 352 353 354 355 356 355 354 354 354 355 354 355 357 359 359 359 359 359 359 358 357 356 353 353 351 351 354 356 356 357 358 357 357 357 356
342 345 348 350 349 350 351 351 352 354 355 355 355 356 356 356 355 354 354 355 356 358 358 358 359 359 358 358 357 356 354 352 352 355 356 357 358 358 358 360 359 358

ECMWFNIL_925_thetae_102.txt.gz
Theta_e
356 358 357 357 357 357 358 358 358 358 359 359 359 359 358 357 355 355 357 359 360 361 361 362 361 360 362 362 359 361 360 359 360 359 358 360 359 356 357 356 354 353
356 357 358 358 356 355 355 356 357 357 357 357 358 357 356 355 355 355 355 358 360 361 362 363 362 361 363 362 358 359 360 360 362 360 359 361 360 359 358 356 354 352
357 358 358 358 356 355 354 353 354 355 356 356 355 354 354 355 356 355 355 357 358 359 360 362 362 362 363 362 361 361 360 362 362 360 360 362 361 361 360 357 354 352
357 358 358 357 356 354 352 352 353 353 354 356 355 352 353 353 354 356 356 357 356 357 358 359 360 361 361 362 364 364 362 363 363 360 362 363 362 361 361 359 355 352
358 357 356 357 354 353 352 351 352 354 353 354 354 352 350 351 353 355 356 357 357 356 356 357 357 358 359 360 362 363 362 364 363 361 363 365 364 361 360 360 357 354
359 356 356 355 353 353 353 351 350 352 352 352 352 352 350 350 351 354 355 356 357 356 356 356 356 356 357 358 360 361 361 362 362 361 362 364 365 362 359 359 358 357
360 358 355 355 355 353 352 351 351 351 352 350 350 352 351 350 350 350 353 355 355 354 353 354 355 356 356 357 358 359 360 359 359 359 360 362 362 361 360 358 358 359
360 359 356 354 354 352 352 353 351 350 351 350 349 350 349 349 349 350 351 353 354 353 351 351 353 355 354 355 356 358 359 359 357 357 359 361 361 360 359 358 359 360
361 361 358 355 354 352 352 351 351 351 350 349 349 349 349 349 350 350 350 351 352 351 349 348 350 352 352 354 354 356 358 358 356 355 356 359 360 361 359 359 359 360
359 360 359 357 353 352 351 350 350 351 352 351 349 349 348 349 349 350 351 350 351 350 348 347 349 349 350 352 353 354 356 357 356 353 353 356 357 359 359 359 358 358
356 357 358 358 355 351 350 349 348 349 351 352 350 348 347 348 349 350 352 351 350 350 349 348 348 349 350 351 352 353 354 355 355 354 352 353 355 355 356 356 356 356
355 354 354 355 356 352 351 349 348 347 349 352 351 349 346 347 348 349 351 352 351 349 350 349 349 349 351 352 353 351 352 353 354 354 353 353 353 355 354 354 354 354
356 355 354 352 352 352 349 349 348 346 346 349 350 349 346 346 348 348 349 351 351 350 350 351 350 350 352 352 353 352 349 350 352 353 353 352 353 353 353 353 353 353
356 357 355 352 353 353 350 346 347 346 345 345 348 348 347 345 345 347 349 349 351 351 350 351 351 351 351 352 354 352 350 349 350 351 352 351 351 351 351 351 351 350
355 357 356 354 353 353 354 350 347 346 346 344 345 346 346 345 343 344 346 348 350 350 351 352 352 352 352 352 353 353 350 349 349 349 349 349 349 350 350 349 350 349
353 354 355 356 353 352 356 356 353 350 347 345 345 346 345 346 344 342 344 346 348 349 350 352 353 352 352 352 352 351 350 349 347 347 348 348 348 348 348 348 348 347
353 353 354 355 355 355 357 358 357 355 353 350 347 346 346 346 345 342 342 344 346 348 349 351 352 351 351 352 351 350 349 348 346 344 345 345 346 347 348 347 347 346
355 354 354 354 355 358 359 359 357 356 357 356 354 349 346 347 347 345 345 343 342 344 347 349 351 351 350 349 349 349 348 348 346 344 343 342 343 345 345 346 346 345
356 356 356 355 355 356 356 354 354 356 356 354 353 355 353 350 348 347 347 347 344 343 344 347 348 350 349 348 347 348 348 347 347 347 345 343 342 342 343 343 345 345
353 355 356 355 354 354 353 352 354 356 355 354 353 353 353 353 353 351 350 350 349 347 346 346 346 347 350 348 348 346 346 347 346 347 346 345 343 343 342 343 344 345
348 351 352 353 353 354 354 353 353 354 355 355 354 354 354 353 353 355 355 352 352 352 351 350 349 347 347 349 349 347 346 346 346 346 346 346 344 343 344 344 345 347
346 348 349 351 352 352 351 352 353 354 354 355 354 354 353 353 353 354 355 357 356 355 355 355 354 351 349 349 349 349 348 345 346 347 347 347 346 345 345 345 344 346
346 346 347 348 350 350 350 351 352 353 354 354 354 354 354 354 353 353 354 357 358 357 357 358 358 356 354 352 350 350 350 348 347 347 347 349 348 348 349 350 349 348
343 344 346 348 348 350 350 349 350 353 354 355 354 354 354 355 355 354 354 355 356 356 357 357 358 358 358 356 355 352 351 350 349 348 349 350 351 352 353 352 353 353
342 344 345 347 348 349 350 349 349 350 352 354 355 354 354 355 356 356 357 356 356 357 357 356 357 358 358 358 358 356 354 352 350 350 351 352 354 354 355 354 354 354
341 343 345 345 347 348 349 349 349 349 350 353 355 356 356 356 356 357 358 358 358 358 357 356 357 358 357 357 358 358 357 355 352 352 352 354 355 355 356 356 356 356

ECMWFNIL_925_thetae_105.txt.gz
Theta_e
354 354 354 354 354 354 356 357 358 359 358 357 357 357 357 356 356 358 358 357 357 358 357 355 357 359 360 360 358 358 358 358 359 358 357 357 355 354 356 355 354 354
354 354 354 355 354 356 357 356 358 359 358 359 358 357 359 358 357 357 357 357 358 359 359 358 358 358 360 361 359 360 360 358 359 359 358 359 357 355 357 356 355 353
354 354 355 356 355 356 358 357 358 358 358 359 358 357 358 358 357 357 357 357 357 359 360 360 360 358 360 363 359 358 358 358 359 360 358 359 359 358 359 358 356 354
355 355 356 356 355 355 357 357 357 357 357 358 358 357 357 356 357 356 356 356 356 358 361 361 360 358 359 363 359 356 356 358 360 361 359 360 360 359 359 359 357 355
355 356 356 356 356 356 356 356 356 356 356 357 357 356 355 354 355 355 356 357 356 357 359 359 360 359 358 360 362 360 359 360 360 360 360 361 361 359 359 359 359 357
356 356 356 356 356 356 355 354 353 354 354 355 355 355 353 352 353 354 355 356 356 357 358 357 358 359 359 359 361 362 361 362 361 360 361 361 362 362 360 359 359 357
356 356 356 356 357 356 355 353 352 352 352 353 354 355 353 351 352 353 353 354 355 356 357 357 356 357 358 358 358 359 359 361 362 361 359 358 359 362 361 360 359 357
357 357 356 356 357 356 355 353 351 351 351 352 353 354 352 351 352 353 353 353 354 354 355 355 355 355 356 357 357 356 356 358 360 361 360 358 357 359 360 360 360 358
359 358 357 356 356 355 355 354 352 351 351 351 351 352 352 350 351 352 352 352 352 353 353 354 355 354 354 355 356 356 355 355 356 357 359 359 359 359 359 359 358 358
358 358 358 357 356 355 354 354 353 351 351 351 350 351 350 350 350 350 350 351 351 353 353 353 353 354 353 353 354 355 355 353 353 354 356 357 356 358 359 358 358 357
356 357 358 358 356 355 353 353 353 351 351 351 350 351 350 349 350 350 349 348 350 351 352 352 351 351 352 352 352 353 354 353 353 353 355 356 354 353 354 356 357 357
354 354 356 357 357 356 354 352 351 351 351 351 350 350 350 350 349 349 349 348 348 350 351 351 350 349 350 350 350 351 352 353 353 352 353 354 354 354 352 353 355 356
354 354 354 355 356 356 355 353 351 349 349 350 351 350 349 350 349 348 349 349 349 349 350 350 350 349 348 349 349 349 350 352 354 353 352 351 352 353 354 354 354 354
355 355 355 354 354 353 353 352 351 351 351 349 349 351 350 349 349 348 348 349 349 350 350 350 349 349 349 348 348 349 349 351 352 353 352 351 350 351 351 353 353 353
354 354 356 355 355 353 352 352 350 352 355 353 350 351 351 349 348 348 347 348 348 349 350 350 349 349 349 348 349 349 350 351 351 352 351 351 351 351 350 350 350 351
353 353 353 353 355 354 354 353 352 351 354 355 352 350 351 350 349 347 347 347 349 349 349 350 350 349 348 348 348 348 349 351 352 352 351 350 350 351 351 351 349 349
355 354 353 352 354 356 356 356 354 352 354 357 354 351 351 350 348 348 347 346 347 348 348 349 350 349 349 348 348 349 349 350 351 351 351 350 350 350 349 349 349 349
356 356 356 354 354 355 355 356 356 355 356 358 357 354 353 351 348 348 348 347 347 348 348 349 349 349 349 348 348 348 349 350 350 349 349 349 349 349 348 348 348 348
352 354 355 355 354 354 354 355 356 357 357 357 356 355 355 354 351 348 347 348 349 349 348 348 348 349 348 348 348 349 349 350 350 349 349 348 346 346 347 347 347 347
344 347 350 352 352 353 354 354 354 355 356 356 357 356 355 355 354 350 346 346 348 351 351 349 347 348 348 348 348 349 350 350 350 350 350 349 346 344 344 344 344 344
342 341 345 349 350 350 351 352 353 354 354 355 356 356 355 355 354 353 350 347 347 350 353 353 350 348 348 348 348 348 349 350 350 350 350 350 348 346 344 342 342 341
343 340 341 347 349 349 349 350 349 351 352 353 354 354 354 355 355 354 353 352 351 351 352 354 354 351 350 351 350 350 349 349 349 350 350 350 349 348 346 344 343 343
343 342 340 342 345 347 349 349 349 349 349 351 354 355 354 354 355 354 354 354 352 352 352 354 355 354 354 354 354 354 353 350 349 348 348 350 349 348 348 346 345 344
341 344 343 343 344 344 345 347 348 348 349 350 353 355 355 355 354 354 354 355 354 354 354 354 355 356 355 355 354 354 355 354 352 347 346 348 349 349 348 347 346 346
338 340 340 341 344 344 343 343 344 344 346 350 352 354 354 354 354 354 354 355 355 355 355 355 356 356 356 356 355 353 354 356 356 353 348 346 347 348 349 349 348 347
335 337 336 337 341 343 344 344 343 341 342 345 348 352 355 355 355 355 356 356 355 356 357 357 357 357 356 356 356 355 355 354 355 356 354 351 348 347 349 349 349 349

ECMWFNIL_925_thetae_108.txt.gz
Theta_e
354 354 354 353 354 354 352 353 354 354 354 354 354 355 356 356 355 355 354 354 353 355 356 355 354 356 357 357 357 357 356 356 355 355 355 353 353 352 353 355 354 354
353 353 353 353 353 354 353 353 354 354 355 354 353 354 355 355 355 355 354 355 355 355 356 355 354 355 358 359 359 357 357 357 357 357 357 355 355 354 353 354 355 355
353 353 353 353 353 354 354 354 355 355 355 355 354 354 355 355 356 355 354 355 355 355 356 357 356 355 357 359 360 359 358 358 358 358 358 357 357 357 355 354 356 357
353 353 353 354 354 353 354 355 356 357 357 357 356 355 356 356 356 357 356 356 356 356 355 357 358 357 358 359 360 359 359 358 358 358 359 357 357 358 357 357 358 357
353 353 353 354 354 353 354 355 355 357 358 358 357 356 356 357 358 358 357 356 357 356 354 356 359 359 358 357 359 360 358 357 356 358 359 359 358 359 358 358 358 358
355 354 353 353 354 354 355 356 356 356 357 357 358 358 357 357 358 357 356 357 357 356 354 355 358 358 356 355 357 358 359 357 355 357 360 359 360 361 360 359 358 358
356 355 353 353 354 355 355 356 356 356 356 357 357 358 357 356 356 355 355 355 356 355 355 355 356 356 355 355 356 356 358 358 357 360 360 359 359 360 359 359 358 358
356 355 354 354 354 355 355 355 356 356 355 355 356 357 357 355 354 354 354 354 355 355 355 355 356 356 355 356 357 357 357 356 357 360 361 359 359 358 357 357 357 358
357 356 355 355 355 356 355 355 355 355 354 354 354 354 355 355 354 352 353 353 354 355 355 355 356 356 356 355 356 357 357 356 355 356 359 360 360 359 357 356 356 357
359 357 356 355 355 355 355 355 355 355 354 352 352 352 352 354 354 352 352 352 353 353 353 353 354 355 355 355 354 355 355 355 355 354 355 357 358 358 357 357 356 355
357 357 357 356 356 356 355 356 356 355 354 352 351 351 351 352 353 352 351 351 352 352 351 351 351 351 353 354 354 353 352 353 354 354 354 353 354 356 356 356 355 354
353 356 358 357 357 356 356 356 356 355 354 352 351 351 350 351 352 352 351 351 351 351 350 350 350 350 351 352 353 353 352 351 352 353 353 352 351 352 353 355 355 354
351 354 357 358 357 357 356 355 355 355 354 353 351 351 351 350 351 351 351 350 350 350 350 349 349 350 351 350 351 352 352 351 350 350 351 352 352 351 352 353 354 354
350 350 352 355 357 358 357 355 354 353 352 351 351 351 351 350 350 351 350 350 349 349 349 348 348 349 350 350 350 350 350 350 350 349 349 349 351 351 351 351 351 352
349 349 351 353 354 355 356 355 354 352 351 350 350 350 350 351 350 350 350 350 350 349 348 348 348 348 349 349 350 349 349 349 348 348 348 347 348 350 351 351 350 349
352 353 354 354 354 354 355 354 353 353 351 351 351 351 351 350 350 350 349 349 349 349 349 348 348 348 348 348 348 348 347 348 348 347 348 348 348 348 350 351 350 348
353 353 354 354 354 354 354 354 353 353 351 350 350 351 352 351 350 350 350 349 348 348 349 349 348 347 347 347 348 348 347 347 347 347 347 348 348 348 349 350 351 350
356 355 355 356 356 356 355 355 354 354 353 352 351 351 352 353 352 350 350 349 349 348 348 349 349 349 348 347 347 347 347 347 347 347 348 348 348 348 348 348 349 350
354 354 354 353 354 354 354 355 355 355 355 355 355 353 353 354 354 352 351 350 349 348 347 347 348 349 349 349 348 348 347 348 348 348 348 348 348 348 348 347 347 348
346 348 350 350 350 351 351 352 352 353 354 354 355 355 355 355 355 354 353 351 350 348 347 347 348 348 349 349 349 349 348 347 348 348 348 348 348 348 348 348 347 346
342 343 344 346 347 348 349 349 349 350 351 351 352 354 354 355 355 355 355 354 352 350 349 348 348 349 350 350 349 349 349 349 349 348 348 349 349 349 349 349 349 348
343 343 342 343 344 345 346 347 347 348 349 349 351 352 354 354 354 354 354 355 354 353 351 350 349 349 350 352 351 350 349 350 350 350 350 349 349 350 350 350 350 349
339 339 339 341 343 344 344 343 344 344 345 346 349 351 353 353 354 354 354 354 354 354 354 353 352 351 350 351 352 352 350 350 349 350 350 350 350 350 350 351 351 351
335 334 334 337 340 341 342 342 343 344 343 343 346 349 351 353 354 355 354 355 354 354 354 354 353 353 352 352 352 353 353 352 351 350 350 350 350 349 349 350 350 350
331 332 333 334 335 336 337 339 342 345 345 344 344 345 348 351 353 355 355 355 355 355 355 355 355 355 355 355 354 354 355 354 354 353 352 352 352 351 351 351 351 350
326 327 331 332 332 334 336 336 337 340 343 345 346 345 346 348 350 353 355 355 355 356 355 356 356 356 356 356 356 356 356 356 355 354 353 354 353 353 354 354 354 353

ECMWFNIL_925_thetae_111.txt.gz
Theta_e
353 352 352 352 353 352 352 352 353 355 355 353 353 354 354 354 354 355 355 354 352 352 354 355 355 355 355 356 356 356 356 355 355 355 355 354 353 351 351 352 353 354
354 354 354 354 354 353 353 353 353 353 354 354 352 352 353 353 354 355 355 354 352 351 353 355 355 355 355 356 357 356 356 356 355 356 355 354 353 352 352 352 352 354
353 355 356 354 354 354 353 353 353 352 353 353 353 353 353 353 354 355 354 353 351 351 354 356 355 354 354 356 357 358 357 357 356 356 356 355 355 354 354 353 353 354
351 353 355 355 354 354 353 352 352 352 352 353 353 353 352 352 353 354 355 354 353 353 354 355 356 355 354 355 356 357 358 359 358 357 357 356 357 356 354 355 354 354
349 351 353 353 353 352 352 353 353 352 352 352 353 354 353 353 353 354 355 354 354 354 355 355 356 357 356 355 355 355 357 358 358 358 357 356 357 356 356 357 356 355
348 348 351 352 353 352 352 353 353 353 352 353 354 355 355 354 354 354 355 355 355 355 355 355 355 356 356 357 357 355 355 355 356 355 355 354 356 357 358 359 358 357
348 347 349 352 353 353 353 353 353 353 353 354 355 356 357 356 356 355 355 356 356 356 356 356 355 355 356 357 358 355 353 353 354 354 353 352 355 357 358 359 358 357
349 347 348 351 352 353 354 353 354 353 354 354 355 356 357 357 357 356 356 357 358 356 356 356 355 354 354 356 357 354 352 351 353 355 355 354 355 355 356 357 358 356
352 350 348 349 351 353 353 354 353 354 354 354 355 356 357 357 357 357 356 356 356 356 355 355 355 354 354 355 356 354 353 352 354 355 355 355 354 354 355 356 357 356
354 353 351 350 350 351 352 352 353 353 354 355 356 356 356 356 356 357 356 356 355 354 354 354 354 354 354 355 355 355 354 353 354 355 355 355 354 353 355 357 358 357
355 355 354 353 352 352 352 352 352 352 353 355 355 355 355 355 355 356 356 355 354 353 353 353 354 354 354 354 354 354 354 354 353 354 354 353 353 353 353 354 356 356
356 355 355 355 354 354 354 353 353 353 353 354 354 353 354 354 353 354 354 354 354 353 352 352 352 353 353 353 353 354 353 353 353 353 352 352 352 352 352 352 352 353
357 357 357 357 357 356 355 355 354 354 354 354 353 353 354 354 352 352 351 352 353 353 352 351 351 351 352 352 351 351 351 352 352 353 353 351 351 351 351 351 351 350
357 356 356 356 357 356 356 356 355 355 355 354 354 355 354 354 353 352 350 350 351 351 351 351 350 351 351 350 349 349 349 350 351 352 352 352 351 350 349 350 350 350
354 354 355 355 356 356 356 356 355 355 355 355 355 355 355 355 353 352 351 350 350 350 350 351 351 350 350 350 349 349 349 349 350 350 350 350 350 350 349 349 348 348
350 351 351 352 353 354 353 354 354 354 353 354 355 354 353 352 352 351 351 351 350 350 350 350 350 350 349 349 349 348 348 349 349 349 349 349 349 349 348 347 347 347
349 349 349 350 351 351 351 350 351 352 351 351 352 353 352 352 351 350 350 350 350 350 350 350 350 350 349 348 348 348 348 347 348 348 348 349 348 348 348 347 347 346
352 351 352 351 351 351 351 350 349 350 350 349 349 350 352 351 351 351 350 349 350 350 350 350 350 349 349 349 348 348 348 348 347 347 349 348 348 348 347 346 346 346
349 350 351 352 351 351 351 351 349 350 350 349 349 349 352 353 353 352 352 351 350 349 349 349 349 349 349 349 348 349 348 348 347 347 348 349 348 348 348 347 347 347
342 344 345 346 347 347 348 349 349 349 349 349 350 351 351 352 353 354 354 354 352 350 349 349 348 348 348 348 348 347 347 348 348 349 348 349 349 349 348 348 348 347
340 341 343 343 344 345 345 346 346 346 345 346 348 351 351 350 352 354 354 354 354 353 352 350 348 348 348 348 348 347 348 348 348 348 349 349 350 349 349 350 349 348
336 336 339 341 341 342 342 343 344 344 343 343 345 347 350 350 351 353 354 354 354 353 353 353 352 351 350 349 350 350 350 350 349 350 349 349 350 350 349 349 349 349
332 334 334 335 336 337 338 340 342 344 344 344 343 345 348 350 351 353 353 354 354 354 354 354 353 353 352 352 351 351 351 351 351 351 351 350 349 349 349 349 349 349
328 330 331 332 333 333 334 335 338 340 343 345 346 347 347 349 350 353 354 355 355 355 355 355 355 355 355 355 355 354 354 353 353 353 353 353 352 351 350 349 349 349
325 325 327 331 331 331 332 333 334 337 341 346 349 348 346 345 347 350 353 353 353 355 355 355 355 355 356 356 356 355 355 354 353 353 353 353 353 353 352 352 351 351
326 323 324 327 329 329 331 332 335 339 343 346 346 344 341 340 339 341 341 341 342 344 344 345 347 349 351 354 355 355 355 355 354 353 353 353 353 352 352 353 353 352

ECMWFNIL_925_thetae_114.txt.gz
Theta_e
348 349 350 351 352 352 351 352 353 353 353 353 352 350 350 352 353 354 355 354 351 349 351 352 352 353 353 354 355 355 355 354 355 355 354 354 354 353 352 352 351 352
348 348 350 351 351 351 351 351 352 351 352 353 353 352 351 351 353 354 354 354 352 350 350 352 353 354 353 354 355 355 355 355 354 354 354 354 355 355 354 353 352 352
349 349 351 351 351 351 351 351 351 351 351 352 353 353 352 351 352 353 354 354 353 351 349 350 352 353 354 354 355 356 356 356 354 354 355 355 355 355 355 355 354 353
349 349 351 352 352 352 353 353 352 352 353 352 352 353 353 352 352 352 353 354 354 353 351 351 353 354 354 354 354 356 356 356 356 355 355 356 356 355 355 356 355 355
349 350 351 352 354 354 354 354 353 353 352 352 352 352 352 353 352 352 353 353 354 354 353 352 354 355 355 355 354 354 356 356 357 357 357 356 356 355 355 356 355 356
348 349 349 350 353 354 354 354 353 353 352 352 352 352 352 352 353 353 352 353 354 354 354 353 354 354 355 355 356 355 355 356 356 358 358 357 356 354 353 355 356 357
347 348 349 348 350 352 354 353 352 352 352 352 352 352 352 353 353 354 353 353 354 354 355 355 354 355 355 355 356 356 356 357 357 357 358 357 355 352 350 354 357 357
348 348 348 349 348 350 352 352 352 351 352 352 352 352 352 353 354 355 355 355 355 354 355 356 356 356 355 355 356 356 357 357 357 356 356 355 354 352 350 353 355 355
350 349 349 349 349 348 349 351 351 351 352 353 353 353 353 353 354 355 356 356 356 356 355 356 356 356 355 355 355 355 356 356 356 355 354 354 353 353 352 353 355 355
351 351 351 351 350 348 347 350 351 351 352 353 353 354 353 354 354 355 356 356 356 356 356 355 355 355 354 354 354 354 354 354 355 355 354 354 353 353 353 353 354 355
352 352 352 351 351 350 348 349 351 351 352 353 353 353 354 354 355 355 355 355 355 355 356 355 355 354 353 353 353 353 353 353 353 354 354 354 354 354 353 353 353 353
352 352 352 352 352 352 351 350 350 350 351 351 351 352 352 352 353 354 354 354 354 354 355 355 355 354 353 352 352 352 353 353 353 353 353 353 352 353 353 352 352 352
354 353 353 353 353 354 353 353 352 351 350 349 348 348 349 349 351 352 352 353 353 353 353 353 353 353 352 352 351 351 352 352 353 352 352 351 350 351 351 351 351 351
355 354 354 354 354 354 354 354 354 354 353 352 351 350 350 350 350 350 351 352 353 353 352 352 351 351 351 351 351 351 351 351 352 351 350 349 348 349 349 350 349 349
352 351 352 354 355 354 355 355 354 354 355 354 354 354 353 353 352 352 352 353 354 354 353 352 351 350 350 350 350 350 350 350 350 350 349 349 348 348 348 348 348 347
349 348 350 353 354 354 355 355 354 353 353 354 354 354 353 354 353 353 353 353 353 354 353 352 351 351 350 349 350 349 349 349 349 349 349 348 348 348 348 348 348 347
348 347 348 350 351 351 352 352 352 350 349 351 353 353 353 353 352 352 352 351 351 351 351 352 351 351 350 350 350 350 349 350 349 349 349 349 349 348 348 348 348 347
349 348 348 349 349 349 349 349 350 349 347 348 351 352 352 352 351 351 351 350 350 349 348 349 349 349 350 350 350 349 349 350 350 349 349 349 349 349 348 348 348 348
347 348 348 348 349 350 350 350 350 350 349 348 350 351 351 351 350 350 351 351 351 351 349 349 348 348 348 348 349 349 349 349 349 349 349 348 348 348 348 348 348 348
344 345 346 346 346 346 347 348 348 349 349 349 350 350 350 350 350 349 350 350 351 351 351 351 350 349 349 348 347 347 348 348 348 348 348 348 348 348 348 348 348 348
340 342 342 342 343 343 344 345 345 345 346 346 348 348 349 349 350 350 350 351 351 351 351 351 351 350 351 351 350 348 348 348 348 348 348 348 348 348 348 348 349 349
334 335 336 337 339 341 343 344 345 345 344 344 344 345 346 347 347 349 350 351 351 352 351 352 352 351 350 351 352 352 350 350 350 350 350 350 350 350 349 349 348 348
331 331 331 332 334 336 338 340 343 346 346 346 345 346 347 347 348 348 349 350 352 353 353 353 351 350 351 352 353 353 352 352 352 351 351 352 351 351 351 350 349 348
328 329 330 331 333 336 338 338 341 346 348 347 347 347 347 347 349 348 347 349 350 349 350 351 348 348 350 353 354 355 354 354 353 353 352 352 352 352 351 352 352 351
325 326 328 331 334 340 343 343 344 346 345 343 341 341 340 340 340 340 339 340 340 339 340 343 342 343 346 347 349 352 354 354 355 354 354 353 353 353 353 353 353 353
324 324 327 329 332 337 342 345 346 343 339 336 335 335 334 333 333 332 331 332 334 334 336 337 336 337 340 341 344 348 350 351 352 352 352 353 353 354 354 355 354 354

ECMWFNIL_925_thetae_117.txt.gz
Theta_e
349 350 350 349 350 352 352 351 352 353 354 354 355 354 352 352 354 355 354 353 352 351 350 349 348 347 349 352 353 354 354 354 356 356 355 356 357 356 356 356 356 356
349 350 349 349 349 350 351 351 352 352 352 352 353 353 351 350 352 354 354 354 354 352 351 351 351 350 351 353 354 355 356 355 357 357 355 355 357 357 357 356 357 357
349 349 349 349 349 350 351 351 351 352 352 352 351 352 353 352 352 353 354 354 354 354 352 351 352 353 354 355 354 356 358 357 358 360 356 355 357 358 358 358 357 357
348 348 348 349 350 350 350 351 351 351 352 352 352 352 353 353 352 352 353 354 354 355 354 352 352 353 354 354 354 356 357 357 358 359 358 358 357 357 358 359 358 358
347 348 348 348 349 351 351 351 352 352 352 353 353 352 352 352 352 352 352 352 353 354 355 355 353 353 354 354 355 355 357 358 358 357 358 360 360 359 359 359 359 359
346 346 348 348 348 350 352 353 353 354 353 353 353 352 351 351 352 352 352 352 353 355 356 356 355 355 354 355 355 356 356 358 359 357 357 360 361 360 360 360 360 361
346 346 348 348 349 349 352 354 354 354 354 353 352 352 352 352 351 352 352 353 354 354 355 355 355 355 355 355 355 355 355 357 357 356 356 359 360 360 360 360 360 360
349 349 347 348 349 350 351 353 353 353 353 352 352 352 352 352 352 352 353 354 355 355 354 354 354 355 355 356 356 355 356 357 358 357 357 358 359 358 359 360 359 359
350 350 348 348 349 350 351 352 352 353 353 351 352 353 353 352 353 353 354 354 355 356 356 355 355 355 355 356 356 355 355 356 357 358 358 359 359 359 359 360 359 359
351 351 351 350 350 351 351 352 353 353 352 351 353 355 354 353 352 353 354 354 355 355 356 356 356 355 355 355 354 354 354 354 354 355 355 357 359 358 358 359 360 359
352 353 354 352 352 352 351 351 353 353 352 351 353 355 356 355 354 354 354 354 355 355 355 355 355 355 355 355 354 353 352 353 354 353 354 354 356 356 356 356 358 358
352 354 355 354 354 353 353 353 353 354 353 353 353 354 355 355 355 355 354 354 354 354 354 354 354 354 354 354 354 354 353 353 353 353 353 354 355 356 356 355 355 356
354 355 355 355 355 354 354 355 354 354 354 354 354 354 354 355 355 355 353 352 352 352 352 352 352 353 353 352 353 353 353 352 353 354 354 354 354 355 355 355 355 354
356 356 355 354 354 353 353 355 355 355 355 354 354 354 354 354 353 354 353 352 352 351 351 352 352 353 353 352 352 352 352 352 352 352 353 354 353 353 353 353 353 353
356 355 354 353 353 353 354 354 354 354 354 354 354 354 355 354 354 354 354 354 354 353 352 352 353 353 353 352 352 351 351 352 351 351 352 353 352 352 352 352 351 352
354 354 354 355 354 354 354 354 354 354 354 354 354 354 354 355 354 355 354 355 355 355 354 353 353 353 352 351 351 350 351 353 353 351 350 351 351 351 351 351 351 352
352 352 352 353 353 353 354 354 354 354 354 354 354 353 354 354 354 354 354 354 354 353 354 353 352 352 351 350 350 349 349 351 353 353 352 352 352 351 352 352 353 353
349 350 349 349 349 350 351 352 352 353 353 353 352 352 352 353 352 353 353 353 353 352 352 352 352 350 349 349 349 349 348 349 350 352 354 353 353 353 353 352 353 353
349 349 349 349 349 349 349 350 350 351 352 352 352 351 351 352 351 351 351 351 351 352 352 352 352 350 349 349 349 349 348 348 348 349 351 352 353 353 352 352 351 351
348 349 349 349 350 349 350 350 350 350 351 351 352 351 351 352 352 351 351 351 351 351 351 352 352 351 350 350 350 349 349 349 348 348 348 349 350 350 351 351 350 350
345 346 346 347 347 348 348 347 347 348 349 349 350 350 351 352 352 352 352 352 352 352 352 352 351 350 351 350 350 350 350 350 349 349 348 348 348 349 349 349 349 350
340 341 343 344 345 345 346 345 345 345 345 346 347 348 349 350 350 351 351 352 352 353 353 352 350 350 351 351 350 350 350 350 351 350 350 349 349 350 349 350 350 350
335 336 337 340 342 343 345 346 346 345 345 345 347 347 348 348 349 349 349 350 353 352 351 348 347 348 349 351 352 352 351 352 352 352 352 351 351 350 350 350 351 350
335 336 337 338 339 342 345 346 346 346 346 346 345 343 343 343 344 345 345 346 348 348 347 345 344 345 346 348 350 351 353 354 353 354 353 353 352 352 352 352 351 351
335 339 341 341 341 343 344 345 344 344 344 342 339 337 336 336 337 339 340 340 340 339 339 338 339 340 341 343 345 348 350 352 352 352 353 353 353 353 353 353 353 353
330 334 338 340 341 342 340 339 338 337 336 336 335 334 334 333 332 333 336 337 336 335 335 335 334 334 335 338 340 343 345 347 348 349 349 350 351 352 353 354 354 354

ECMWFNIL_925_thetae_120.txt.gz
Theta_e
358 358 358 358 358 358 358 359 358 359 359 358 356 356 357 358 360 360 359 360 359 359 359 358 358 358 358 359 359 359 359 359 359 360 360 360 359 357 355 355 354 354
356 357 358 357 358 359 359 359 359 359 359 359 357 357 357 358 359 360 360 360 359 358 359 359 359 359 358 360 361 360 361 361 360 359 360 360 359 357 356 355 354 354
356 356 357 356 357 357 357 358 359 359 358 358 358 358 357 357 358 360 360 360 359 358 359 358 359 359 358 361 362 360 362 364 361 361 363 362 359 358 357 356 355 355
355 355 356 355 355 356 356 358 358 358 358 358 358 357 357 357 357 359 360 360 360 360 360 359 359 359 359 361 360 359 362 363 362 363 364 364 362 360 358 357 357 356
355 355 355 354 356 356 357 357 357 357 358 358 357 357 358 358 357 358 358 359 360 359 359 359 359 359 360 361 360 360 362 360 361 364 365 365 364 361 359 359 359 359
355 355 354 355 356 357 357 357 357 357 357 357 357 357 358 358 357 357 357 358 357 357 358 358 359 359 360 362 361 361 361 359 361 364 364 363 363 361 360 360 360 361
355 355 354 354 354 355 355 356 357 358 357 357 357 357 358 357 357 357 357 357 356 356 357 358 359 360 360 361 362 362 361 360 361 363 362 362 362 362 360 360 360 360
354 354 354 353 353 354 354 355 357 358 358 358 357 357 358 357 357 357 358 357 357 357 358 359 360 360 359 360 361 362 362 360 360 362 361 361 362 361 360 359 360 360
353 353 353 352 352 352 352 352 354 356 358 357 356 356 357 357 357 357 358 358 359 360 360 360 361 360 359 360 362 362 362 360 359 359 360 359 359 360 359 359 359 359
352 352 352 351 351 350 350 350 350 352 355 355 355 353 355 356 356 357 359 360 360 361 361 361 361 360 359 360 361 362 361 360 359 358 358 357 357 357 357 357 357 357
353 352 351 350 349 348 348 349 348 349 352 353 352 352 353 355 356 356 358 360 360 360 361 361 361 361 360 360 359 360 359 358 358 357 357 356 356 356 356 355 356 355
355 353 352 351 350 349 348 348 348 348 349 350 350 351 352 353 354 355 356 358 358 358 359 360 361 360 361 360 358 358 358 357 356 355 355 355 354 354 354 353 353 353
358 356 354 353 353 352 349 349 349 348 349 349 348 349 350 350 351 353 354 356 356 356 355 358 359 359 359 360 358 357 357 357 355 354 353 353 352 351 350 350 350 350
359 358 358 357 357 356 355 353 351 350 351 351 350 350 349 349 348 349 351 353 353 353 353 354 356 357 358 358 358 357 356 356 355 354 353 352 351 351 350 349 349 348
359 358 358 358 359 359 358 357 355 354 355 355 354 352 349 348 348 348 349 351 351 353 353 353 353 354 355 357 357 356 355 354 354 353 352 351 351 352 350 350 349 349
358 357 357 357 358 359 359 358 357 357 357 357 356 355 353 352 352 350 349 350 351 353 354 353 352 351 353 355 355 355 355 355 355 355 355 354 354 354 353 350 350 349
356 355 356 356 357 358 358 358 358 357 357 358 357 357 357 356 356 355 352 350 350 351 352 352 351 350 352 355 353 352 353 355 356 356 357 357 356 355 354 352 350 350
353 354 355 355 356 356 356 356 356 356 357 358 358 358 357 356 357 356 355 354 352 351 351 350 349 350 352 353 352 351 350 351 354 354 354 354 354 354 354 353 351 351
352 353 353 353 354 354 354 354 355 355 356 357 358 358 357 357 356 356 357 357 355 355 354 351 351 352 352 351 351 350 349 349 351 352 352 351 352 353 354 354 354 354
353 353 353 353 353 353 352 352 353 354 355 356 357 357 357 357 357 356 357 357 357 357 357 355 354 353 353 352 350 350 349 349 350 351 351 350 352 353 353 353 355 356
352 352 352 352 353 352 352 352 353 353 354 354 355 356 356 355 355 356 356 356 357 357 357 355 353 352 353 351 350 351 351 350 350 353 353 351 353 354 355 356 356 356
348 349 350 350 351 351 350 351 351 352 352 353 353 354 354 354 354 354 355 355 356 356 356 353 350 351 352 350 350 351 350 350 352 355 356 355 354 356 357 358 358 358
345 345 346 347 348 349 349 349 349 349 349 350 351 351 352 352 353 353 354 355 356 356 354 350 347 348 349 349 350 351 351 352 355 356 356 355 356 357 357 358 358 358
342 343 344 345 347 347 347 348 348 348 348 348 349 349 348 348 349 350 350 351 351 350 349 346 344 345 346 346 349 350 352 354 356 356 355 354 356 356 355 357 358 356
342 343 344 345 346 346 346 347 347 346 346 346 346 345 344 343 344 345 346 345 344 344 344 343 342 342 342 343 345 347 350 352 354 355 355 355 356 355 355 357 357 356
340 342 344 344 345 345 344 344 344 344 343 342 342 342 340 339 339 340 341 339 337 338 338 339 338 336 334 336 339 341 344 348 350 352 353 353 353 354 355 355 354 354

ECMWFNIL_925_thetae_123.txt.gz
Theta_e
361 361 360 360 359 359 359 359 360 360 359 358 358 357 359 360 360 359 360 360 360 360 360 359 360 360 359 359 360 359 359 360 359 360 360 359 359 357 354 353 352 352
361 360 359 359 359 360 361 360 359 359 359 359 357 357 359 361 361 361 361 362 361 360 361 359 359 359 359 361 362 360 362 362 359 360 361 360 360 358 356 353 352 352
359 360 359 358 358 358 359 360 359 359 358 358 358 357 358 358 360 361 362 361 360 360 360 359 360 359 359 364 364 361 363 364 361 362 365 364 361 359 358 355 354 355
357 358 358 357 356 355 357 358 359 359 357 357 358 357 357 357 358 360 361 361 361 361 360 359 360 359 359 363 363 360 363 364 362 364 366 365 363 361 359 357 357 356
356 356 357 357 355 355 356 356 358 358 356 357 357 357 358 358 358 359 360 360 361 362 360 360 360 360 360 363 361 359 362 362 360 362 362 362 364 362 359 359 359 358
355 355 356 356 356 356 356 356 356 356 355 356 357 356 357 358 357 358 358 358 358 358 359 359 359 359 360 361 360 360 362 361 360 365 364 362 363 361 358 360 361 360
354 354 354 356 357 357 357 356 356 356 355 356 356 356 357 357 356 358 358 357 357 356 357 358 359 359 361 362 362 362 362 360 362 366 365 362 363 362 361 360 361 361
352 353 353 353 355 356 356 356 357 356 356 356 356 356 357 356 356 357 357 357 357 356 357 360 361 361 361 361 362 363 362 359 360 362 362 361 362 363 361 359 359 360
351 351 352 351 352 354 355 355 356 356 356 357 357 357 357 357 356 355 357 357 357 358 359 360 362 360 359 360 362 364 363 361 360 361 361 360 360 360 360 358 358 359
350 350 350 349 349 350 352 352 353 355 357 356 356 355 355 357 356 356 359 358 358 361 361 360 362 360 358 360 362 363 363 361 361 360 359 358 357 357 357 356 356 357
350 349 348 348 347 347 348 349 350 352 355 355 354 354 354 356 356 357 361 360 358 361 361 360 362 361 359 360 360 361 361 360 360 359 357 356 356 355 355 355 355 355
350 348 347 347 347 346 345 347 347 348 351 353 353 352 352 355 356 356 359 360 359 360 360 361 362 361 361 361 360 360 360 358 357 356 356 356 354 354 353 353 352 352
352 349 347 345 346 346 344 345 345 345 347 349 351 351 350 352 354 355 357 358 358 358 359 361 362 361 361 361 360 359 358 357 356 354 353 353 352 350 349 348 349 348
354 350 349 347 347 346 344 345 345 344 345 346 347 348 348 348 350 351 354 355 356 356 356 357 358 359 359 360 360 359 357 356 356 353 352 351 350 349 347 346 346 345
356 353 353 352 352 351 349 348 347 346 346 345 345 346 347 346 346 347 349 351 352 353 353 352 352 353 355 356 358 358 356 354 353 353 352 350 348 348 347 346 345 344
360 358 358 358 359 359 358 356 353 349 348 347 347 347 346 346 346 345 346 347 348 350 351 350 349 349 350 352 354 355 356 353 352 352 352 351 350 349 348 347 345 344
363 362 362 361 361 362 362 361 359 355 353 352 352 351 350 348 347 346 345 345 345 347 348 348 348 348 349 350 352 353 354 354 353 353 353 354 353 352 351 349 347 345
362 361 360 360 361 363 363 363 362 360 359 358 357 356 354 352 351 350 349 346 344 344 344 345 348 349 348 349 351 352 352 351 352 352 350 351 352 351 351 349 348 346
357 357 357 357 360 362 363 363 363 362 361 361 362 361 359 357 355 354 353 350 348 345 343 345 349 349 348 348 351 352 352 351 351 351 349 348 348 348 348 348 348 348
355 355 356 356 356 357 359 360 361 361 361 362 363 363 364 363 360 357 355 354 353 351 348 351 353 352 350 350 351 351 352 351 350 350 349 348 347 347 346 347 347 348
355 355 355 356 355 355 356 356 357 358 359 360 362 362 363 362 361 359 357 356 358 356 352 352 353 353 353 352 352 352 352 351 350 351 352 350 349 347 346 347 348 350
354 354 355 356 355 355 356 356 356 357 357 358 360 360 359 358 357 357 355 355 356 353 350 349 351 352 353 353 353 353 352 351 352 354 355 354 353 351 350 352 353 354
351 352 353 355 353 352 355 356 355 356 356 357 358 357 354 353 354 353 353 353 352 350 349 349 348 350 351 351 352 352 351 351 354 356 357 356 355 356 356 356 354 354
349 349 349 350 349 350 352 353 354 353 353 353 353 352 350 350 351 349 349 349 348 347 347 347 347 349 350 349 350 350 350 352 355 357 357 357 358 358 357 354 352 353
346 347 347 346 347 348 350 351 351 350 349 349 349 348 348 348 348 347 345 344 344 344 344 344 344 346 347 347 348 348 349 351 353 355 354 353 354 355 355 353 352 351
346 346 347 346 346 347 347 348 348 347 346 346 346 346 346 347 346 345 343 341 340 342 342 340 338 338 338 339 340 342 345 348 351 352 352 350 352 353 354 352 351 351

ECMWFNIL_925_thetae_126.txt.gz
Theta_e
359 359 360 360 357 357 358 357 356 356 358 359 360 360 359 358 357 356 357 358 358 359 359 359 359 359 359 358 357 359 358 356 358 358 358 358 357 358 355 352 352 350
360 359 360 359 358 357 357 357 358 358 358 358 357 358 358 359 358 358 358 359 359 360 360 359 360 359 358 358 357 357 358 358 358 358 358 358 358 358 356 353 352 350
360 360 359 358 359 359 357 357 358 358 358 358 357 356 357 359 360 359 360 361 360 360 361 360 360 359 358 360 359 359 359 359 357 357 358 359 359 359 358 356 354 353
361 360 359 358 359 358 357 358 358 357 356 357 357 356 357 358 359 360 361 361 360 359 360 360 360 359 359 361 361 360 360 359 357 359 362 361 359 360 360 357 356 355
360 360 358 357 357 356 356 357 357 356 357 356 356 356 356 356 358 361 361 361 360 360 360 360 360 360 359 360 361 360 360 359 358 360 361 359 358 360 360 358 357 358
357 359 357 357 356 354 355 356 356 357 357 357 357 357 356 357 357 359 360 360 361 361 360 359 360 360 359 361 361 359 359 360 359 360 361 360 359 360 359 358 359 359
356 357 356 356 357 355 355 356 355 356 356 355 357 357 357 358 357 358 359 359 358 359 358 358 359 359 359 360 361 359 359 360 360 361 362 362 361 361 360 359 360 360
355 356 355 357 357 356 356 356 356 356 355 354 356 356 357 357 356 357 359 358 357 356 356 357 358 358 359 360 361 360 360 360 361 361 362 362 361 362 361 360 359 359
354 354 354 356 356 356 356 356 356 356 356 355 355 356 356 356 356 356 357 357 357 357 356 357 359 359 360 361 360 361 361 360 358 358 360 360 361 361 361 360 359 358
353 353 353 353 354 355 356 355 355 355 355 355 355 355 356 356 355 355 356 357 356 357 357 357 359 360 359 359 359 360 362 361 360 359 360 360 359 359 358 358 357 357
352 352 352 352 351 352 353 354 354 354 355 355 354 354 355 356 356 354 355 357 356 357 359 358 360 360 358 358 358 359 361 361 360 360 360 359 358 357 356 356 356 356
351 351 351 351 349 349 350 351 352 353 354 355 354 354 355 355 355 355 356 358 357 357 360 360 359 360 360 358 358 358 360 359 359 359 358 358 357 356 355 355 355 355
352 351 349 349 349 348 347 347 348 349 352 353 353 353 353 353 355 355 356 360 359 357 358 359 359 360 360 359 359 358 358 359 358 357 356 355 355 354 354 352 351 351
352 351 349 348 347 347 346 345 345 346 347 350 352 351 351 352 353 354 354 358 359 357 357 358 359 360 360 360 361 359 358 358 358 356 354 353 353 352 350 349 348 347
353 352 350 349 346 346 346 345 345 345 345 346 349 349 350 350 350 352 353 355 356 356 356 355 357 359 359 359 360 358 356 356 355 355 354 352 352 351 349 347 346 345
355 354 352 350 349 348 348 346 346 346 346 346 346 347 347 347 347 348 349 350 352 353 355 354 354 354 355 354 354 354 355 355 354 352 352 352 351 351 350 349 347 346
357 357 354 353 353 354 354 353 351 350 350 347 346 346 347 346 347 347 346 346 347 348 350 351 350 350 350 350 351 352 353 354 354 353 352 352 352 352 351 350 350 349
360 359 358 358 358 359 359 359 358 357 355 353 350 348 347 347 348 347 347 346 345 344 345 347 348 349 348 347 349 351 352 352 352 352 352 351 350 351 351 351 350 350
362 363 363 362 362 362 363 363 363 363 361 359 357 355 354 353 351 350 349 349 348 347 347 348 350 351 350 348 349 350 351 351 351 351 351 349 348 349 348 348 348 348
358 358 359 360 362 362 364 365 365 365 363 363 362 360 360 360 357 356 356 353 351 350 350 350 351 351 351 351 351 351 352 352 352 352 352 350 349 348 347 347 348 348
356 354 354 356 358 359 359 360 360 361 361 360 358 356 357 358 359 360 359 356 354 352 350 350 351 352 352 351 351 351 351 352 352 352 352 352 350 350 351 352 353 351
356 355 354 354 354 356 357 356 357 357 357 355 354 354 356 357 357 359 359 358 356 355 353 352 351 352 353 352 352 352 352 352 352 352 354 355 354 353 355 356 356 355
354 354 353 352 353 356 357 356 356 355 354 353 352 353 355 356 356 356 357 357 355 353 353 352 350 350 351 352 352 353 352 352 353 354 356 357 356 356 356 357 356 356
352 352 352 351 353 354 354 354 353 351 351 351 350 350 351 352 353 352 353 353 352 350 350 351 350 348 349 350 351 351 352 351 352 354 355 356 356 356 356 356 355 354
349 349 349 349 350 350 350 350 349 347 348 348 348 347 348 348 347 348 348 348 347 347 347 347 347 346 346 348 349 350 350 350 350 353 355 355 355 354 355 356 354 353
347 347 347 347 346 347 348 347 345 345 345 344 345 346 346 345 346 345 345 345 344 345 344 342 343 343 342 343 344 346 347 348 349 351 353 354 353 352 353 354 352 352

ECMWFNIL_925_thetae_129.txt.gz
Theta_e
358 357 356 357 357 357 358 357 358 359 356 355 357 356 356 356 356 357 357 355 355 358 356 356 357 356 357 357 355 356 356 355 357 357 355 357 357 357 357 353 352 351
358 358 358 358 358 359 357 354 355 358 357 356 357 356 356 357 356 357 357 355 354 357 358 357 357 357 357 358 356 355 357 355 356 357 358 357 357 357 357 354 354 353
357 358 359 359 358 358 357 354 354 356 356 358 358 357 358 358 357 357 357 356 355 357 359 358 357 355 356 359 357 355 357 355 355 358 358 357 357 357 357 357 357 356
356 358 359 359 358 357 358 357 357 356 357 358 358 357 358 358 358 357 357 358 357 358 360 359 357 355 353 357 359 357 356 356 357 357 357 357 358 356 355 357 358 356
359 359 358 358 358 358 357 357 357 358 358 358 357 356 356 357 359 359 358 359 359 359 360 359 358 357 355 356 360 359 357 358 358 356 356 357 357 356 355 357 357 357
360 359 358 358 358 358 358 357 358 358 357 356 356 356 356 358 359 359 359 360 360 359 360 359 359 359 357 357 359 359 358 359 359 358 357 357 357 357 358 359 359 358
360 360 358 358 358 357 356 357 358 357 356 356 356 355 356 357 357 358 358 359 359 359 360 360 359 359 359 358 359 359 358 359 360 359 359 359 359 360 359 359 359 359
358 359 358 358 357 355 355 355 356 356 356 356 356 356 356 356 356 358 359 359 359 359 360 360 359 358 359 359 359 359 357 357 358 359 359 360 360 360 361 360 360 359
357 357 357 357 356 356 355 355 355 356 356 356 356 357 357 356 356 357 358 359 358 358 358 358 357 357 358 358 359 359 358 357 357 359 360 360 358 358 359 360 359 358
355 356 357 356 356 356 355 355 355 355 355 355 355 355 356 357 356 356 357 357 357 357 357 356 356 357 357 358 359 360 360 359 358 360 360 360 359 358 359 359 358 358
355 356 356 355 356 357 355 354 356 356 355 355 355 355 356 356 356 356 356 357 356 357 357 356 356 357 358 359 359 359 360 360 359 360 360 359 359 359 358 357 357 356
354 354 354 354 355 355 355 355 355 356 356 355 355 355 355 356 355 355 356 356 356 356 357 356 356 357 358 359 359 358 358 359 359 360 359 359 359 358 357 356 355 353
353 353 353 353 353 353 353 355 354 354 355 355 355 355 354 355 355 355 355 356 355 356 356 357 358 358 359 359 359 358 358 358 359 359 359 358 358 357 356 356 354 352
352 352 352 352 351 351 350 351 353 352 353 353 354 355 354 354 354 355 355 355 356 356 356 358 359 359 359 359 359 359 359 359 358 358 358 357 356 356 355 354 354 351
352 351 351 350 350 350 348 348 349 350 350 351 352 354 354 353 353 354 354 355 357 358 357 357 358 358 359 359 360 359 359 359 358 357 357 356 355 354 353 352 351 349
352 351 351 350 350 351 348 347 348 348 349 351 351 351 351 351 351 352 352 353 355 357 358 357 356 356 357 358 359 360 359 358 358 356 355 355 353 353 352 352 351 350
351 351 350 351 352 352 349 348 348 348 349 352 352 351 349 349 350 349 350 350 351 353 355 356 356 355 354 355 356 356 356 356 355 353 353 353 353 352 352 352 351 350
353 352 352 353 355 355 354 354 353 352 352 352 353 353 351 349 349 349 350 350 350 351 352 353 353 353 352 351 351 351 351 353 353 353 353 352 351 350 349 350 349 349
358 357 356 356 357 357 357 358 360 361 360 356 354 354 354 351 350 350 351 351 350 349 348 348 348 350 350 350 350 349 350 352 353 354 352 350 350 349 348 347 348 349
360 360 359 359 358 356 356 357 359 360 360 360 358 357 356 355 353 352 352 352 352 350 348 347 346 348 349 349 349 349 350 351 353 353 352 351 350 350 348 348 350 352
360 361 361 360 360 358 357 357 358 354 354 359 361 358 357 357 356 355 355 355 354 352 350 349 349 348 349 349 349 349 350 351 352 352 352 351 351 351 351 350 353 354
358 359 359 359 359 358 357 357 357 354 354 358 360 358 358 358 358 357 358 357 356 354 352 350 350 349 350 350 350 350 350 351 351 351 351 351 353 355 354 354 354 354
356 355 355 355 355 355 356 356 356 355 356 357 357 356 357 358 357 357 358 357 357 356 354 352 350 350 350 351 351 351 351 351 351 352 353 353 355 356 356 356 355 355
351 351 351 352 353 354 356 356 355 354 354 354 355 355 355 355 356 356 355 355 355 354 353 352 351 350 349 350 351 351 352 352 352 352 353 354 355 355 355 355 355 355
348 348 348 348 349 350 352 352 351 351 352 353 353 353 353 352 352 352 351 352 351 350 351 349 348 348 348 348 350 350 351 351 351 351 352 353 354 355 355 355 355 354
346 346 346 346 346 346 346 346 345 345 348 350 349 349 349 348 347 347 347 347 347 347 347 346 345 345 344 344 346 346 347 348 349 350 352 353 353 353 353 354 354 352

ECMWFNIL_925_thetae_132.txt.gz
Theta_e
354 353 354 353 352 352 353 354 354 353 355 355 355 356 356 357 356 355 355 355 354 356 356 354 354 354 354 355 354 352 353 353 355 356 355 355 355 355 356 354 354 354
354 353 354 354 353 353 354 354 354 353 354 355 355 355 355 357 357 355 356 356 355 356 357 355 355 355 354 355 355 353 354 354 355 356 356 355 355 355 355 355 355 355
355 354 354 354 353 354 354 354 355 354 355 355 355 354 355 356 356 355 356 357 355 355 357 356 355 356 356 355 355 354 355 355 355 355 356 356 356 356 355 356 355 356
356 355 355 354 354 355 355 356 356 355 356 356 355 354 355 355 355 356 356 357 356 354 356 357 357 356 356 355 356 355 355 354 354 355 356 355 356 356 354 354 355 356
357 357 356 356 357 356 356 357 355 354 355 356 356 356 356 356 357 357 357 357 356 354 355 357 358 357 354 354 356 357 356 355 355 355 355 354 354 354 351 353 356 358
358 358 357 357 358 357 356 356 354 353 354 355 356 358 357 357 358 358 357 357 357 356 356 357 358 357 354 354 356 358 358 357 356 356 356 355 356 355 354 356 358 359
358 357 358 358 358 357 356 356 356 355 355 356 357 358 357 357 357 357 357 358 358 358 358 358 359 358 356 356 356 356 357 357 356 358 359 358 357 357 357 358 359 358
358 356 357 358 358 358 357 357 356 356 357 357 357 357 356 356 356 358 358 358 358 358 358 359 359 358 358 358 357 357 357 356 356 358 360 358 357 358 358 358 359 359
358 358 358 358 358 358 358 357 356 356 357 357 356 356 356 355 356 357 357 357 358 358 358 359 359 359 358 358 358 358 358 357 357 357 357 358 358 359 358 357 358 358
358 359 359 359 359 358 357 356 355 356 357 356 356 356 356 355 356 356 356 357 358 358 357 357 358 359 358 358 358 358 358 358 358 357 356 358 360 359 358 357 359 358
358 359 359 359 359 357 356 355 354 355 356 356 356 356 356 356 356 355 355 356 358 357 357 357 357 358 357 357 357 357 358 359 359 358 358 359 359 359 359 359 358 357
357 357 357 358 358 357 356 355 354 354 354 355 355 355 356 356 356 356 356 356 356 357 357 356 357 357 356 356 357 357 358 358 358 358 358 359 359 359 358 358 357 356
357 356 355 356 356 356 356 355 354 354 354 355 355 354 355 355 355 356 356 356 356 356 356 356 356 356 356 356 357 357 358 358 358 358 358 359 359 358 358 357 357 355
356 356 355 355 355 354 355 355 354 354 355 355 355 355 354 354 355 355 356 355 355 356 356 355 356 356 356 356 357 358 358 358 358 358 359 358 358 357 357 357 356 355
355 355 354 355 355 353 354 355 354 354 355 355 355 355 355 355 354 354 355 355 355 355 356 356 356 356 357 357 358 358 358 358 359 358 358 358 357 356 357 356 354 353
353 353 353 354 354 353 353 353 353 354 354 355 355 354 355 355 354 354 355 355 355 355 356 356 356 357 358 359 358 358 359 359 359 358 358 357 356 355 355 355 353 352
353 352 352 352 352 352 352 351 351 350 352 354 354 354 355 355 354 354 353 353 354 354 356 356 357 357 357 358 358 359 359 359 358 359 358 357 356 354 353 352 351 351
352 352 352 352 352 352 351 351 350 349 349 351 352 353 354 354 354 353 353 353 353 354 355 357 357 357 357 356 357 356 357 358 358 358 357 356 355 353 351 350 349 349
352 352 351 351 352 352 352 352 352 351 349 349 352 352 354 354 353 353 352 353 353 352 353 355 356 357 357 355 355 354 353 355 355 354 354 354 353 351 350 349 349 348
355 354 353 353 353 353 354 353 354 354 351 351 352 353 353 352 352 351 351 351 351 349 349 352 353 354 354 354 354 353 351 351 350 351 352 353 352 350 349 349 349 348
357 356 353 351 351 354 356 356 355 356 354 353 354 354 353 352 351 351 350 349 349 349 349 350 350 350 349 349 350 349 350 349 349 350 353 353 352 351 350 350 349 349
357 356 353 352 352 353 355 355 356 357 356 356 357 356 355 354 353 353 352 350 349 349 348 348 347 347 346 347 347 348 349 349 349 351 352 352 352 352 351 351 351 351
355 354 351 351 352 353 354 354 354 356 356 356 357 358 357 356 356 356 355 354 351 350 350 349 348 348 348 348 349 349 349 350 351 351 352 352 353 353 353 353 353 353
353 352 349 348 349 351 352 352 354 354 355 355 356 357 357 356 356 356 356 355 354 351 351 350 349 349 349 348 349 349 350 351 351 351 353 353 354 354 354 354 354 354
351 350 348 346 346 347 348 350 353 353 353 354 354 355 355 354 354 355 354 353 352 351 350 349 349 348 348 349 350 350 350 351 351 352 353 354 355 355 355 355 355 354
348 348 347 346 346 346 347 349 351 349 349 350 352 352 353 353 352 352 351 349 348 347 346 346 346 347 346 347 348 349 350 351 351 351 351 353 354 354 354 354 354 352

ECMWFNIL_925_thetae_135.txt.gz
Theta_e
351 350 350 351 351 351 351 351 351 352 353 353 353 354 355 355 356 356 355 355 354 353 353 355 354 354 354 354 354 353 352 352 353 354 354 354 354 354 354 354 353 353
354 353 352 352 352 352 351 351 351 352 353 353 353 353 354 355 355 356 356 355 354 353 353 355 355 354 354 353 354 354 353 352 353 354 354 354 354 354 354 354 354 355
355 354 354 353 352 353 352 351 351 352 353 353 353 354 354 354 354 355 356 355 354 354 354 356 355 354 354 354 354 354 354 354 354 354 354 355 355 354 354 355 354 355
354 354 354 353 353 353 352 352 352 353 353 353 353 353 354 354 354 355 356 355 355 355 355 356 356 355 355 355 355 355 354 355 355 354 353 354 354 353 353 353 352 354
354 353 354 354 353 353 353 352 353 353 354 353 353 353 354 354 354 355 355 355 355 355 355 355 356 356 356 356 356 355 354 354 354 354 353 353 354 353 353 353 353 356
354 353 354 354 354 353 353 353 353 353 354 353 354 354 355 354 354 354 355 355 355 356 355 355 354 355 356 356 356 354 354 355 355 355 355 354 355 355 355 355 356 357
354 353 355 355 355 354 354 354 354 354 355 355 354 355 355 355 355 355 355 356 356 356 356 355 354 354 355 357 356 354 354 355 356 357 357 356 358 358 356 357 357 357
355 355 356 357 356 356 355 356 356 355 355 354 353 354 355 356 356 356 356 357 357 356 356 356 356 355 356 357 356 355 355 355 356 357 356 357 359 358 356 357 357 357
356 357 357 357 358 357 357 357 356 355 355 355 353 354 355 356 357 357 357 357 357 357 356 357 357 357 357 358 357 356 357 357 357 357 356 357 357 357 357 358 357 356
357 358 358 358 358 357 357 357 357 356 356 356 355 355 356 356 357 356 356 356 356 357 357 357 358 357 358 358 358 357 357 357 357 357 357 356 355 356 358 358 358 358
355 357 359 358 357 357 357 357 357 357 357 356 355 356 356 356 356 356 355 355 356 357 357 357 357 358 357 358 358 357 357 356 357 358 358 358 356 356 358 358 358 358
355 357 359 358 357 356 357 357 357 357 357 356 355 356 356 355 355 355 355 355 356 356 356 357 357 357 356 356 357 357 357 357 357 357 358 358 358 357 358 358 357 357
355 356 358 358 357 357 357 357 357 357 356 355 354 355 355 355 355 356 355 355 355 355 355 356 356 356 356 356 356 356 356 356 356 357 357 357 358 358 358 358 358 358
355 356 357 357 357 357 358 358 358 357 356 355 354 354 355 355 355 355 356 355 355 355 355 355 356 356 356 356 356 356 356 356 356 357 357 357 358 357 357 357 357 357
354 355 356 356 357 356 356 357 357 357 356 355 354 353 354 354 354 355 355 355 355 355 355 355 355 355 356 356 355 355 355 356 357 357 357 357 358 358 357 357 356 357
354 354 355 355 357 356 355 355 355 355 355 354 354 354 354 354 355 355 354 354 354 355 355 355 355 355 356 355 355 355 356 356 357 357 357 358 358 358 357 356 355 355
355 355 355 354 355 356 354 354 354 354 354 354 354 353 354 355 355 355 355 354 354 354 355 355 355 355 355 356 355 356 356 357 358 357 358 358 359 358 357 355 353 353
356 356 354 354 355 355 354 354 354 354 353 353 353 353 354 354 354 355 355 355 355 354 354 355 355 355 355 356 356 356 356 358 358 358 358 358 358 358 358 357 353 350
355 355 354 353 353 354 354 353 353 353 353 352 352 352 352 353 354 355 355 354 354 354 354 354 354 355 355 355 356 356 356 357 359 358 359 358 359 358 358 357 354 350
354 354 353 353 353 352 353 353 352 352 352 351 351 350 349 350 352 353 354 354 354 353 353 354 354 354 355 355 356 356 356 357 357 357 356 357 357 357 355 355 352 349
352 353 352 352 352 353 353 353 353 353 352 351 351 350 349 349 349 351 352 353 353 353 353 353 353 354 354 354 354 356 356 356 355 354 353 353 352 352 352 352 351 349
352 352 352 352 352 353 353 353 354 354 353 352 352 351 351 351 351 351 352 352 353 353 352 352 353 352 352 352 352 354 354 354 353 351 350 350 350 350 351 351 350 349
353 353 352 352 351 351 352 354 355 355 355 354 354 353 353 354 353 352 351 351 351 351 351 350 350 350 350 350 350 351 351 350 349 349 349 350 351 351 352 351 351 351
353 352 351 350 350 351 352 352 353 354 355 355 355 355 355 355 354 351 350 350 349 348 348 347 347 347 348 348 348 348 348 348 348 349 350 351 352 353 353 353 353 353
352 351 347 346 349 350 350 349 350 351 353 354 354 354 355 354 353 351 350 349 347 346 346 346 346 346 347 347 347 348 348 348 349 350 351 352 353 354 354 354 354 354
351 350 347 347 348 347 346 347 349 350 351 352 352 352 352 350 349 348 348 349 350 350 349 348 347 347 347 348 348 349 349 349 349 350 352 354 354 354 354 354 353 352